[[{"header":{"parameterUnit":"m.s-1","parameterCategory":1,"la1":30.6,"la2":29.2853,"lo1":-89.7004,"lo2":-87.6739,"dy":0.0162,"dx":0.0183,"nx":112,"ny":82,"refTime":"2024-02-17T06:00:00:Z","depth":0,"parameterNumber":2,"parameterNumberName":"U-component_of_WINDS"},"data":[0.0,0.0,0.0,0.0,0.0,0.0,0.0,0.0,0.0,0.0,0.0,0.0,0.0,0.0,0.0,0.0,0.0,0.0,0.0,0.0,0.0,0.0,0.0,0.0,0.0,0.0,0.0,0.0,0.0,0.0,0.0,0.0,0.0,0.0,0.0,0.0,0.0,0.0,0.0,0.0,0.0,0.0,0.0,0.0,0.0,0.0,0.0,0.0,0.0,0.0,0.0,0.0,0.0,0.0,0.0,0.0,0.0,0.0,0.0,0.0,0.0,0.0,0.0,0.0,0.0,0.0,0.0,0.0,0.0,0.0,0.0,0.0,0.0,0.0,0.0,0.0,0.0,0.0,0.0,0.0,0.0,0.0,0.0,0.0,0.0,0.0,0.0,0.0,0.0,0.0,-4.747,-4.8094,-4.823,-4.8267,-4.8172,-4.8248,-4.8267,-4.8172,0.0,0.0,0.0,0.0,0.0,0.0,0.0,0.0,0.0,0.0,0.0,0.0,0.0,0.0,0.0,0.0,0.0,0.0,0.0,0.0,0.0,0.0,0.0,0.0,0.0,0.0,0.0,0.0,0.0,0.0,0.0,0.0,0.0,0.0,0.0,0.0,0.0,0.0,0.0,0.0,0.0,0.0,0.0,0.0,0.0,0.0,0.0,0.0,0.0,0.0,0.0,0.0,0.0,0.0,0.0,0.0,0.0,0.0,0.0,0.0,0.0,0.0,0.0,0.0,0.0,0.0,0.0,0.0,0.0,0.0,0.0,0.0,0.0,0.0,0.0,0.0,0.0,0.0,0.0,0.0,0.0,0.0,0.0,0.0,0.0,0.0,0.0,0.0,0.0,0.0,0.0,0.0,0.0,0.0,0.0,0.0,0.0,0.0,0.0,0.0,0.0,0.0,0.0,0.0,-4.6801,-4.7488,-4.7977,-4.8094,-4.7572,-4.8015,-4.8075,-4.7572,0.0,0.0,0.0,0.0,0.0,0.0,0.0,0.0,0.0,0.0,0.0,0.0,0.0,0.0,0.0,0.0,0.0,0.0,0.0,0.0,0.0,0.0,0.0,0.0,0.0,0.0,0.0,0.0,0.0,0.0,0.0,0.0,0.0,0.0,0.0,0.0,0.0,0.0,0.0,0.0,0.0,0.0,0.0,0.0,0.0,0.0,0.0,0.0,0.0,0.0,0.0,0.0,0.0,0.0,0.0,0.0,0.0,0.0,0.0,0.0,0.0,0.0,0.0,0.0,0.0,0.0,0.0,0.0,0.0,0.0,0.0,0.0,0.0,0.0,0.0,0.0,0.0,0.0,0.0,0.0,0.0,0.0,0.0,0.0,0.0,0.0,0.0,0.0,0.0,0.0,0.0,0.0,0.0,0.0,0.0,0.0,0.0,0.0,0.0,0.0,0.0,0.0,0.0,-4.6571,-4.6524,-4.6842,-4.711,-4.7302,-4.7385,-4.7324,-4.7302,-4.7385,-4.6751,0.0,0.0,0.0,0.0,0.0,0.0,0.0,0.0,0.0,0.0,0.0,0.0,0.0,0.0,0.0,0.0,0.0,0.0,0.0,0.0,0.0,0.0,0.0,0.0,0.0,0.0,0.0,0.0,0.0,0.0,0.0,0.0,0.0,0.0,0.0,0.0,0.0,0.0,0.0,0.0,0.0,0.0,0.0,0.0,0.0,0.0,0.0,0.0,0.0,0.0,0.0,0.0,0.0,0.0,0.0,0.0,0.0,0.0,0.0,0.0,0.0,0.0,0.0,0.0,0.0,0.0,0.0,0.0,0.0,0.0,0.0,0.0,0.0,0.0,0.0,0.0,0.0,0.0,0.0,0.0,0.0,0.0,0.0,0.0,0.0,0.0,0.0,0.0,0.0,0.0,0.0,0.0,0.0,0.0,0.0,0.0,0.0,0.0,0.0,0.0,0.0,0.0,-4.6039,-4.6407,-4.6407,-4.6407,-4.6548,-4.691,-4.6618,-4.6548,-4.6927,-4.6161,0.0,0.0,0.0,0.0,0.0,0.0,0.0,0.0,0.0,0.0,0.0,0.0,0.0,0.0,0.0,0.0,0.0,0.0,0.0,0.0,0.0,0.0,0.0,0.0,0.0,0.0,0.0,0.0,0.0,0.0,0.0,0.0,0.0,0.0,0.0,0.0,0.0,0.0,0.0,0.0,0.0,0.0,0.0,0.0,0.0,0.0,0.0,0.0,0.0,0.0,0.0,0.0,0.0,0.0,0.0,0.0,0.0,0.0,0.0,0.0,0.0,0.0,0.0,0.0,0.0,0.0,0.0,0.0,0.0,0.0,0.0,0.0,0.0,0.0,0.0,0.0,0.0,0.0,0.0,0.0,0.0,0.0,0.0,0.0,0.0,0.0,0.0,0.0,0.0,0.0,0.0,0.0,0.0,0.0,0.0,0.0,0.0,0.0,0.0,0.0,0.0,0.0,-4.6039,-4.6407,-4.6407,-4.6407,-4.6192,-4.5673,-4.6094,-4.6167,-4.5673,-4.6088,0.0,0.0,0.0,0.0,0.0,0.0,0.0,0.0,0.0,0.0,0.0,0.0,0.0,0.0,0.0,0.0,0.0,0.0,0.0,0.0,0.0,0.0,0.0,0.0,0.0,0.0,0.0,0.0,0.0,0.0,0.0,0.0,0.0,0.0,0.0,0.0,0.0,0.0,0.0,0.0,0.0,0.0,0.0,0.0,0.0,0.0,0.0,0.0,0.0,0.0,0.0,0.0,0.0,0.0,0.0,0.0,0.0,0.0,0.0,0.0,0.0,0.0,0.0,0.0,0.0,0.0,0.0,0.0,0.0,0.0,0.0,0.0,0.0,0.0,0.0,0.0,0.0,0.0,0.0,0.0,0.0,0.0,0.0,0.0,0.0,0.0,0.0,0.0,0.0,0.0,0.0,0.0,0.0,0.0,0.0,0.0,0.0,0.0,0.0,0.0,0.0,0.0,-4.5142,-4.5267,-4.5267,-4.5267,-4.5346,-4.5485,-4.5355,-4.5346,-4.5485,0.0,0.0,0.0,0.0,0.0,0.0,0.0,0.0,0.0,0.0,0.0,0.0,0.0,0.0,0.0,0.0,0.0,0.0,0.0,0.0,0.0,0.0,0.0,0.0,0.0,0.0,0.0,0.0,0.0,0.0,0.0,0.0,0.0,0.0,0.0,0.0,0.0,0.0,0.0,0.0,0.0,0.0,0.0,0.0,0.0,0.0,0.0,0.0,0.0,0.0,0.0,0.0,0.0,0.0,0.0,0.0,0.0,0.0,0.0,0.0,0.0,0.0,0.0,0.0,0.0,0.0,0.0,0.0,0.0,0.0,0.0,0.0,0.0,0.0,0.0,0.0,0.0,0.0,0.0,0.0,0.0,0.0,0.0,0.0,0.0,0.0,0.0,0.0,0.0,0.0,0.0,0.0,0.0,0.0,0.0,0.0,0.0,0.0,0.0,0.0,0.0,0.0,-4.4852,-4.472,-4.4682,-4.4869,-4.472,-4.4776,-4.5178,-4.4841,-4.4776,-4.5178,0.0,0.0,0.0,0.0,0.0,0.0,0.0,0.0,0.0,0.0,0.0,0.0,0.0,0.0,0.0,0.0,0.0,0.0,0.0,0.0,0.0,0.0,0.0,0.0,0.0,0.0,0.0,0.0,0.0,0.0,0.0,0.0,0.0,0.0,0.0,0.0,0.0,0.0,0.0,0.0,0.0,0.0,0.0,0.0,0.0,0.0,0.0,0.0,0.0,0.0,0.0,0.0,0.0,0.0,0.0,0.0,0.0,0.0,0.0,0.0,0.0,0.0,0.0,0.0,0.0,0.0,0.0,0.0,0.0,0.0,0.0,0.0,0.0,0.0,0.0,0.0,0.0,0.0,0.0,0.0,0.0,0.0,0.0,0.0,0.0,0.0,0.0,0.0,0.0,0.0,0.0,0.0,0.0,0.0,0.0,0.0,0.0,0.0,0.0,0.0,0.0,0.0,-4.5407,-4.4971,-4.4841,-4.5433,-4.4961,-4.4615,-4.4615,-4.4615,-4.4615,0.0,0.0,0.0,0.0,0.0,0.0,0.0,0.0,0.0,0.0,0.0,0.0,0.0,0.0,0.0,0.0,0.0,0.0,0.0,0.0,0.0,0.0,0.0,0.0,0.0,0.0,0.0,0.0,0.0,0.0,0.0,0.0,0.0,0.0,0.0,0.0,0.0,0.0,0.0,0.0,0.0,0.0,0.0,0.0,0.0,0.0,0.0,0.0,0.0,0.0,0.0,0.0,0.0,0.0,0.0,0.0,0.0,0.0,0.0,0.0,0.0,0.0,0.0,0.0,0.0,0.0,0.0,0.0,0.0,0.0,0.0,0.0,0.0,0.0,0.0,0.0,0.0,0.0,0.0,0.0,0.0,0.0,0.0,0.0,0.0,0.0,0.0,0.0,0.0,0.0,0.0,0.0,0.0,0.0,0.0,0.0,0.0,0.0,0.0,0.0,0.0,0.0,0.0,-4.4841,-4.4692,-4.4682,-4.4841,-4.4692,-4.4615,-4.4615,-4.4615,-4.4615,-4.4615,0.0,0.0,0.0,0.0,0.0,0.0,0.0,0.0,0.0,0.0,0.0,0.0,0.0,0.0,0.0,0.0,0.0,0.0,0.0,0.0,0.0,0.0,0.0,0.0,0.0,0.0,0.0,0.0,0.0,0.0,0.0,0.0,0.0,0.0,0.0,0.0,0.0,0.0,0.0,0.0,0.0,0.0,0.0,0.0,0.0,0.0,0.0,0.0,0.0,0.0,0.0,0.0,0.0,0.0,0.0,0.0,0.0,0.0,0.0,0.0,0.0,0.0,0.0,0.0,0.0,0.0,0.0,0.0,0.0,0.0,0.0,0.0,0.0,0.0,0.0,0.0,0.0,0.0,0.0,0.0,0.0,0.0,0.0,0.0,0.0,0.0,0.0,0.0,0.0,0.0,0.0,0.0,0.0,0.0,0.0,0.0,0.0,0.0,0.0,0.0,0.0,0.0,-4.4615,-4.4615,-4.4615,-4.4615,-4.4615,-4.4615,-4.4615,-4.4615,-4.4615,-4.4615,0.0,0.0,0.0,0.0,0.0,0.0,0.0,0.0,0.0,0.0,0.0,0.0,0.0,0.0,0.0,0.0,0.0,0.0,0.0,0.0,0.0,0.0,0.0,0.0,0.0,0.0,0.0,0.0,0.0,0.0,0.0,0.0,0.0,0.0,0.0,0.0,0.0,0.0,0.0,0.0,0.0,0.0,0.0,0.0,0.0,0.0,0.0,0.0,0.0,0.0,0.0,0.0,0.0,0.0,0.0,0.0,0.0,0.0,0.0,0.0,0.0,0.0,0.0,0.0,0.0,0.0,0.0,0.0,0.0,0.0,0.0,0.0,0.0,0.0,0.0,0.0,0.0,0.0,0.0,0.0,0.0,0.0,0.0,0.0,0.0,0.0,0.0,0.0,0.0,0.0,0.0,0.0,0.0,0.0,0.0,0.0,0.0,0.0,0.0,0.0,0.0,0.0,-4.4615,-4.4615,-4.4615,-4.4615,-4.4615,-4.4615,-4.4615,-4.4615,-4.4615,-4.4615,0.0,0.0,0.0,0.0,0.0,0.0,0.0,0.0,0.0,0.0,0.0,0.0,0.0,0.0,0.0,0.0,0.0,0.0,0.0,0.0,0.0,0.0,0.0,0.0,0.0,0.0,0.0,0.0,0.0,0.0,0.0,0.0,0.0,0.0,0.0,0.0,0.0,0.0,0.0,0.0,0.0,0.0,0.0,0.0,0.0,0.0,0.0,0.0,0.0,0.0,0.0,0.0,0.0,0.0,0.0,0.0,0.0,0.0,0.0,0.0,-5.0903,-5.1086,0.0,0.0,0.0,0.0,0.0,0.0,0.0,0.0,0.0,0.0,0.0,0.0,0.0,0.0,0.0,0.0,0.0,0.0,0.0,0.0,0.0,0.0,0.0,0.0,0.0,0.0,0.0,0.0,0.0,0.0,0.0,0.0,0.0,0.0,0.0,0.0,0.0,0.0,0.0,0.0,-4.4615,-4.4615,-4.4615,-4.4615,-4.4615,-4.4615,-4.4615,-4.4615,-4.4615,-4.4615,-4.4615,0.0,0.0,0.0,0.0,0.0,0.0,0.0,0.0,0.0,0.0,0.0,0.0,0.0,0.0,0.0,0.0,0.0,0.0,0.0,0.0,0.0,0.0,0.0,0.0,0.0,0.0,0.0,0.0,0.0,0.0,0.0,0.0,0.0,0.0,0.0,0.0,0.0,0.0,0.0,0.0,0.0,0.0,0.0,0.0,0.0,0.0,0.0,0.0,0.0,0.0,0.0,0.0,0.0,0.0,0.0,0.0,0.0,0.0,0.0,-5.0061,-5.0107,0.0,0.0,0.0,0.0,0.0,0.0,0.0,0.0,0.0,0.0,0.0,0.0,0.0,0.0,0.0,0.0,0.0,0.0,0.0,0.0,0.0,0.0,0.0,0.0,0.0,0.0,0.0,0.0,0.0,0.0,0.0,0.0,0.0,0.0,0.0,0.0,0.0,0.0,0.0,0.0,-4.4615,-4.4615,-4.4615,-4.4615,-4.4615,-4.4615,-4.4615,-4.4615,-4.4615,-4.4615,-4.4615,0.0,0.0,0.0,0.0,0.0,0.0,0.0,0.0,0.0,0.0,0.0,0.0,0.0,0.0,0.0,0.0,0.0,0.0,0.0,0.0,0.0,0.0,0.0,0.0,0.0,0.0,0.0,0.0,0.0,0.0,0.0,0.0,0.0,0.0,0.0,0.0,0.0,0.0,0.0,0.0,0.0,0.0,0.0,0.0,0.0,0.0,0.0,0.0,0.0,0.0,0.0,0.0,0.0,-5.0608,-5.085,-5.0716,-5.0118,-4.9821,-4.9792,-4.9226,-4.9001,-4.9032,-4.9593,0.0,0.0,0.0,0.0,0.0,0.0,0.0,0.0,0.0,0.0,0.0,0.0,0.0,0.0,0.0,0.0,0.0,0.0,0.0,0.0,0.0,0.0,-4.6786,-4.6786,-4.6786,-4.6464,-4.5258,0.0,0.0,0.0,0.0,0.0,0.0,0.0,0.0,0.0,0.0,0.0,-4.4615,-4.4615,-4.4615,-4.4615,-4.4615,-4.4615,-4.4615,-4.4615,-4.4615,-4.4615,-4.4615,-4.4615,0.0,0.0,0.0,0.0,0.0,0.0,0.0,0.0,0.0,0.0,0.0,0.0,0.0,0.0,0.0,0.0,0.0,0.0,0.0,0.0,0.0,0.0,0.0,0.0,0.0,0.0,0.0,0.0,0.0,0.0,0.0,0.0,-5.0508,-5.0637,0.0,0.0,0.0,0.0,0.0,0.0,0.0,0.0,0.0,0.0,0.0,0.0,0.0,-5.106,-5.0955,-5.0955,-5.0635,-5.0004,-5.01,-4.9821,-4.9256,-4.9182,-4.9138,-4.9138,-4.9032,0.0,-4.9001,-4.9107,0.0,0.0,0.0,0.0,0.0,0.0,0.0,0.0,0.0,0.0,0.0,0.0,0.0,0.0,0.0,0.0,0.0,0.0,0.0,0.0,0.0,0.0,-4.6786,-4.6786,-4.6786,-4.6735,-4.6532,-4.6007,-4.5551,-4.5568,-4.5026,-4.4615,0.0,0.0,0.0,0.0,0.0,0.0,-4.4615,-4.4615,-4.4615,-4.4615,-4.4615,-4.4615,-4.4615,-4.4615,-4.4615,-4.4615,-4.4615,-4.4615,-4.4615,-4.4615,0.0,0.0,0.0,0.0,0.0,0.0,0.0,0.0,0.0,0.0,0.0,0.0,0.0,0.0,0.0,0.0,0.0,0.0,0.0,0.0,0.0,0.0,0.0,0.0,0.0,0.0,0.0,0.0,0.0,-5.0582,-5.0967,-5.1426,-5.1463,-5.1646,0.0,0.0,0.0,0.0,0.0,0.0,0.0,0.0,0.0,-5.05,-5.0472,-5.0297,-4.9907,-4.9925,-4.9768,-4.9449,-4.9449,-4.9286,-4.9001,-4.9001,-4.9001,-4.9001,-4.9001,-4.9001,-4.9001,-4.9001,-4.9001,-4.9001,0.0,0.0,0.0,0.0,-4.9001,-4.9001,-4.9001,-4.9001,-4.9001,-4.9001,0.0,0.0,0.0,0.0,0.0,0.0,0.0,-4.8528,-4.8528,-4.8274,-4.8037,-4.8037,-4.8037,-4.8037,-4.8037,-4.7462,-4.6819,-4.6397,-4.6058,-4.585,-4.585,-4.585,0.0,0.0,0.0,-4.506,-4.4649,-4.4615,-4.4615,-4.4615,-4.4615,-4.4615,-4.4615,-4.4615,-4.4615,-4.4615,-4.4615,-4.4615,-4.4615,-4.4615,-4.4615,0.0,0.0,0.0,0.0,0.0,0.0,0.0,0.0,0.0,0.0,0.0,0.0,0.0,0.0,0.0,0.0,0.0,0.0,0.0,0.0,0.0,0.0,0.0,0.0,0.0,0.0,0.0,0.0,-5.1279,-5.1646,-5.2234,-5.2145,-5.2322,0.0,0.0,0.0,0.0,0.0,0.0,-5.0823,-5.0823,-5.0554,-5.0033,-4.9821,-4.9593,-4.9256,-4.9077,-4.9086,-4.9272,-4.9272,-4.939,-4.956,-4.956,-4.956,-4.956,-4.956,-4.9458,-4.9272,-4.9086,-4.9001,-4.9001,-4.9001,-4.9001,-4.9001,-4.9001,-4.9001,-4.9001,-4.9001,-4.9001,-4.9001,-4.9001,-4.9001,-4.9001,-4.9001,0.0,0.0,0.0,0.0,-4.9001,-4.9001,-4.9001,-4.9001,-4.9001,-4.9001,-4.9001,-4.9001,-4.8578,-4.797,-4.7225,-4.6921,-4.6786,-4.6786,-4.6786,0.0,-4.6058,-4.5821,-4.55,-4.4942,-4.4733,-4.4615,-4.4615,-4.4615,-4.4615,-4.4615,-4.4615,-4.4615,-4.4615,-4.4615,-4.4615,-4.4615,-4.4615,-4.4615,-4.4615,0.0,0.0,0.0,0.0,0.0,0.0,0.0,0.0,0.0,0.0,0.0,0.0,0.0,0.0,0.0,0.0,0.0,0.0,0.0,0.0,0.0,0.0,0.0,0.0,0.0,0.0,0.0,0.0,0.0,-5.3133,-5.2522,0.0,0.0,0.0,0.0,-5.2047,-5.1469,-5.0796,-5.0072,-5.0061,-5.0033,-5.0004,-4.9389,-4.9329,-4.9947,-4.9316,-4.9357,-5.0033,-5.0033,-5.0405,-5.1099,-5.1099,-5.1099,-5.1099,-5.1099,-5.0693,-4.9982,-4.9289,-4.9001,-4.9001,-4.9001,-4.9001,-4.9001,-4.9001,-4.9001,-4.9001,-4.9001,-4.9001,-4.9001,-4.9001,-4.9001,-4.9001,-4.9001,-4.9001,0.0,0.0,-4.9001,-4.9001,-4.9001,-4.9001,-4.9001,-4.9001,-4.9001,-4.9001,-4.9001,-4.8968,-4.8731,-4.8003,-4.7276,-4.6786,-4.6786,0.0,-4.6786,-4.6735,-4.6143,-4.5703,-4.5652,-4.5026,-4.4615,-4.4615,-4.4615,-4.4615,-4.4615,-4.4615,-4.4615,-4.4615,-4.4615,-4.4615,-4.4615,-4.4615,-4.4615,-4.4615,-4.4615,0.0,0.0,0.0,0.0,0.0,0.0,0.0,0.0,0.0,0.0,0.0,0.0,0.0,0.0,0.0,0.0,0.0,0.0,0.0,0.0,0.0,0.0,0.0,0.0,0.0,0.0,0.0,0.0,-5.2554,-5.2271,0.0,-5.185,-5.0955,-5.0517,-5.0778,-5.0163,-4.9622,-4.9359,-4.9359,-4.9581,-5.0059,-5.033,-5.0571,-5.0762,-5.1051,-5.1052,-5.0811,-5.0811,-5.0963,-5.1185,-5.1185,-5.1185,-5.1185,-5.1185,-5.1065,-5.0794,-5.0541,-4.9864,-4.9001,-4.9001,-4.9001,-4.9001,-4.9001,-4.9001,-4.9001,-4.9001,-4.9001,-4.9001,-4.9001,-4.9001,-4.9001,-4.9001,-4.9001,-4.9001,-4.9001,-4.9001,-4.9001,-4.9001,-4.9001,-4.9001,-4.9001,-4.9001,-4.9001,-4.9001,-4.9001,-4.8934,-4.8663,-4.8409,-4.8223,-4.8223,-4.8223,-4.8054,-4.7581,-4.7293,-4.6955,-4.6464,-4.5754,-4.5314,-4.5314,-4.4874,-4.4615,-4.4615,-4.4615,-4.4615,-4.4615,-4.4615,-4.4615,-4.4615,-4.4615,-4.4615,-4.4615,-4.4615,-4.4615,0.0,0.0,0.0,0.0,0.0,0.0,0.0,0.0,0.0,0.0,0.0,0.0,0.0,0.0,0.0,0.0,0.0,0.0,0.0,0.0,0.0,0.0,0.0,0.0,0.0,-5.2999,-5.2747,-5.249,-5.1832,-5.1494,-5.1777,-5.0517,-4.9867,-5.0404,-4.9778,-4.948,-4.9752,-4.9749,-5.0181,-5.1189,-5.1253,-5.136,-5.158,-5.1857,-5.1839,-5.1589,-5.1589,-5.1725,-5.1995,-5.1995,-5.2124,-5.233,-5.2092,-5.2115,-5.231,-5.1781,-5.1004,-5.0127,-4.987,-4.9593,-4.9373,-4.9373,-4.9221,-4.9001,-4.9001,-4.9001,-4.9001,-4.9001,-4.9001,-4.9001,-4.9001,-4.9001,-4.9001,-4.9001,-4.9001,-4.9001,-4.9001,-4.9001,-4.9001,-4.9001,-4.9001,-4.9001,-4.9001,-4.9001,-4.9001,-4.9001,-4.9001,-4.9001,-4.9001,-4.9001,-4.8832,-4.8359,-4.8041,-4.7703,-4.7242,-4.6532,-4.5974,-4.5737,-4.5263,-4.4886,-4.4632,-4.4615,-4.4615,-4.4615,-4.4615,-4.4615,-4.4615,-4.4615,-4.4615,-4.4615,-4.4615,-4.4615,-4.4615,0.0,0.0,0.0,0.0,0.0,0.0,0.0,0.0,0.0,0.0,0.0,0.0,0.0,0.0,0.0,0.0,0.0,0.0,0.0,0.0,0.0,0.0,0.0,-5.3185,-5.2576,-5.2381,-5.3082,-5.1317,-5.0876,-5.2893,-5.0688,-4.9644,-5.0964,-5.0533,-5.055,-5.1275,-5.1281,-5.1901,-5.3386,-5.2041,-5.1646,-5.2376,-5.1728,-5.1754,-5.24,-5.245,-5.2907,-5.3669,-5.3669,-5.3997,-5.461,-5.3899,-5.3931,-5.4433,-5.2958,-5.2375,-5.2347,-5.152,-5.076,-5.0118,-5.0118,-4.9678,-4.9069,-4.9035,-4.9035,-4.9035,-4.9018,-4.9001,-4.9001,-4.9001,-4.9001,-4.9001,-4.9001,-4.9001,-4.9001,-4.9001,-4.9001,-4.9001,-4.9001,-4.9001,-4.9001,-4.9001,-4.9001,-4.9001,-4.9001,-4.9001,-4.9001,-4.9001,-4.9001,-4.9001,-4.9001,-4.8409,0.0,-4.7922,-4.7293,-4.6549,-4.5855,-4.5754,-4.5432,-4.4699,-4.4632,-4.4632,-4.4615,-4.4615,-4.4615,-4.4615,-4.4615,-4.4615,-4.4615,-4.4615,-4.4615,-4.4615,0.0,0.0,0.0,0.0,0.0,0.0,0.0,0.0,0.0,0.0,0.0,0.0,0.0,0.0,0.0,0.0,0.0,0.0,0.0,0.0,0.0,-5.3185,-5.3185,-5.3185,-5.302,-5.2769,-5.2445,-5.188,-5.135,-5.0929,-5.1189,-5.1122,-5.0429,-5.1732,-5.2437,-5.2113,-5.2084,-5.274,-5.4201,-5.3873,-5.3748,-5.3965,-5.5453,-5.5725,-5.4859,-5.6038,-5.668,-5.6908,-5.6908,-5.6379,-5.5452,-5.5265,-5.4645,-5.3766,-5.3345,-5.3177,-5.3051,-5.1737,-5.1099,-5.0913,-5.0913,-5.0777,-5.0524,-4.9982,-4.9796,-4.9712,-4.9171,-4.9001,-4.9001,-4.9001,-4.9001,-4.9001,-4.9001,-4.9001,-4.9001,-4.9001,-4.9001,-4.9001,-4.9001,-4.9001,-4.9001,-4.9001,-4.9001,-4.9001,-4.9001,-4.9001,-4.9001,-4.9001,-4.9001,-4.9001,-4.9001,-4.8832,-4.8714,-4.8714,-4.8054,-4.753,-4.7327,-4.6819,-4.6194,-4.5449,-4.5399,-4.5162,-4.4632,-4.4615,-4.4615,-4.4615,-4.4615,-4.4615,-4.4615,-4.4615,-4.4615,0.0,0.0,0.0,0.0,0.0,0.0,0.0,0.0,0.0,0.0,0.0,0.0,0.0,0.0,0.0,0.0,0.0,0.0,0.0,0.0,0.0,0.0,-5.3185,-5.3185,-5.3185,-5.2937,-5.2684,-5.2576,-5.2042,-5.1719,-5.1831,-5.212,-5.2208,-5.1985,-5.3193,-5.3773,-5.3339,-5.3626,-5.4336,-5.555,-5.5568,-5.5729,-5.6112,-5.748,-5.7694,-5.6825,-5.7765,-5.8202,-5.8202,-5.8202,-5.7877,-5.7241,-5.6929,-5.6653,-5.6317,-5.5338,-5.4903,-5.4736,0.0,0.0,0.0,0.0,-5.1185,-5.115,-5.071,-5.0557,-5.049,-5.0067,-4.9932,-4.9932,-4.9932,-4.9932,-4.9932,-4.9932,-4.9932,-4.9932,-4.9932,-4.9932,-4.9847,-4.9526,-4.9458,-4.9373,-4.9069,-4.9001,-4.9001,-4.9001,-4.9001,0.0,-4.9001,-4.9001,-4.9001,-4.9001,-4.9001,-4.9001,-4.9001,-4.8646,-4.8227,-4.7922,-4.753,-4.6972,-4.6227,-4.5889,0.0,0.0,0.0,-4.4615,-4.4615,-4.4615,0.0,0.0,0.0,-4.4615,-4.4615,-4.4615,0.0,0.0,-4.4615,-4.4615,0.0,0.0,0.0,0.0,0.0,0.0,0.0,0.0,0.0,0.0,0.0,0.0,0.0,0.0,0.0,0.0,-5.3185,-5.3185,-5.3185,-5.2712,-5.2559,-5.3143,-5.2173,-5.2196,-5.4074,-5.3387,-5.3312,-5.4521,-5.4838,-5.499,-5.4997,-5.5616,0.0,0.0,0.0,-5.7555,-5.8301,-5.8494,-5.853,-5.8472,-5.8648,-5.8712,-5.8712,-5.8712,-5.8972,-5.9411,-5.8759,-5.9114,-5.9998,-5.7896,-5.6945,-5.6552,-5.435,-5.3061,-5.2367,-5.1708,-5.1438,-5.1471,-5.1369,0.0,0.0,-5.1251,-5.1185,-5.1185,-5.1185,-5.1185,-5.1185,-5.1185,-5.1185,-5.1185,-5.1185,-5.1185,-5.1048,-5.0371,-5.0219,-5.0033,-4.939,-4.9255,-4.9221,-4.9137,-4.912,-4.9103,-4.9018,-4.9001,-4.9001,-4.9001,-4.9001,-4.9001,-4.9001,-4.9001,-4.8748,-4.8075,-4.8007,0.0,-4.6989,-4.6329,-4.5889,-4.572,-4.4993,-4.4615,-4.4615,-4.4615,-4.4615,-4.4615,-4.4615,-4.4615,-4.4615,-4.4615,-4.4615,-4.4615,-4.4615,-4.4615,0.0,0.0,0.0,0.0,0.0,0.0,0.0,0.0,0.0,0.0,0.0,0.0,0.0,0.0,0.0,-5.3185,-5.3185,-5.3185,-5.3185,-5.3631,-5.3774,-5.3259,-5.3526,-5.3704,-5.3541,-5.4987,-5.5571,-5.4679,-5.6317,-5.737,-5.7431,-5.7558,-5.8272,-5.9661,-5.9138,-5.8925,-5.9105,-6.0306,-6.0633,-6.0078,-6.1331,0.0,-6.1912,-6.1912,-6.1321,-6.0269,-6.0132,-5.9506,-5.8588,-5.8141,-5.718,-5.5834,-5.4155,-5.3399,-5.3264,-5.3112,-5.3061,-5.2959,-5.2317,-5.2097,-5.1995,-5.1371,-5.1185,-5.1185,-5.1185,-5.1185,0.0,-5.1185,-5.1185,-5.1185,-5.1185,-5.1185,-5.1151,-5.1031,-5.0997,-5.0963,-5.0828,-5.0762,-5.0608,-4.9999,-4.9881,-4.9695,-4.9103,-4.9001,-4.9001,-4.9001,-4.9001,-4.9001,-4.9001,-4.9001,-4.8951,-4.8798,-4.8798,-4.8494,-4.7767,-4.7581,-4.6989,-4.5788,-4.4993,-4.4615,-4.4615,-4.4615,-4.4615,-4.4615,-4.4615,-4.4615,-4.4615,-4.4615,-4.4615,-4.4615,-4.4615,-4.4615,0.0,0.0,0.0,0.0,0.0,0.0,0.0,0.0,0.0,0.0,0.0,-5.3185,-5.3185,0.0,-5.3185,-5.3185,-5.3185,-5.3185,-5.3185,-5.3904,-5.4252,-5.3849,-5.4509,-5.5005,-5.5039,-5.6109,-5.6661,-5.6346,-5.774,-5.8446,-5.8119,-5.882,-5.9623,-6.0424,-6.0442,-6.0624,-6.1043,-6.183,-6.2032,-6.1662,-6.2434,-6.278,-6.278,-6.278,-6.2391,-6.1644,-6.1644,-6.1224,-6.0413,-5.9251,-5.8041,-5.6751,-5.48,-5.3822,-5.3501,-5.3501,-5.3501,-5.345,-5.3044,-5.2909,-5.2841,-5.2486,-5.2367,-5.2367,-5.2367,-5.2367,-5.2367,-5.2367,-5.2367,-5.2367,-5.2367,-5.2367,-5.2266,-5.186,-5.1758,-5.1657,-5.1302,-5.1185,-5.1099,-5.0727,-5.0659,-5.0422,-4.9678,-4.9543,-4.9424,-4.9069,-4.9001,-4.9001,-4.9001,-4.9001,-4.9001,-4.9001,-4.9001,-4.8849,-4.8494,-4.8091,-4.7263,-4.5805,-4.5348,-4.4976,-4.4632,-4.4615,-4.4615,-4.4615,-4.4615,-4.4615,-4.4615,-4.4615,-4.4615,-4.4615,-4.4615,-4.4615,0.0,0.0,0.0,0.0,0.0,0.0,0.0,-5.3185,-5.3185,-5.3185,-5.3185,-5.3185,-5.3185,-5.3185,-5.3185,-5.3185,-5.3185,-5.324,-5.3427,-5.4124,-5.4693,-5.4858,-5.5445,-5.6088,-5.6748,-5.695,-5.7373,-5.818,-5.8817,-5.9079,-5.8797,-5.9968,-6.0724,-6.0936,-6.1503,-6.2144,-6.278,-6.278,-6.278,-6.278,-6.278,-6.278,-6.278,-6.278,-6.278,-6.278,-6.278,-6.278,-6.265,-6.0593,-5.9195,-5.8136,-5.6055,-5.4635,-5.3704,-5.3551,-5.3501,-5.3501,-5.3501,-5.3501,-5.3501,-5.3501,-5.3501,-5.3501,-5.3501,-5.3501,-5.3501,-5.3501,-5.3501,-5.3501,-5.3501,-5.3501,-5.3348,-5.2689,-5.2536,-5.2384,-5.1792,-5.1657,-5.1591,-5.1454,-5.1388,-5.1183,-5.0439,-5.0185,-4.9847,-4.912,-4.9001,-4.9001,-4.9001,-4.9001,-4.9001,-4.9001,-4.9001,-4.9001,-4.9001,-4.8342,-4.7382,-4.621,-4.5991,-4.5585,-4.4852,-4.479,-4.475,-4.4615,-4.4615,-4.4615,-4.4615,-4.4615,-4.4615,-4.4615,-4.4615,-4.4615,-5.0618,-5.1977,-5.3185,-5.3185,-5.3185,-5.3185,0.0,-5.3185,-5.3185,-5.3185,-5.3185,-5.3185,-5.3185,-5.3185,-5.3185,-5.3185,-5.3185,-5.3463,-5.4179,-5.495,-5.5721,-5.6455,-5.662,-5.6712,-5.6804,-5.7446,-5.8198,-5.9001,-5.9148,-5.9784,-6.1129,-6.1386,-6.1808,-6.2515,-6.2627,-6.2713,-6.278,-6.278,-6.278,-6.278,-6.278,-6.278,-6.278,-6.278,-6.278,-6.278,-6.278,-6.278,-6.2712,-6.1752,-6.0494,-5.9074,-5.8037,-5.6319,-5.4397,-5.3737,-5.3501,-5.3501,-5.3501,-5.3501,-5.3501,-5.3501,-5.3501,-5.3501,-5.3501,-5.3501,-5.3501,-5.3501,-5.3501,-5.3501,-5.3501,-5.3501,-5.3484,-5.3399,-5.3365,-5.3348,-5.3264,-5.3247,-5.3044,-5.2317,-5.2181,-5.1944,-5.1217,-5.0541,-4.9847,-4.912,-4.9001,-4.9001,-4.9001,-4.9001,-4.9001,-4.9001,-4.9001,-4.9001,-4.9001,-4.8342,-4.7821,-4.7652,-4.7039,-4.6346,-4.5618,-4.5585,-4.5263,-4.4615,-4.4615,-4.4615,-4.4615,-4.4615,-4.4615,-4.4615,-4.4615,-4.4615,-5.1151,-5.2325,-5.3185,-5.3185,-5.3185,-5.3185,-5.3185,-5.3185,-5.3185,-5.3185,-5.3185,-5.3185,-5.3185,-5.3185,-5.3185,-5.3185,-5.3592,-5.4014,-5.4344,-5.55,-5.6418,-5.6767,-5.7207,-5.7501,-5.7501,-5.8235,-5.8859,-5.9166,-6.007,-6.0896,-6.1557,-6.2034,-6.2456,-6.278,-6.278,-6.278,-6.278,-6.278,-6.278,-6.278,-6.278,-6.278,-6.278,-6.278,-6.278,-6.278,-6.278,-6.278,-6.2705,-6.1436,-6.0505,-5.9743,-5.7977,-5.6728,-5.5733,-5.4566,-5.3873,-5.3501,-5.3501,-5.3501,-5.3501,-5.3501,-5.3501,-5.3501,-5.3501,-5.3501,-5.3501,-5.3501,-5.3501,-5.3501,-5.3501,-5.3501,-5.3501,-5.3501,-5.3501,-5.3501,-5.3501,-5.3501,-5.3399,-5.3061,-5.301,-5.2756,-5.1978,-5.1589,-5.098,-4.9813,-4.9272,-4.9001,-4.9001,-4.9001,-4.9001,-4.9001,-4.9001,-4.9001,-4.9001,-4.8731,-4.8376,-4.7922,-4.7631,-4.7107,-4.6363,-4.6346,-4.5991,-4.5246,-4.5229,-4.501,-4.4615,-4.4615,-4.4615,-4.4615,-4.4615,-4.4615,-5.1353,-5.2417,-5.3185,-5.3185,-5.3185,-5.3185,-5.3185,-5.3185,-5.3185,-5.3185,-5.3185,-5.3185,-5.3185,-5.3185,-5.3185,-5.3185,-5.3885,-5.4473,-5.4693,-5.5941,-5.6895,-5.7097,-5.7648,-5.7997,-5.7997,-5.8731,-5.9276,-5.9496,-6.0823,-6.1686,-6.1924,-6.2493,-6.278,-6.278,-6.278,-6.278,-6.278,-6.278,-6.278,-6.278,-6.278,-6.278,-6.278,-6.278,-6.278,-6.2798,-6.2567,-6.2471,-6.235,-6.0713,-6.0023,-5.9843,-5.7877,-5.6985,-5.6664,-5.5598,-5.46,-5.3771,-5.3568,-5.3501,-5.3501,-5.3501,-5.3501,-5.3501,-5.3501,-5.3501,-5.3501,-5.3501,-5.3501,-5.3501,-5.3501,-5.3501,-5.3501,-5.3501,-5.3501,-5.3501,-5.3501,-5.3501,-5.3501,-5.3501,-5.3501,-5.3315,-5.2739,-5.2452,-5.1877,-5.0591,-4.9779,-4.9238,-4.9035,-4.9001,-4.9001,-4.9001,-4.9001,-4.9001,-4.9001,-4.9001,-4.8781,-4.8257,-4.8193,-4.7885,-4.7124,-4.7107,-4.6769,-4.6024,-4.6007,-4.5635,-4.4919,-4.4919,-4.4818,-4.4615,-4.4615,-4.4615,-5.082,-5.1995,-5.3185,-5.3185,-5.3185,-5.3185,-5.3185,-5.3185,-5.3185,-5.3185,-5.3185,-5.3185,-5.3185,-5.3185,-5.3185,-5.3185,-5.3885,-5.4675,-5.5445,-5.6271,-5.7097,-5.7868,-5.7997,-5.7997,-5.7997,-5.8731,-5.9515,-6.0309,-6.1135,-6.1942,-6.2707,-6.2805,-6.278,-6.278,-6.278,-6.278,-6.278,-6.278,-6.278,-6.278,-6.278,-6.278,-6.278,-6.278,-6.278,-6.2755,-6.1969,-6.1632,-6.1502,-5.9829,-5.9144,-5.9044,-5.821,-5.7425,-5.6799,-5.6748,-5.5801,-5.4448,-5.3754,-5.3501,-5.3501,-5.3501,-5.3501,-5.3501,-5.3501,-5.3501,-5.3501,-5.3501,-5.3501,-5.3501,-5.3501,-5.3501,-5.3501,-5.3501,-5.3501,-5.3501,-5.3501,-5.3501,-5.3501,-5.3501,-5.3501,-5.3501,-5.3467,-5.2824,-5.2046,-5.1302,-5.0541,-4.9796,-4.9086,-4.9001,-4.9001,-4.9001,-4.9001,-4.9001,-4.9001,-4.9001,-4.8984,-4.8968,-4.8968,-4.8646,-4.7889,-4.7855,-4.753,-4.6769,-4.6752,-4.6397,-4.5669,-4.5669,-4.5297,-4.4615,-4.4615,-4.4615,-5.0655,-5.1573,-5.2527,-5.3078,-5.3185,-5.3185,-5.3185,-5.3185,-5.3185,-5.3185,-5.3185,-5.3185,-5.3185,-5.3185,-5.3185,-5.3185,-5.4326,-5.528,-5.5556,-5.6748,-5.7703,-5.796,-5.7997,-5.7997,-5.7997,-5.9208,-6.0126,-6.0382,-6.1649,-6.2511,-6.2805,-6.278,-6.278,-6.278,-6.278,-6.278,-6.278,-6.278,-6.278,-6.278,-6.278,-6.278,-6.278,-6.278,-6.278,-6.2755,-6.1951,-6.1586,-6.1474,-5.9797,-5.9111,-5.9027,-5.8227,-5.7746,-5.7459,-5.6985,-5.619,-5.5226,-5.4482,-5.3907,-5.3501,-5.3501,-5.3501,-5.3501,-5.3501,-5.3501,-5.3501,-5.3501,-5.3501,-5.3501,-5.3501,-5.3501,-5.3501,-5.3501,-5.3501,-5.3501,-5.3501,-5.3501,-5.3501,-5.3501,-5.3501,-5.3501,-5.3501,-5.3281,-5.2672,-5.1371,-5.0168,-4.9272,-4.9035,-4.9001,-4.9001,-4.9001,-4.9001,-4.9001,-4.9001,-4.9001,-4.9001,-4.9001,-4.9001,-4.89,-4.8646,-4.8646,-4.8291,-4.7547,-4.753,-4.7175,-4.643,-4.643,-4.6295,-4.6041,-4.6041,-4.6041,-5.0582,-5.1389,-5.2179,-5.3004,-5.3185,-5.3185,-5.3185,-5.3185,-5.3185,-5.3185,-5.3185,-5.3185,-5.3185,-5.3185,-5.3185,-5.3185,-5.4546,-5.5614,-5.5614,-5.6987,-5.7997,-5.7997,-5.7997,-5.7997,-5.7997,-5.9465,-6.0401,-6.0401,-6.1906,-6.278,-6.278,-6.278,-6.278,-6.278,-6.278,-6.278,-6.278,-6.278,-6.278,-6.278,-6.278,-6.278,-6.278,-6.278,-6.2636,-6.2324,-6.152,-6.0979,-6.0605,-5.9245,-5.8686,-5.8633,-5.8101,-5.7881,-5.7831,-5.7357,-5.6562,-5.5598,-5.4854,-5.411,-5.3501,-5.3501,-5.3501,-5.3501,-5.3501,-5.3501,-5.3501,-5.3501,-5.3501,-5.3501,-5.3501,-5.3501,-5.3501,-5.3501,-5.3501,-5.3501,-5.3501,-5.3501,-5.3501,-5.3501,-5.3501,-5.3501,-5.3501,-5.3264,-5.2739,-5.1758,-5.0338,-4.9306,-4.9035,-4.9001,-4.9001,-4.9001,-4.9001,-4.9001,-4.9001,-4.9001,-4.9001,-4.9001,-4.9001,-4.9001,-4.9001,-4.9001,-4.8781,-4.8308,-4.8308,-4.7936,-4.7192,-4.7192,-4.7056,-4.6786,-4.6786,-4.6786,-5.0563,-5.1353,-5.2142,-5.3004,-5.3185,-5.3185,-5.3185,-5.3185,-5.3185,-5.3185,-5.3185,-5.3185,-5.3185,-5.3185,-5.3185,-5.3185,-5.4528,-5.5559,-5.5574,-5.695,-5.7941,-5.7997,-5.7997,-5.7997,-5.7997,-5.9428,-6.0364,-6.0401,-6.1906,-6.278,-6.278,-6.278,-6.278,-6.278,-6.278,-6.278,-6.278,-6.278,-6.278,-6.278,-6.278,-6.278,-6.278,-6.278,-6.2376,-6.1632,-6.079,-5.996,-5.9111,-5.8281,-5.7954,-5.7881,-5.7881,-5.7881,-5.7881,-5.7881,-5.6968,-5.5615,-5.4905,-5.4143,-5.3501,-5.3501,-5.3501,-5.3501,-5.3501,-5.3501,-5.3501,-5.3501,-5.3501,-5.3501,-5.3501,-5.3501,-5.3501,-5.3501,-5.3501,-5.3501,-5.3501,-5.3501,-5.3501,-5.3501,-5.3501,-5.3501,-5.3501,-5.2875,-5.235,-5.2317,-5.1082,-4.9881,-4.9154,-4.9018,-4.9001,-4.9001,-4.9001,-4.9001,-4.9001,-4.9001,-4.9001,-4.9001,-4.9001,-4.9001,-4.9001,-4.9001,-4.9001,-4.9001,-4.9001,-4.8663,-4.7939,-4.7939,-4.7614,-4.6904,-4.6904,-4.6904,-5.0417,-5.0949,-5.1444,-5.2837,-5.3185,-5.3185,-5.3185,-5.3185,-5.3185,-5.3185,-5.3185,-5.3185,-5.3185,-5.3185,-5.3185,-5.3185,-5.4051,-5.4913,-5.5522,-5.6473,-5.7336,-5.7923,-5.7997,-5.7997,-5.7997,-5.8914,-5.9758,-6.0346,-6.1906,-6.278,-6.278,-6.278,-6.278,-6.278,-6.278,-6.278,-6.278,-6.278,-6.278,-6.278,-6.278,-6.278,-6.278,-6.278,-6.2686,-6.2446,-6.1632,-6.082,-5.9991,-5.9162,-5.8441,-5.7881,-5.7881,-5.7881,-5.7881,-5.7881,-5.6968,-5.5683,-5.5497,-5.4583,-5.3501,-5.3501,-5.3501,-5.3501,-5.3501,-5.3501,-5.3501,-5.3501,-5.3501,-5.3501,-5.3501,-5.3501,-5.3501,-5.3501,-5.3501,-5.3501,-5.3501,-5.3501,-5.3501,-5.3501,-5.3501,-5.3501,-5.3501,-5.3331,-5.2993,-5.2384,-5.1522,-5.0659,-4.9915,-4.934,-4.9001,-4.9001,-4.9001,-4.9001,-4.9001,-4.9001,-4.9001,-4.9001,-4.9001,-4.9001,-4.9001,-4.9001,-4.9001,-4.9001,-4.9001,-4.8917,-4.8731,-4.8731,-4.8629,-4.8443,-4.8443,-4.8443,-5.0343,-5.0802,-5.1187,-5.2803,-5.3185,-5.3185,-5.3185,-5.3185,-5.3185,-5.3185,-5.3185,-5.3185,-5.3185,-5.3185,-5.3185,0.0,0.0,0.0,-5.5504,-5.629,-5.7097,0.0,-5.7997,-5.7997,-5.7997,-5.8731,-5.9515,-6.0346,-6.1557,-6.2438,-6.2762,-6.278,-6.278,-6.278,-6.278,-6.278,-6.278,-6.278,-6.278,-6.278,-6.278,-6.278,-6.278,-6.278,-6.261,-6.2245,-6.1815,-6.1142,-6.0353,-5.9864,-5.9394,-5.8994,-5.8994,-5.8772,-5.8441,-5.8441,-5.7272,-5.5681,-5.5681,-5.4735,-5.3501,-5.3501,-5.3501,-5.3501,-5.3501,-5.3501,-5.3501,-5.3501,-5.3501,-5.3501,-5.3501,-5.3501,-5.3501,-5.3501,-5.3501,-5.3501,-5.3501,-5.3501,-5.3501,-5.3501,-5.3501,-5.3501,-5.3501,-5.3501,-5.3348,-5.2892,-5.1911,-5.1065,-5.0642,-4.9661,-4.9001,-4.9001,-4.9001,-4.9001,-4.9001,-4.9001,-4.9001,-4.9001,-4.9001,-4.9001,-4.9001,-4.9001,-4.9001,-4.9001,-4.9001,-4.9001,-4.9001,-4.9001,-4.9001,-4.9001,-4.9001,-4.9001,-5.0215,-5.0729,-5.1169,-5.2674,-5.3112,-5.3185,-5.3185,-5.3185,-5.3185,-5.3185,-5.3185,-5.3185,-5.3185,-5.3185,-5.3185,-5.3185,0.0,-5.4528,-5.5317,-5.6124,-5.695,-5.774,-5.7923,-5.7997,-5.7997,-5.8639,-5.9368,-6.0181,-6.0988,-6.1832,-6.2743,-6.278,-6.278,-6.278,-6.278,-6.278,-6.278,-6.278,-6.278,-6.278,-6.278,-6.278,-6.278,-6.278,-6.242,-6.1742,-6.1742,-6.1304,-6.0567,-6.0567,-6.0506,-6.0384,-6.0273,-5.9768,-5.9077,-5.889,-5.7484,-5.57,-5.5598,-5.4668,-5.3501,-5.3501,-5.3501,-5.3501,-5.3501,-5.3501,-5.3501,-5.3501,-5.3501,-5.3501,-5.3501,-5.3501,-5.3501,-5.3501,-5.3501,-5.3501,-5.3501,-5.3501,-5.3501,-5.3501,-5.3501,-5.3501,-5.3501,-5.3501,-5.3501,-5.3501,-5.2198,-5.1185,-5.1185,-4.9915,-4.9001,-4.9001,-4.9001,-4.9001,-4.9001,-4.9001,-4.9001,-4.9001,-4.9001,-4.9001,-4.9001,-4.9001,-4.9001,-4.9001,-4.9001,-4.9001,-4.9001,-4.9001,-4.9001,-4.9001,-4.9001,-4.9001,-4.9517,-5.0288,-5.1041,-5.1977,-5.2711,-5.3185,-5.3185,-5.3185,0.0,-5.3185,-5.3185,-5.3185,-5.3185,-5.3185,-5.3185,-5.3185,-5.3314,-5.3702,-5.4491,-5.5299,-5.6106,0.0,-5.7593,-5.7997,-5.7997,-5.8125,-5.8547,-5.9349,-6.0162,-6.1263,-6.2707,-6.278,-6.278,-6.278,-6.278,-6.278,-6.278,-6.278,-6.278,-6.278,-6.278,-6.278,-6.278,-6.278,-6.2712,-6.2592,-6.2592,-6.2148,-6.1389,-6.1389,-6.0997,-6.0322,-5.9606,-5.9245,-5.8941,-5.7669,-5.6568,-5.5632,-5.5006,-5.4211,-5.3501,-5.3501,-5.3501,-5.3501,-5.3501,-5.3501,-5.3501,-5.3501,-5.3501,-5.3501,-5.3501,-5.3501,-5.3501,-5.3501,-5.3501,-5.3501,-5.3501,-5.3501,-5.3501,-5.3501,-5.3501,-5.3501,-5.3501,-5.3501,-5.3501,-5.3501,-5.2198,-5.1185,-5.1185,-4.9915,-4.9001,-4.9001,-4.9001,-4.9001,-4.9001,-4.9001,-4.9001,-4.9001,-4.9001,-4.9001,-4.9001,-4.9001,-4.9001,-4.9001,-4.9001,-4.9001,-4.9001,-4.9001,-4.9001,-4.9001,-4.9001,-4.9001,-4.9372,-5.0178,-5.0986,-5.1793,-5.2601,-5.3185,-5.3185,0.0,0.0,0.0,-5.3185,-5.3185,-5.3185,-5.3185,0.0,-5.3185,-5.3185,-5.3482,-5.4289,-5.5078,-5.5886,-5.6712,-5.7519,-5.7997,-5.7997,-5.7997,-5.8327,-5.9129,-5.9551,-6.0493,-6.2089,-6.2585,-6.278,-6.278,-6.278,-6.278,-6.278,-6.278,-6.278,-6.278,-6.278,-6.278,-6.278,-6.278,-6.278,-6.278,-6.278,-6.2567,-6.2227,-6.2227,-6.176,-6.0967,-6.0544,-5.9861,-5.8957,-5.7827,-5.6695,-5.5598,-5.4854,-5.411,-5.3501,-5.3501,-5.3501,-5.3501,-5.3501,-5.3501,-5.3501,-5.3501,-5.3501,-5.3501,-5.3501,-5.3501,-5.3501,-5.3501,-5.3501,-5.3501,-5.3501,-5.3501,-5.3501,-5.3501,-5.3501,-5.3501,-5.3501,-5.3501,-5.3501,-5.3501,-5.2198,-5.1185,-5.1185,-4.9915,-4.9001,-4.9001,-4.9001,-4.9001,-4.9001,-4.9001,-4.9001,-4.9001,-4.9001,-4.9001,-4.9001,-4.9001,-4.9001,-4.9001,-4.9001,-4.9001,-4.9001,-4.9001,-4.9001,-4.9001,-4.9001,-4.9001,-4.9132,-5.005,-5.0949,-5.1573,-5.2491,-5.3185,-5.3185,-5.3185,0.0,-5.3185,-5.3185,-5.3185,-5.3185,0.0,-5.3185,0.0,-5.3185,-5.3427,-5.4051,-5.4968,-5.5831,0.0,-5.7409,0.0,-5.7997,-5.7997,-5.8253,-5.8914,-5.9093,-5.9905,-6.1502,-6.2365,-6.278,-6.278,-6.278,-6.278,-6.278,-6.278,-6.278,-6.278,-6.278,-6.278,-6.278,-6.278,-6.278,-6.278,-6.278,-6.2686,-6.2541,-6.2541,-6.2049,-6.1332,-6.1142,-6.0163,-5.8748,-5.7822,-5.6645,-5.5361,-5.4617,-5.3974,-5.3501,-5.3501,-5.3501,-5.3501,-5.3501,-5.3501,-5.3501,-5.3501,-5.3501,-5.3501,-5.3501,-5.3501,-5.3501,-5.3501,-5.3501,-5.3501,-5.3501,-5.3501,-5.3501,-5.3501,-5.3501,-5.3501,-5.3501,-5.3501,-5.3501,-5.3501,-5.2198,-5.1185,-5.1185,-4.9915,-4.9001,-4.9001,-4.9001,-4.9001,-4.9001,-4.9001,-4.9001,-4.9001,-4.9001,-4.9001,-4.9001,-4.9001,-4.9001,-4.9001,-4.9001,-4.9001,-4.9001,-4.9001,-4.9001,-4.9001,-4.9001,-4.9001,-4.8398,-4.9591,-5.082,-5.0894,-5.2068,-5.3185,-5.3185,0.0,-5.3185,-5.3185,-5.3185,-5.3185,-5.3185,-5.3185,-5.3185,-5.3185,0.0,-5.3222,-5.3316,-5.4638,-5.5633,-5.5684,0.0,0.0,-5.7997,-5.7997,-5.8033,-5.8107,-5.8804,-5.9905,-6.1502,-6.2365,-6.278,-6.278,-6.278,-6.278,-6.278,-6.278,-6.278,-6.278,-6.278,-6.278,-6.278,-6.278,-6.278,-6.278,-6.278,-6.2394,-6.1715,-6.1715,-6.1247,-6.0427,-5.9654,-5.8828,-5.792,-5.6439,-5.5397,-5.46,-5.3856,-5.3568,-5.3501,-5.3501,-5.3501,-5.3501,-5.3501,-5.3501,-5.3501,-5.3501,-5.3501,-5.3501,-5.3501,-5.3501,-5.3501,-5.3501,-5.3501,-5.3501,-5.3501,-5.3501,-5.3501,-5.3501,-5.3501,-5.3501,-5.3501,-5.3501,-5.3501,-5.3501,-5.2198,-5.1185,-5.1185,-4.9915,-4.9001,-4.9001,-4.9001,-4.9001,-4.9001,-4.9001,-4.9001,-4.9001,-4.9001,-4.9001,-4.9001,-4.9001,-4.9001,-4.9001,-4.9001,-4.9001,-4.9001,-4.9001,-4.9001,-4.9001,-4.9001,-4.9001,-4.8306,-4.915,-5.0141,-5.0674,-5.1646,-5.2601,-5.3096,0.0,-5.3185,-5.3185,-5.3185,-5.3185,-5.3185,-5.3185,-5.3185,0.0,0.0,0.0,-5.3185,-5.4179,-5.506,-5.5559,-5.6583,0.0,0.0,-5.7997,-5.7997,-5.7997,-5.8767,-5.9478,-6.0126,-6.1392,-6.231,-6.2762,-6.278,-6.278,-6.278,-6.278,-6.278,-6.278,-6.278,-6.278,-6.278,-6.278,-6.278,-6.278,-6.278,-6.2636,-6.2298,-6.1815,-6.0873,-5.9646,-5.8796,-5.7686,-5.6508,-5.5432,-5.4854,-5.4482,-5.3754,-5.3501,-5.3501,-5.3501,-5.3501,-5.3501,-5.3501,-5.3501,-5.3501,-5.3501,-5.3501,-5.3501,-5.3501,-5.3501,-5.3501,-5.3501,-5.3501,-5.3501,-5.3501,-5.3501,-5.3501,-5.3501,-5.3501,-5.3501,-5.3501,-5.3501,-5.3501,-5.3501,-5.2198,-5.1185,-5.1185,-4.9915,-4.9001,-4.9001,-4.9001,-4.9001,-4.9001,-4.9001,-4.9001,-4.9001,-4.9001,-4.9001,-4.9001,-4.9001,-4.9001,-4.9001,-4.9001,-4.9001,-4.9001,-4.9001,-4.9001,-4.9001,-4.9001,-4.8688,-4.8306,-4.8893,-4.9664,-5.0288,-5.1224,-5.2142,0.0,0.0,-5.3185,-5.3185,-5.3185,-5.3185,-5.3185,-5.3185,-5.3185,0.0,0.0,-5.3185,-5.3185,-5.3904,-5.4693,0.0,0.0,-5.7134,-5.7923,-5.7997,-5.7997,-5.7997,-5.8529,-5.8946,-5.9184,-6.0272,-6.1263,-6.2071,-6.2328,-6.2456,-6.2456,-6.2695,-6.278,-6.278,-6.278,-6.278,-6.278,-6.2567,-6.2456,-6.2438,-6.2199,-6.1965,-6.1682,-6.1136,-6.0092,-5.8832,-5.798,-5.6862,-5.5604,-5.4872,-5.4448,-5.4194,-5.3687,-5.3501,-5.3501,-5.3501,-5.3501,-5.3501,-5.3501,-5.3501,-5.3501,-5.3501,-5.3501,-5.3501,-5.3501,-5.3501,-5.3501,-5.3501,-5.3501,-5.3501,-5.3501,-5.3501,-5.3501,-5.3501,-5.3501,-5.3501,-5.3501,-5.3501,-5.3501,-5.3501,-5.2198,-5.1185,-5.1185,-4.9915,-4.9001,-4.9001,-4.9001,-4.9001,-4.9001,-4.9001,-4.9001,-4.9001,-4.9001,-4.9001,-4.9001,-4.9001,-4.9001,-4.9001,-4.9001,-4.9001,-4.9001,-4.9001,-4.9001,-4.9001,-4.9001,-4.837,-4.8306,-4.893,-4.961,-4.961,-5.0822,-5.1995,0.0,0.0,-5.3185,-5.3185,-5.3185,-5.3185,-5.3185,-5.3185,-5.3185,-5.3185,0.0,0.0,-5.3185,-5.3904,-5.4693,0.0,0.0,-5.7134,-5.7923,-5.7997,-5.7997,-5.7997,-5.7997,-5.8364,-5.9148,-5.9221,-5.9588,-6.0401,-6.119,-6.1612,-6.1612,-6.2401,-6.278,-6.278,-6.278,-6.278,-6.2762,-6.1979,-6.1612,-6.1557,-6.0768,-5.9953,-5.9231,-5.9231,-5.8747,-5.7917,-5.7115,-5.6344,-5.5608,-5.4873,-5.4143,-5.3518,-5.3501,-5.3501,-5.3501,-5.3501,-5.3501,-5.3501,-5.3501,-5.3501,-5.3501,-5.3501,-5.3501,-5.3501,-5.3501,-5.3501,-5.3501,-5.3501,-5.3501,-5.3501,-5.3501,-5.3501,-5.3501,-5.3501,-5.3501,-5.3501,-5.3501,-5.3501,-5.3501,-5.3501,-5.2198,-5.1185,-5.1185,-4.9915,-4.9001,-4.9001,-4.9001,-4.9001,-4.9001,-4.9001,-4.9001,-4.9001,-4.9001,-4.9001,-4.9001,-4.9001,-4.9001,-4.9001,-4.9001,-4.9001,-4.9001,-4.9001,-4.9001,-4.9001,-4.9001,-4.8015,-4.8306,-4.8508,-4.8838,-4.9445,-5.0398,-5.1316,-5.1867,0.0,0.0,-5.3185,-5.3185,-5.3185,-5.3185,-5.3185,-5.3185,-5.3185,0.0,0.0,0.0,0.0,0.0,-5.5427,-5.6804,-5.7721,-5.7978,-5.7997,-5.7997,-5.7997,-5.7997,-5.8107,-5.8364,-5.8382,-5.9006,-6.0364,-6.0658,-6.0786,-6.0786,-6.1043,-6.1172,-6.1172,-6.1172,-6.1172,-6.1153,-6.0896,-6.0786,-6.0768,-6.0511,-6.0262,-5.9978,-5.9444,-5.8754,-5.7997,-5.7194,-5.6392,-5.566,-5.5439,-5.489,-5.4232,-5.4232,-5.3913,-5.3501,-5.3501,-5.3501,-5.3501,-5.3501,-5.3501,-5.3501,-5.3501,-5.3501,-5.3501,-5.3501,-5.3501,-5.3501,-5.3501,-5.3501,-5.3501,-5.3501,-5.3501,-5.3501,-5.3501,-5.3501,-5.3501,-5.3501,-5.3501,-5.3501,-5.3501,-5.2198,-5.1185,-5.1185,-4.9915,-4.9001,-4.9001,-4.9001,-4.9001,-4.9001,-4.9001,-4.9001,-4.9001,-4.9001,-4.9001,-4.9001,-4.9001,-4.9001,-4.9001,-4.9001,-4.9001,-4.9001,-4.9001,-4.9001,-4.897,-4.7688,-4.6781,0.0,-4.8306,-4.8434,-4.8967,-4.9958,-5.093,0.0,0.0,0.0,0.0,0.0,0.0,0.0,0.0,0.0,0.0,0.0,0.0,0.0,0.0,0.0,-5.5409,-5.6748,-5.7666,-5.796,-5.7997,-5.7997,-5.7997,-5.7997,-5.7997,-5.7997,-5.7997,-5.8455,-5.9465,-5.9795,-5.996,-5.996,-6.0254,-6.0401,-6.0401,-6.0401,-6.0401,-6.0401,-6.0107,-5.996,-5.9942,-5.963,-5.9483,0.0,-5.8949,-5.8489,-5.7985,-5.72,-5.6577,-5.6104,-5.5808,-5.5408,-5.4982,-5.4713,-5.4296,-5.3848,-5.3584,-5.3501,-5.3501,-5.3501,-5.3501,-5.3501,-5.3501,-5.3501,-5.3501,-5.3501,-5.3501,-5.3501,-5.3501,-5.3501,-5.3501,-5.3501,-5.3501,-5.3501,-5.3501,-5.3501,-5.3501,-5.3501,-5.3501,-5.3399,-5.3095,-5.1995,-5.1083,-5.0828,-4.9746,-4.9001,-4.9001,-4.9001,-4.9001,-4.9001,-4.9001,-4.9001,-4.9001,-4.9001,-4.9001,-4.9001,-4.9001,-4.9001,-4.9001,-4.9001,-4.9001,-4.9001,-4.9001,-4.8829,-4.845,-4.6918,-4.6012,0.0,-4.8306,-4.8306,-4.8306,-4.9517,-5.071,-5.071,0.0,0.0,0.0,0.0,0.0,0.0,0.0,0.0,0.0,0.0,0.0,0.0,-5.324,0.0,0.0,-5.6308,-5.7134,-5.7923,-5.7997,-5.7997,-5.7997,-5.7997,-5.7997,-5.7997,-5.7997,-5.7997,-5.7997,-5.8731,-5.9093,-5.9093,-5.9869,-6.0236,-6.0236,-6.0236,-6.0236,-6.0199,-5.9441,-5.9093,-5.9056,-5.8327,-5.7997,-5.7997,-5.7997,-5.7997,-5.7932,-5.7234,-5.6989,-5.6894,-5.6159,-5.5819,-5.5695,-5.4939,-5.4651,-5.4482,-5.375,-5.3501,-5.3501,-5.3501,-5.3501,-5.3501,-5.3501,-5.3501,-5.3501,-5.3501,-5.3501,-5.3501,-5.3501,-5.3501,-5.3501,-5.3501,-5.3501,-5.3501,-5.3501,-5.3501,-5.3501,-5.3501,-5.3501,-5.323,-5.2418,-5.1674,-5.0947,-5.0185,-4.9458,-4.9001,-4.9001,-4.9001,-4.9001,-4.9001,-4.9001,-4.9001,-4.9001,-4.9001,-4.9001,-4.9001,-4.9001,-4.9001,-4.9001,-4.9001,-4.9001,-4.9001,-4.894,-4.8433,-4.7589,-4.6574,-4.5634,-4.8306,0.0,-4.8306,-4.8306,-4.9095,-4.9886,0.0,0.0,0.0,0.0,0.0,0.0,0.0,0.0,0.0,0.0,0.0,-5.3185,-5.3185,-5.3739,0.0,-5.5464,-5.6308,-5.7134,-5.7923,-5.7997,-5.7997,-5.7997,-5.7997,-5.7997,-5.7997,-5.7997,-5.7997,-5.7997,-5.818,-5.829,-5.829,-5.8474,-5.8565,-5.8565,-5.8565,-5.8565,-5.8565,-5.8364,-5.829,-5.8272,-5.807,-5.7997,-5.7997,-5.7997,-5.7997,-5.7973,-5.7797,-5.775,-5.7726,-5.7546,-5.7098,-5.6492,-5.5724,-5.5072,-5.4482,-5.375,-5.3501,-5.3501,-5.3501,-5.3501,-5.3501,-5.3501,-5.3501,-5.3501,-5.3501,-5.3501,-5.3501,-5.3501,-5.3501,-5.3501,-5.3501,-5.3501,-5.3501,-5.3501,-5.3501,-5.3501,-5.3501,-5.3501,-5.323,-5.2418,-5.1674,-5.0947,-5.0185,-4.9458,-4.9001,-4.9001,-4.9001,-4.9001,-4.9001,-4.9001,-4.9001,-4.9001,-4.9001,-4.9001,-4.9001,-4.9001,-4.9001,-4.9001,-4.9001,-4.9001,-4.9001,-4.8289,-4.7836,-4.7556,-4.5885,-4.502,-4.8306,-4.8306,-4.8306,-4.8306,-4.8948,-4.961,-4.961,0.0,0.0,0.0,0.0,0.0,0.0,0.0,0.0,0.0,-5.2417,0.0,0.0,0.0,-5.4289,-5.5467,-5.5978,-5.6712,-5.7886,-5.7997,-5.7997,-5.7997,-5.7997,-5.7997,-5.7997,-5.7997,-5.7997,-5.7997,-5.7997,-5.7997,-5.7997,-5.7997,-5.7997,-5.7997,-5.7997,-5.7997,-5.7997,-5.7997,-5.7997,-5.7997,-5.7997,-5.7997,-5.7973,-5.7637,-5.7516,-5.7449,-5.708,-5.6935,-5.6935,-5.6935,-5.6685,-5.6232,-5.5466,-5.4713,-5.4027,-5.3651,-5.3501,-5.3501,-5.3501,-5.3501,-5.3501,-5.3501,-5.3501,-5.3501,-5.3501,-5.3501,-5.3501,-5.3501,-5.3501,-5.3501,-5.3501,-5.3501,-5.3501,-5.3501,-5.3501,-5.3501,-5.3501,-5.3196,-5.2689,-5.1911,-5.1183,-5.0439,-4.9678,-4.9255,-4.9001,-4.9001,-4.9001,-4.9001,-4.9001,-4.9001,-4.9001,-4.9001,-4.9001,-4.9001,-4.9001,-4.9001,-4.9001,-4.9001,-4.9001,-4.8798,-4.837,-4.7836,-4.7172,-4.6311,-4.5264,-4.4548,-4.8306,-4.8306,-4.8306,-4.8306,-4.8857,-4.9408,0.0,0.0,0.0,0.0,0.0,0.0,0.0,0.0,0.0,0.0,0.0,0.0,-5.3096,-5.3185,-5.3757,-5.5225,-5.5519,-5.618,-5.7666,-5.7923,-5.7997,-5.7997,-5.7997,-5.7997,-5.7997,-5.7997,-5.7997,-5.7997,-5.7997,-5.7997,-5.7997,-5.7997,-5.7997,-5.7997,-5.7997,-5.7997,-5.7997,-5.7997,-5.7997,-5.7997,-5.7997,-5.7997,-5.795,-5.7327,-5.6989,-5.6817,-5.6159,-5.5808,-5.5706,-5.5706,-5.5706,-5.5592,-5.4848,-5.4106,-5.3501,-5.3501,-5.3501,-5.3501,-5.3501,-5.3501,-5.3501,-5.3501,-5.3501,-5.3501,-5.3501,-5.3501,-5.3501,-5.3501,-5.3501,-5.3501,-5.3501,-5.3501,-5.3501,-5.3501,-5.3501,-5.3501,-5.3501,-5.2841,-5.2046,-5.1319,-5.0574,-4.9813,-4.9086,-4.9001,-4.9001,-4.9001,-4.9001,-4.9001,-4.9001,-4.9001,-4.9001,-4.9001,-4.9001,-4.9001,-4.9001,-4.9001,-4.9001,-4.9001,-4.9001,-4.8545,-4.7589,-4.7456,-4.6504,-4.4812,-4.4624,-4.4105,-4.8306,-4.8306,-4.8306,-4.8306,-4.8398,-4.8508,0.0,0.0,0.0,0.0,0.0,0.0,0.0,-5.0802,-5.0802,0.0,0.0,-5.227,-5.3096,-5.3185,-5.3555,-5.4473,-5.5188,-5.5959,-5.6895,-5.7593,-5.7997,-5.7997,-5.7997,-5.7997,-5.7997,-5.7997,-5.7997,-5.7997,-5.7997,-5.7997,-5.7997,-5.7997,-5.7997,-5.7997,-5.7997,-5.7997,-5.7997,-5.7997,-5.7997,-5.7997,-5.7997,-5.7997,-5.7997,-5.7886,-5.7449,-5.6887,-5.6765,-5.6313,-5.5706,-5.5706,-5.5706,-5.5592,-5.4848,-5.4106,-5.3501,-5.3501,-5.3501,-5.3501,-5.3501,-5.3501,-5.3501,-5.3501,-5.3501,-5.3501,-5.3501,-5.3501,-5.3501,-5.3501,-5.3501,-5.3501,-5.3501,-5.3501,-5.3501,-5.3501,-5.3501,-5.3501,-5.3501,-5.2841,-5.2046,-5.1319,-5.0574,-4.9813,-4.9086,-4.9001,-4.9001,-4.9001,-4.9001,-4.9001,-4.9001,-4.9001,-4.9001,-4.9001,-4.9001,-4.9001,-4.9001,-4.9001,-4.9001,-4.9001,-4.9001,-4.8545,-4.7589,-4.6815,-4.5869,-4.4774,-4.3927,-4.3448,-4.8306,-4.8306,-4.8306,-4.8306,-4.8306,0.0,0.0,0.0,0.0,0.0,0.0,0.0,0.0,0.0,-4.9756,-5.0655,-5.1114,-5.1775,-5.3041,-5.3185,-5.35,-5.4308,-5.5097,-5.5904,-5.673,-5.7538,-5.7997,-5.7997,-5.7997,-5.7997,-5.7997,-5.7997,-5.7997,-5.7997,-5.7997,-5.7997,-5.7997,-5.7997,-5.7997,-5.7997,-5.7997,-5.7997,-5.7997,-5.7997,-5.7997,-5.7997,-5.7997,-5.7997,-5.7973,-5.7565,-5.7209,-5.6861,-5.6438,-5.578,-5.5072,-5.4668,-5.4499,-5.4468,-5.4139,-5.3766,-5.3501,-5.3501,-5.3501,-5.3501,-5.3501,-5.3501,-5.3501,-5.3501,-5.3501,-5.3501,-5.3501,-5.3501,-5.3501,-5.3501,-5.3501,-5.3501,-5.3501,-5.3501,-5.3501,-5.3501,-5.3501,-5.3365,-5.2942,-5.2215,-5.1471,-5.0727,-4.9982,-4.9373,-4.9035,-4.9001,-4.9001,-4.9001,-4.9001,-4.9001,-4.9001,-4.9001,-4.9001,-4.9001,-4.9001,-4.9001,-4.9001,-4.9001,-4.9001,-4.9001,-4.9001,-4.8289,-4.685,-4.6419,-4.5436,-4.3966,-4.3512,-4.329,-4.8306,-4.8306,-4.8306,-4.8306,0.0,0.0,0.0,0.0,0.0,0.0,0.0,0.0,0.0,-4.8471,0.0,-5.0563,-5.0967,-5.1573,-5.3004,-5.3185,-5.3424,-5.4051,-5.4821,-5.5629,-5.6436,-5.7244,-5.7795,-5.7997,-5.7997,-5.7997,-5.7997,-5.7997,-5.7997,-5.7997,-5.7997,-5.7997,-5.7997,-5.7997,-5.7997,-5.7997,-5.7997,-5.7997,-5.7997,-5.7997,-5.7997,-5.7997,-5.7997,-5.7997,-5.7973,-5.7401,-5.7058,-5.6843,-5.6214,-5.5425,-5.4544,-5.3979,-5.3634,-5.3501,-5.3501,-5.3501,-5.3501,-5.3501,-5.3501,-5.3501,-5.3501,-5.3501,-5.3501,-5.3501,-5.3501,-5.3501,-5.3501,-5.3501,-5.3501,-5.3501,-5.3501,-5.3501,-5.3501,-5.3501,-5.3501,-5.3501,-5.3501,-5.3247,-5.2435,-5.1708,-5.0963,-5.0202,-4.9475,-4.9001,-4.9001,-4.9001,-4.9001,-4.9001,-4.9001,-4.9001,-4.9001,-4.9001,-4.9001,-4.9001,-4.9001,-4.9001,-4.9001,-4.9001,-4.9001,-4.9001,-4.9001,-4.808,-4.6208,-4.6208,-4.5217,-4.329,-4.329,-4.329,-4.8306,-4.8306,-4.8306,-4.8306,0.0,0.0,0.0,0.0,0.0,0.0,0.0,0.0,0.0,-4.8948,-4.9794,-5.0655,-5.1426,-5.2215,-5.3096,-5.3185,-5.3203,-5.3277,-5.4014,-5.4803,-5.5592,-5.6418,-5.7207,-5.7941,-5.7997,-5.7997,-5.7997,-5.7997,-5.7997,-5.7997,-5.7997,-5.7997,-5.7997,-5.7997,-5.7997,-5.7997,-5.7997,-5.7997,-5.7997,-5.7997,-5.7997,-5.7997,-5.7997,-5.7997,-5.7997,-5.7932,-5.7516,-5.6887,-5.6835,-5.59,-5.4589,-5.4544,-5.4074,-5.3501,-5.3501,-5.3501,-5.3501,-5.3501,-5.3501,-5.3501,-5.3501,-5.3501,-5.3501,-5.3501,-5.3501,-5.3501,-5.3501,-5.3501,-5.3501,-5.3501,-5.3501,-5.3501,-5.3501,-5.3501,-5.3501,-5.3501,-5.3501,-5.3247,-5.2435,-5.1708,-5.0963,-5.0202,-4.9475,-4.9001,-4.9001,-4.9001,-4.9001,-4.9001,-4.9001,-4.9001,-4.9001,-4.9001,-4.9001,-4.9001,-4.9001,-4.9001,-4.9001,-4.9001,-4.9001,-4.9001,-4.9001,-4.808,-4.6208,-4.6208,-4.5217,-4.329,-4.329,-4.329,-4.8306,-4.8306,-4.8306,-4.8306,0.0,0.0,0.0,0.0,0.0,0.0,-4.8306,0.0,0.0,0.0,-4.9867,-5.0674,-5.1481,-5.227,-5.3096,-5.3185,-5.3185,-5.3185,-5.3922,-5.4528,-5.4821,-5.5574,-5.6381,-5.7189,-5.7262,-5.7464,-5.796,-5.7997,-5.7997,-5.7997,-5.7997,-5.7997,-5.7997,-5.7997,-5.7997,-5.7997,-5.7997,-5.7997,-5.7997,-5.7997,-5.7997,-5.7997,-5.7997,-5.7997,-5.7997,-5.7997,-5.7839,-5.754,-5.7065,-5.6232,-5.5232,-5.4757,-5.4121,-5.3501,-5.3501,-5.3501,-5.3501,-5.3501,-5.3501,-5.3501,-5.3501,-5.3501,-5.3501,-5.3501,-5.3501,-5.3501,-5.3501,-5.3501,-5.3501,-5.3501,-5.3501,-5.3501,-5.3501,-5.3501,-5.3501,-5.3501,-5.3095,-5.252,-5.1758,-5.1014,-5.027,-4.9526,-4.9187,-4.9001,-4.9001,-4.9001,-4.9001,-4.9001,-4.9001,-4.9001,-4.9001,-4.9001,-4.9001,-4.9001,-4.9001,-4.9001,-4.9001,-4.9001,-4.9001,-4.9001,-4.9001,-4.808,-4.6208,-4.6208,-4.5217,-4.329,-4.329,-4.329,-4.8306,-4.8306,-4.8306,0.0,0.0,0.0,0.0,0.0,0.0,0.0,-4.8306,0.0,-4.8306,0.0,0.0,-5.071,-5.1683,-5.2564,-5.3112,-5.3185,-5.3185,-5.3185,-5.3702,-5.4124,-5.4381,-5.4895,-5.5537,-5.6363,-5.6418,-5.6657,-5.7207,-5.7244,-5.7244,-5.7244,-5.7483,-5.7611,-5.7611,-5.7868,-5.7997,-5.7997,-5.7997,-5.7997,-5.7997,-5.7997,-5.7997,-5.7997,-5.7997,-5.7997,-5.7997,-5.7997,-5.7997,-5.795,-5.7449,-5.6773,-5.5994,-5.522,-5.4499,-5.3799,-5.3584,-5.3501,-5.3501,-5.3501,-5.3501,-5.3501,-5.3501,-5.3501,-5.3501,-5.3501,-5.3501,-5.3501,-5.3501,-5.3501,-5.3501,-5.3501,-5.3501,-5.3501,-5.3501,-5.3501,-5.3433,-5.3179,-5.2689,-5.1995,-5.1031,-5.0422,-4.9847,-4.912,-4.9001,-4.9001,-4.9001,-4.9001,-4.9001,-4.9001,-4.9001,-4.9001,-4.9001,-4.9001,-4.9001,-4.9001,-4.9001,-4.9001,-4.9001,-4.9001,-4.9001,-4.9001,-4.9001,-4.808,-4.6208,-4.6208,-4.5217,-4.329,-4.329,-4.329,-4.8306,-4.8306,-4.8306,0.0,0.0,0.0,0.0,0.0,0.0,0.0,0.0,-4.8306,-4.8306,-4.9682,-5.0802,-5.0802,-5.216,-5.3185,-5.3185,-5.3185,-5.3185,-5.3185,-5.3185,-5.3518,-5.4308,-5.4399,-5.4711,-5.5519,-5.5574,-5.5574,-5.5614,-5.5614,-5.5614,-5.5614,-5.6363,-5.6804,-5.6804,-5.7574,-5.7978,-5.7978,-5.7978,-5.7978,-5.7997,-5.7997,-5.7997,-5.7997,-5.7997,-5.7997,-5.7997,-5.7997,-5.7997,-5.7997,-5.7997,-5.754,-5.6791,-5.5976,-5.5232,-5.4482,-5.375,-5.3501,-5.3501,-5.3501,-5.3501,-5.3501,-5.3501,-5.3501,-5.3501,-5.3501,-5.3501,-5.3501,-5.3501,-5.3501,-5.3501,-5.3501,-5.3501,-5.3501,-5.3501,-5.3501,-5.3264,-5.2452,-5.2283,-5.1809,-5.0338,-5.0084,-4.983,-4.912,-4.9001,-4.9001,-4.9001,-4.9001,-4.9001,-4.9001,-4.9001,-4.9001,-4.9001,-4.9001,-4.9001,-4.9001,-4.9001,-4.9001,-4.9001,-4.9001,-4.9001,-4.9001,-4.9001,-4.8047,-4.6173,-4.6173,-4.518,-4.329,-4.329,-4.329,-4.8306,-4.8306,0.0,0.0,0.0,0.0,0.0,0.0,0.0,0.0,-4.8306,-4.8306,-4.8306,-4.9682,-5.0802,-5.0802,-5.216,-5.3185,-5.3185,-5.3185,-5.3185,-5.3185,-5.3185,-5.3277,-5.3537,-5.3573,-5.3904,-5.4693,-5.4748,-5.4987,-5.5578,-5.5614,-5.5614,-5.5614,-5.5831,-5.5959,-5.5959,-5.618,-5.6308,-5.6308,-5.6308,-5.6895,-5.7997,-5.7997,-5.7997,-5.7997,-5.7997,-5.7997,-5.7997,-5.7997,-5.7684,-5.7284,-5.7815,-5.6902,-5.5309,-5.561,-5.4909,-5.3799,-5.3584,-5.3501,-5.3501,-5.3501,-5.3501,-5.3501,-5.3501,-5.3501,-5.3501,-5.3501,-5.3501,-5.3501,-5.3501,-5.3501,-5.3501,-5.3501,-5.3501,-5.3501,-5.3501,-5.3061,-5.2587,-5.235,-5.1454,-5.0608,-5.0168,-4.9661,-4.9255,-4.9035,-4.9001,-4.9001,-4.9001,-4.9001,-4.9001,-4.9001,-4.9001,-4.9001,-4.9001,-4.9001,-4.9001,-4.9001,-4.9001,-4.9001,-4.9001,-4.9001,-4.8688,-4.8015,-4.8015,-4.7104,-4.5227,-4.5227,-4.4571,-4.329,-4.329,-4.329,-4.8306,0.0,0.0,0.0,0.0,0.0,0.0,0.0,0.0,0.0,-4.8306,-4.8306,-4.8306,-4.9682,-5.0802,-5.0802,-5.216,-5.3185,-5.3185,-5.3185,-5.3185,-5.3185,-5.3185,-5.3185,-5.3185,-5.3185,-5.3387,-5.3904,-5.3922,-5.4124,-5.462,-5.4638,-5.4638,-5.4638,-5.495,-5.5115,-5.5115,-5.5427,-5.5614,-5.5614,-5.5614,-5.6106,-5.706,-5.7373,-5.7703,-5.7997,-5.7997,-5.7997,-5.7973,-5.766,-5.7284,-5.6912,-5.7047,-5.6268,-5.5072,-5.5203,-5.4713,-5.3881,-5.3618,-5.3501,-5.3501,-5.3501,-5.3501,-5.3501,-5.3501,-5.3501,-5.3501,-5.3501,-5.3501,-5.3501,-5.3501,-5.3264,-5.3112,-5.3433,-5.3264,-5.3027,-5.3027,-5.2418,-5.1792,-5.1471,-5.071,-4.9999,-4.9712,-4.9289,-4.9001,-4.9001,-4.9001,-4.9001,-4.9001,-4.9001,-4.9001,-4.9001,-4.9001,-4.9001,-4.9001,-4.9001,-4.9001,-4.9001,-4.9001,-4.9001,-4.9001,-4.8639,-4.8193,-4.7622,-4.7223,-4.6295,-4.4812,-4.4812,-4.4297,-4.329,-4.329,-4.329,0.0,0.0,0.0,0.0,0.0,0.0,-4.8306,-4.8306,-4.8306,-4.8306,0.0,-4.8306,-4.8306,-4.9682,-5.0802,-5.0802,-5.216,-5.3185,-5.3185,-5.3185,-5.3185,-5.3185,-5.3185,-5.3185,-5.3185,-5.3185,-5.3185,-5.3185,-5.3185,-5.3185,-5.3185,-5.3185,-5.3185,-5.3185,-5.3922,-5.4289,-5.4289,-5.5023,-5.5372,-5.5372,-5.5372,-5.5409,-5.5522,-5.6326,-5.7097,-5.7776,-5.7776,-5.7813,-5.784,-5.7168,-5.6891,-5.6817,-5.6186,-5.5762,-5.5524,-5.4922,-5.462,-5.4405,-5.3717,-5.3501,-5.3501,-5.3501,-5.3501,-5.3501,-5.3501,-5.3501,-5.3484,-5.3416,-5.3399,-5.3382,-5.3315,-5.2756,-5.2384,-5.3129,-5.2739,-5.2198,-5.2198,-5.1623,-5.0913,-5.0219,-5.0033,-4.9779,-4.912,-4.9001,-4.9001,-4.9001,-4.9001,-4.9001,-4.9001,-4.9001,-4.9001,-4.9001,-4.9001,-4.9001,-4.9001,-4.9001,-4.9001,-4.9001,-4.9001,-4.9001,-4.9001,-4.808,-4.7556,-4.7473,-4.6539,-4.5597,-4.4662,-4.4662,-4.4182,-4.329,-4.329,-4.329,0.0,0.0,0.0,0.0,0.0,0.0,0.0,-4.8306,-4.8306,-4.8306,-4.8306,-4.8306,-4.8306,-4.9682,-5.0802,-5.0802,-5.216,-5.3185,-5.3185,-5.3185,-5.3185,-5.3185,-5.3185,-5.3185,-5.3185,-5.3185,-5.3185,-5.3185,-5.3185,-5.3185,-5.3185,-5.3185,-5.3185,-5.3185,-5.3369,-5.3463,-5.3463,-5.3628,-5.372,-5.372,-5.372,-5.4051,-5.4693,-5.5482,-5.5941,-5.6128,-5.6128,-5.6473,-5.7038,-5.6882,-5.6837,-5.6938,-5.7358,-5.6403,-5.4909,-5.532,-5.4743,-5.3717,-5.3568,-5.3501,-5.3501,-5.3501,-5.3501,-5.3501,-5.3501,-5.3501,-5.3365,-5.2739,-5.2553,-5.2418,-5.186,-5.1589,-5.1488,-5.1641,-5.1572,-5.1454,-5.1454,-5.0862,-5.0287,-5.0118,-4.9627,-4.9187,-4.9035,-4.9001,-4.9001,-4.9001,-4.9001,-4.9001,-4.9001,-4.9001,-4.9001,-4.9001,-4.9001,-4.9001,-4.9001,-4.9001,-4.9001,-4.9001,-4.9001,-4.9001,-4.9001,-4.808,-4.7239,-4.6539,-4.5561,-4.4608,-4.363,-4.363,-4.3512,-4.329,-4.329,-4.329,0.0,0.0,0.0,0.0,0.0,0.0,0.0,-4.8306,-4.8306,-4.8306,-4.8306,-4.8306,-4.8306,-4.9352,-5.0343,-5.0747,-5.183,-5.2766,-5.3148,-5.3185,-5.3185,-5.3185,-5.3185,-5.3185,-5.3185,-5.3185,-5.3185,-5.3185,-5.3185,-5.3185,-5.3185,-5.3185,-5.3185,-5.3185,-5.3185,-5.3185,-5.3185,-5.3185,-5.3185,-5.3185,-5.3185,-5.3427,-5.3867,-5.506,-5.5614,-5.5614,-5.5614,-5.5831,-5.6194,-5.5842,-5.5728,-5.575,-5.5739,-5.5018,-5.3999,-5.4057,-5.3606,-5.2853,-5.2516,-5.2418,-5.2418,-5.2418,-5.2418,-5.2418,-5.2418,-5.2418,-5.2317,-5.1894,-5.1775,-5.1691,-5.1319,-5.0947,-5.0676,-5.0676,-5.0676,-5.0676,-5.0676,-5.0084,-4.956,-4.956,-4.9255,-4.9001,-4.9001,-4.9001,-4.9001,-4.9001,-4.9001,-4.9001,-4.9001,-4.9001,-4.9001,-4.9001,-4.9001,-4.9001,-4.9001,-4.9001,-4.9001,-4.9001,-4.9001,-4.8798,-4.837,-4.7423,-4.6712,-4.6208,-4.4818,-4.381,-4.329,-4.329,-4.329,-4.329,-4.329,-4.329,0.0,0.0,0.0,0.0,0.0,0.0,0.0,-4.8306,-4.8306,-4.8306,-4.8306,-4.8306,-4.8306,-4.9003,-4.9831,-5.0472,-5.1261,-5.2068,-5.2894,-5.3004,-5.3038,-5.3167,-5.3185,-5.3185,-5.3185,-5.3185,-5.3185,-5.3185,-5.3185,-5.3185,-5.3185,-5.3185,-5.3185,-5.3185,-5.3185,-5.3185,-5.3185,-5.3185,-5.3185,-5.3185,-5.3185,-5.3185,-5.324,-5.4583,-5.5188,-5.5188,-5.5188,-5.5244,-5.535,-5.4729,-5.4544,-5.4622,-5.3953,-5.362,-5.3432,-5.2866,-5.2596,-5.2379,-5.1626,-5.1376,-5.1361,-5.1232,-5.1185,-5.1185,-5.1185,-5.1185,-5.1183,-5.1065,-5.1014,-5.0997,-5.0862,-5.0371,-4.9898,-4.9898,-4.9898,-4.9898,-4.9898,-4.9424,-4.9001,-4.9001,-4.9001,-4.9001,-4.9001,-4.9001,-4.9001,-4.9001,-4.9001,-4.9001,-4.9001,-4.9001,-4.9001,-4.9001,-4.9001,-4.9001,-4.9001,-4.9001,-4.9001,-4.9001,-4.8861,-4.8401,-4.7622,-4.6539,-4.5977,-4.5977,-4.4228,-4.329,-4.329,-4.329,-4.329,-4.329,-4.329,-4.329,0.0,0.0,0.0,0.0,0.0,0.0,0.0,0.0,-4.8306,0.0,-4.8306,-4.8306,-4.8306,-4.9003,-4.9647,-4.9739,-5.0435,-5.1242,-5.205,-5.216,-5.2417,-5.3112,-5.3185,-5.3185,-5.3185,-5.3185,-5.3185,-5.3185,-5.3185,-5.3185,-5.3185,-5.3185,-5.3185,-5.3185,-5.3185,-5.3185,-5.3185,-5.3185,-5.3185,-5.3185,-5.3185,-5.3185,-5.3203,-5.3427,-5.3537,-5.3537,-5.3537,-5.3922,-5.4546,-5.4459,-5.4822,-5.5422,-5.5336,-5.4887,-5.4313,-5.4238,-5.3762,-5.3074,-5.2409,-5.2158,-5.2054,-5.1407,-5.1185,-5.1185,-5.1185,-5.1185,-5.1082,-5.0422,-5.0236,-5.0101,-4.9458,-4.9221,-4.9154,-4.9154,-4.9154,-4.9154,-4.9154,-4.9069,-4.9001,-4.9001,-4.9001,-4.9001,-4.9001,-4.9001,-4.9001,-4.9001,-4.9001,-4.9001,-4.9001,-4.9001,-4.9001,-4.9001,-4.9001,-4.9001,-4.9001,-4.9001,-4.9001,-4.9001,-4.8225,-4.7721,-4.7622,-4.5921,-4.4983,-4.4983,-4.3888,-4.329,-4.329,-4.329,-4.329,-4.329,-4.329,-4.329,0.0,0.0,0.0,0.0,0.0,0.0,0.0,0.0,-4.8306,-4.8306,-4.8306,-4.8306,-4.8306,-4.8618,-4.9022,-4.9519,-4.9904,-5.0398,-5.1206,-5.1334,-5.1463,-5.1811,-5.2252,-5.2527,-5.2527,-5.2949,-5.3185,-5.3185,-5.3185,-5.3185,-5.3185,-5.3185,-5.3185,-5.3185,-5.3185,-5.3185,-5.3185,-5.3185,-5.3185,-5.3185,-5.3185,-5.3185,-5.3185,-5.3185,-5.3185,-5.3185,-5.3185,-5.3387,-5.3739,-5.3739,-5.394,-5.4252,-5.4252,-5.406,-5.3667,-5.2884,-5.2375,-5.1926,-5.0838,-5.0441,-5.041,-5.0091,-4.9982,-4.9982,-4.9982,-4.9982,-4.9915,-4.9576,-4.9475,-4.9407,-4.9086,-4.9001,-4.9001,-4.9001,-4.9001,-4.9001,-4.9001,-4.9001,-4.9001,-4.9001,-4.9001,-4.9001,-4.9001,-4.9001,-4.9001,-4.9001,-4.9001,-4.9001,-4.9001,-4.9001,-4.9001,-4.9001,-4.9001,-4.9001,-4.9001,-4.9001,-4.8798,-4.8257,-4.7836,-4.7138,-4.6064,-4.5227,-4.4548,-4.3966,-4.3512,-4.329,-4.329,-4.329,-4.329,-4.329,-4.329,-4.329,0.0,0.0,0.0,0.0,0.0,0.0,0.0,0.0,-4.8306,0.0,-4.8306,-4.8306,-4.8306,-4.8306,-4.8508,-4.915,-4.928,-4.9554,-5.038,-5.049,-5.0563,-5.0784,-5.1334,-5.1701,-5.1701,-5.2234,-5.2601,-5.2601,-5.2784,-5.2913,-5.2913,-5.3096,-5.3185,-5.3185,-5.3185,-5.3185,-5.3185,-5.3185,-5.3185,-5.3185,-5.3185,-5.3185,-5.3185,-5.3185,-5.3185,-5.3185,-5.3185,-5.3185,-5.3185,-5.3185,-5.3185,-5.3185,-5.298,-5.2915,-5.2769,-5.1562,-5.1086,-5.0929,-4.9681,-4.9256,-4.9243,-4.9063,-4.9001,-4.9001,-4.9001,-4.9001,-4.9001,-4.9001,-4.9001,-4.9001,-4.9001,-4.9001,-4.9001,-4.9001,-4.9001,-4.9001,-4.9001,-4.9001,-4.9001,-4.9001,-4.9001,-4.9001,-4.9001,-4.9001,-4.9001,-4.9001,-4.9001,-4.9001,-4.9001,-4.9001,-4.9001,-4.9001,-4.9001,-4.9001,-4.9001,-4.9001,-4.8608,-4.7655,-4.7373,-4.6504,-4.4887,-4.4548,-4.4082,-4.3329,-4.329,-4.329,-4.329,-4.329,-4.329,-4.329,-4.329,-4.329,0.0,0.0,0.0,0.0,0.0,0.0,0.0,0.0,-4.8306,-4.8306,-4.8306,-4.8306,-4.8306,-4.8306,-4.8324,-4.8361,-4.8379,-4.8673,-4.9555,-4.9665,-4.9959,-5.071,-5.0839,-5.0857,-5.0857,-5.0912,-5.093,-5.093,-5.1628,-5.205,-5.205,-5.2803,-5.3185,-5.3185,-5.3185,-5.3185,-5.3185,-5.3185,-5.3185,-5.3185,-5.3185,-5.3185,-5.3185,-5.3185,-5.3185,-5.3185,-5.3185,-5.3185,-5.3185,-5.3185,-5.3185,-5.3124,-5.2445,-5.2159,-5.2065,-5.1368,-5.1086,-5.0981,-5.0213,-4.9947,-4.985,-4.9212,-4.9001,-4.9001,-4.9001,-4.9001,-4.9001,-4.9001,-4.9001,-4.9001,-4.9001,-4.9001,-4.9001,-4.9001,-4.9001,-4.9001,-4.9001,-4.9001,-4.9001,-4.9001,-4.9001,-4.9001,-4.9001,-4.9001,-4.9001,-4.9001,-4.9001,-4.9001,-4.9001,-4.9001,-4.9001,-4.9001,-4.9001,-4.9001,-4.9001,-4.9001,-4.8608,-4.7655,-4.6765,-4.5834,-4.4849,-4.3888,-4.3369,-4.329,-4.329,-4.329,-4.329,-4.329,-4.329,-4.329,-4.329,-4.329,0.0,0.0,0.0,0.0,0.0,0.0,-4.8306,-4.8306,-4.8306,-4.8306,-4.8306,-4.8306,-4.8306,-4.8306,-4.8306,-4.8306,-4.8306,-4.8416,-4.8728,-4.8765,-4.8875,-4.9169,-4.9682,-5.0013,-5.0013,-5.049,-5.0802,-5.0802,-5.1077,-5.1224,-5.1224,-5.1499,-5.1665,-5.1665,-5.216,-5.2674,-5.3185,-5.3185,-5.3185,-5.3185,-5.3185,-5.3185,-5.3185,-5.3185,-5.3185,-5.3185,-5.3185,-5.3185,-5.3185,-5.3185,-5.3185,-5.3185,-5.2915,-5.2531,-5.2024,-5.1343,-5.0796,-5.0297,-4.9593,-4.9359,-4.9316,-4.9077,-4.9001,-4.9001,-4.9001,-4.9001,-4.9001,-4.9001,-4.9001,-4.9001,-4.9001,-4.9001,-4.9001,-4.9001,-4.9001,-4.9001,-4.9001,-4.9001,-4.9001,-4.9001,-4.9001,-4.9001,-4.9001,-4.9001,-4.9001,-4.9001,-4.9001,-4.9001,-4.9001,-4.9001,-4.9001,-4.9001,-4.9001,-4.9001,-4.9001,-4.8433,-4.7688,-4.6781,-4.5814,-4.4856,-4.3888,-4.3472,-4.329,-4.329,-4.329,-4.329,-4.329,-4.329,-4.329,-4.329,-4.329,-4.329,0.0,0.0,0.0,0.0,0.0,-4.8306,-4.8306,-4.8306,-4.8306,-4.8306,-4.8306,-4.8306,-4.8306,-4.8306,-4.8306,-4.8306,-4.8306,-4.8306,-4.8306,-4.8306,-4.8306,-4.8306,-4.8802,-4.915,-4.915,-4.9646,-4.9958,-4.9958,-5.0233,-5.038,-5.0362,-5.0637,-5.0802,-5.0802,-5.1316,-5.1848,-5.2399,-5.2674,-5.2803,-5.2803,-5.3057,-5.3185,-5.3185,-5.3185,-5.3185,-5.3185,-5.3185,-5.3185,-5.3185,-5.3185,-5.3185,-5.3185,-5.2937,-5.2531,-5.1976,-5.1086,-5.0417,-4.989,-4.9226,-4.9001,-4.9001,-4.9001,-4.9001,-4.9001,-4.9001,-4.9001,-4.9001,-4.9001,-4.9001,-4.9001,-4.9001,-4.9001,-4.9001,-4.9001,-4.9001,-4.9001,-4.9001,-4.9001,-4.9001,-4.9001,-4.9001,-4.9001,-4.9001,-4.9001,-4.9001,-4.9001,-4.9001,-4.9001,-4.9001,-4.9001,-4.9001,-4.9001,-4.9001,-4.9001,-4.9001,-4.8433,-4.7506,-4.6279,-4.5597,-4.4684,-4.3369,-4.329,-4.329,-4.329,-4.329,-4.329,-4.329,-4.329,-4.329,-4.329,-4.329,-4.329,0.0,0.0,0.0,0.0,0.0,0.0,-4.8306,-4.8306,-4.8306,-4.8306,-4.8306,-4.8306,-4.8306,-4.8306,-4.8306,-4.8306,-4.8306,-4.8306,-4.8306,-4.8306,-4.8306,-4.8306,-4.8306,-4.8306,-4.8306,-4.8306,-4.8306,-4.8306,-4.9077,-4.9537,-4.9462,-5.027,-5.0747,-5.0765,-5.0765,-5.0784,-5.0802,-5.1573,-5.1958,-5.1958,-5.2784,-5.3148,-5.3167,-5.3185,-5.3185,-5.3185,-5.3185,-5.3185,-5.3185,-5.3185,-5.3185,-5.3124,-5.2404,-5.2112,-5.1928,-5.0581,-5.0033,-4.989,-4.9273,-4.9032,-4.9001,-4.9001,-4.9001,-4.9001,-4.9001,-4.9001,-4.9001,-4.9001,-4.9001,-4.9001,-4.9001,-4.9001,-4.9001,-4.9001,-4.9001,-4.9001,-4.9001,-4.9001,-4.9001,-4.9001,-4.9001,-4.9001,-4.9001,-4.9001,-4.9001,-4.9001,-4.9001,-4.9001,-4.9001,-4.9001,-4.9001,-4.9001,-4.9001,-4.9001,-4.9001,-4.897,-4.8161,-4.6314,-4.6173,-4.529,-4.3369,-4.329,-4.329,-4.329,-4.329,-4.329,-4.329,-4.329,-4.329,-4.329,-4.329,-4.329,-4.8306,0.0,0.0,0.0,0.0,0.0,-4.8306,-4.8306,-4.8306,-4.8306,-4.8306,-4.8306,-4.8306,-4.8306,-4.8306,-4.8306,-4.8306,-4.8306,-4.8306,-4.8306,-4.8306,-4.8306,-4.8306,-4.8306,-4.8306,-4.8306,-4.8306,-4.8306,-4.8526,-4.8655,-4.8636,-4.8857,-4.9279,-4.9922,-4.9941,-5.0196,-5.0802,-5.1022,-5.1132,-5.1132,-5.194,-5.2325,-5.2344,-5.2931,-5.3185,-5.3185,-5.3185,-5.3185,-5.3185,-5.3185,-5.3185,-5.3185,-5.2977,-5.2576,-5.2047,-5.1667,-5.0858,-4.9976,-4.9809,-4.9419,-4.9001,-4.9001,-4.9001,-4.9001,-4.9001,-4.9001,-4.9001,-4.9001,-4.9001,-4.9001,-4.9001,-4.9001,-4.9001,-4.9001,-4.9001,-4.9001,-4.9001,-4.9001,-4.9001,-4.9001,-4.9001,-4.9001,-4.9001,-4.9001,-4.9001,-4.9001,-4.9001,-4.9001,-4.9001,-4.9001,-4.9001,-4.9001,-4.9001,-4.9001,-4.9001,-4.837,-4.7489,-4.6279,-4.5561,-4.4608,-4.3369,-4.329,-4.329,-4.329,-4.329,-4.329,-4.329,-4.329,-4.329,-4.329,-4.329,-4.329,0.0,0.0,0.0,0.0,0.0,0.0,-4.7718,-4.7791,-4.7902,-4.8233,-4.8306,-4.8306,-4.8306,-4.8306,-4.8306,-4.8306,-4.8306,-4.8306,-4.8306,-4.8306,-4.8306,-4.8306,-4.8306,-4.8306,-4.8306,-4.8306,-4.8306,-4.8306,-4.8306,-4.8306,-4.8306,-4.8306,-4.8526,-4.904,-4.9058,-4.9279,-4.9756,-5.0123,-5.0288,-5.0306,-5.1114,-5.1499,-5.1518,-5.2325,-5.2711,-5.2729,-5.3059,-5.3185,-5.3185,-5.3185,-5.3185,-5.3185,-5.3185,-5.2937,-5.249,-5.1904,-5.1146,-5.0362,-4.978,-4.9346,-4.9001,-4.9001,-4.9001,-4.9001,-4.9001,-4.9001,-4.9001,-4.9001,-4.9001,-4.9001,-4.9001,-4.9001,-4.9001,-4.9001,-4.9001,-4.9001,-4.9001,-4.9001,-4.9001,-4.9001,-4.9001,-4.9001,-4.9001,-4.9001,-4.9001,-4.9001,-4.9001,-4.9001,-4.9001,-4.9001,-4.9001,-4.9001,-4.9001,-4.9001,-4.9001,-4.8513,-4.7622,-4.6279,-4.5706,-4.4743,-4.3369,-4.329,-4.329,-4.329,-4.329,-4.329,-4.329,-4.329,-4.329,-4.329,-4.329,-4.329,0.0,0.0,0.0,-4.6966,-4.6434,0.0,-4.6801,-4.6966,-4.7168,-4.7902,-4.8031,-4.8031,-4.8031,-4.8031,-4.8031,-4.8031,-4.8122,-4.8214,-4.8306,-4.8306,-4.8306,-4.8306,-4.8306,-4.8306,-4.8306,-4.8306,-4.8306,-4.8306,-4.8306,-4.8306,-4.8306,-4.8306,-4.8306,-4.8306,-4.8306,-4.8306,-4.8306,-4.9058,-4.9463,-4.9482,-5.027,-5.0674,-5.0692,-5.1499,-5.1867,-5.1903,-5.2619,-5.2965,-5.3078,-5.3078,-5.3112,-5.3185,-5.3185,-5.3164,-5.2915,-5.1661,-5.1112,-5.0796,-4.9551,-4.9046,-4.9001,-4.9001,-4.9001,-4.9001,-4.9001,-4.9001,-4.9001,-4.9001,-4.9001,-4.9001,-4.9001,-4.9001,-4.9001,-4.9001,-4.9001,-4.9001,-4.9001,-4.9001,-4.9001,-4.9001,-4.9001,-4.9001,-4.9001,-4.9001,-4.9001,-4.9001,-4.9001,-4.9001,-4.9001,-4.9001,-4.9001,-4.9001,-4.9001,-4.9001,-4.9001,-4.9001,-4.8193,-4.6314,-4.6208,-4.5327,-4.3369,-4.329,-4.329,-4.329,-4.329,-4.329,-4.329,-4.329,-4.329,-4.329,-4.329,-4.329,-4.7333,-4.6764,-4.614,-4.614,-4.6012,0.0,-4.6104,-4.614,-4.6177,-4.6342,-4.6379,-4.6379,-4.6379,-4.6379,-4.6379,-4.6379,-4.6911,-4.7553,-4.8214,-4.8306,-4.8306,-4.8306,-4.8306,-4.8306,-4.8306,-4.8306,-4.8306,-4.8306,-4.8306,-4.8306,-4.8306,-4.8306,-4.8306,-4.8306,-4.8306,-4.8306,-4.8306,-4.8471,-4.8545,-4.8563,-4.9407,-4.9831,-4.9867,-5.0674,-5.1041,-5.1041,-5.1206,-5.1646,-5.2234,-5.2234,-5.2619,-5.3185,-5.3185,-5.2831,-5.2271,-5.2018,-5.1172,-5.0202,-4.9907,-4.9432,-4.9001,-4.9001,-4.9001,-4.9001,-4.9001,-4.9001,-4.9001,-4.9001,-4.9001,-4.9001,-4.9001,-4.9001,-4.9001,-4.9001,-4.9001,-4.9001,-4.9001,-4.9001,-4.9001,-4.9001,-4.9001,-4.9001,-4.9001,-4.9001,-4.9001,-4.9001,-4.9001,-4.9001,-4.9001,-4.9001,-4.9001,-4.9001,-4.9001,-4.9001,-4.9001,-4.9001,-4.8193,-4.6314,-4.6208,-4.5327,-4.3369,-4.329,-4.329,-4.329,-4.329,-4.329,-4.329,-4.329,-4.329,-4.329,-4.329,-4.329,-4.7204,-4.6507,-4.5792,-4.5406,-4.5002,0.0,0.0,-4.5296,-4.5424,-4.581,-4.5902,-4.5902,-4.5902,-4.5902,-4.5902,-4.5902,-4.625,-4.6654,-4.7058,-4.7792,-4.8306,-4.8306,-4.8306,-4.8306,-4.8306,-4.8306,-4.8306,-4.8306,-4.8306,-4.8306,-4.8306,-4.8306,-4.8306,-4.8306,-4.8306,-4.8306,-4.8306,-4.8306,-4.8306,-4.8324,-4.8746,-4.8948,-4.8967,-4.9811,-5.0196,-5.0215,-5.0637,-5.0842,-5.0881,-5.0881,-5.0947,-5.1158,-5.2223,-5.2445,-5.2024,-5.1361,-5.0626,-4.9947,-4.9622,-4.9286,-4.9001,-4.9001,-4.9001,-4.9001,-4.9001,-4.9001,-4.9001,-4.9001,-4.9001,-4.9001,-4.9001,-4.9001,-4.9001,-4.9001,-4.9001,-4.9001,-4.9001,-4.9001,-4.9001,-4.9001,-4.9001,-4.9001,-4.9001,-4.9001,-4.9001,-4.9001,-4.9001,-4.9001,-4.9001,-4.9001,-4.9001,-4.9001,-4.9001,-4.9001,-4.9001,-4.9001,-4.8193,-4.6314,-4.6208,-4.5327,-4.3369,-4.329,-4.329,-4.329,-4.329,-4.329,-4.329,-4.329,-4.329,-4.329,-4.329,-4.329,-4.7278,-4.6397,-4.5516,-4.4874,-4.4103,-4.3663,0.0,0.0,0.0,-4.5296,-4.5443,-4.5443,-4.5443,-4.5443,-4.5443,-4.5443,-4.5571,-4.5663,-4.5663,-4.6929,-4.7847,-4.7847,-4.7847,-4.7902,-4.8048,-4.8214,-4.8306,-4.8306,-4.8306,-4.8306,-4.8306,-4.8306,-4.8306,-4.8306,-4.8306,-4.8306,-4.8306,-4.8306,-4.8306,-4.8306,-4.8306,-4.8306,-4.8324,-4.9022,-4.9353,-4.939,-5.0031,-5.0018,-4.9577,-4.9577,-4.929,-4.9099,-5.0946,-5.1598,-5.1354,-5.0445,-4.9953,-4.9722,-4.9182,-4.9001,-4.9001,-4.9001,-4.9001,-4.9001,-4.9001,-4.9001,-4.9001,-4.9001,-4.9001,-4.9001,-4.9001,-4.9001,-4.9001,-4.9001,-4.9001,-4.9001,-4.9001,-4.9001,-4.9001,-4.9001,-4.9001,-4.9001,-4.9001,-4.9001,-4.9001,-4.9001,-4.9001,-4.9001,-4.9001,-4.9001,-4.9001,-4.9001,-4.9001,-4.9001,-4.9001,-4.8829,-4.8015,-4.6314,-4.6032,-4.5159,-4.3369,-4.329,-4.329,-4.329,-4.329,-4.329,-4.329,-4.329,-4.329,-4.329,-4.329,-4.329,-4.7113,-4.5993,-4.4801,-4.4709,-4.4103,-4.3533,-4.3608,0.0,-4.3644,-4.3736,0.0,-4.3772,-4.3772,0.0,0.0,-4.3772,-4.4378,-4.4838,-4.4838,-4.5608,-4.6177,-4.6177,-4.6177,-4.6452,-4.7168,-4.7865,-4.8306,-4.8306,-4.8306,-4.8306,-4.8306,-4.8306,-4.8306,-4.8306,-4.8306,-4.8306,-4.8306,-4.8306,-4.8306,-4.8306,-4.8306,-4.8306,-4.8306,-4.8398,-4.8453,-4.8453,-4.8545,-4.865,-4.8742,-4.8742,-4.8801,-4.8997,-4.9891,-4.9828,-4.9311,-4.9829,-4.9622,-4.9107,-4.9032,-4.9001,-4.9001,-4.9001,-4.9001,-4.9001,-4.9001,-4.9001,-4.9001,-4.9001,-4.9001,-4.9001,-4.9001,-4.9001,-4.9001,-4.9001,-4.9001,-4.9001,-4.9001,-4.9001,-4.9001,-4.9001,-4.9001,-4.9001,-4.9001,-4.9001,-4.9001,-4.9001,-4.9001,-4.9001,-4.9001,-4.9001,-4.9001,-4.9001,-4.9001,-4.9001,-4.9001,-4.8225,-4.7306,-4.6295,-4.5431,-4.4472,-4.3329,-4.329,-4.329,-4.329,-4.329,-4.329,-4.329,-4.329,-4.329,-4.329,-4.329,-4.329,-4.7223,-4.6617,-4.5975,-4.5516,-4.48,-4.4195,-4.4195,-4.3828,-4.3515,-4.3515,0.0,0.0,0.0,0.0,0.0,0.0,-4.3773,-4.3993,-4.3993,-4.4287,-4.4837,-4.5792,-4.5902,-4.603,-4.6379,-4.6709,-4.7113,-4.7571,-4.759,-4.781,-4.8288,-4.8306,-4.8306,-4.8306,-4.8306,-4.8306,-4.8306,-4.8306,-4.8306,-4.8306,-4.8306,-4.8306,-4.8306,-4.8306,-4.8306,-4.8306,-4.8306,-4.8158,-4.7868,-4.7478,-4.7169,-4.6982,-4.734,-4.783,-4.8256,-4.8169,-4.7979,-4.7716,-4.7716,-4.7716,-4.7716,-4.7716,-4.7716,-4.7716,-4.7716,-4.7716,-4.7716,-4.7716,-4.7716,-4.7716,-4.7716,-4.7716,-4.7834,-4.8274,-4.8376,-4.8494,-4.8917,-4.9001,-4.9001,-4.9001,-4.9001,-4.9001,-4.9001,-4.9001,-4.9001,-4.9001,-4.9001,-4.9001,-4.9001,-4.9001,-4.9001,-4.9001,-4.9001,-4.8798,-4.8225,-4.7836,-4.6968,-4.5488,-4.4457,-4.3732,-4.3329,-4.329,-4.329,-4.329,-4.329,-4.329,-4.329,-4.329,-4.329,-4.329,-4.329,-4.329,-4.759,-4.7278,-4.6947,-4.6379,-4.5626,-4.4984,-4.4746,-4.425,-4.3754,-4.3551,-4.3515,0.0,0.0,0.0,-4.3515,0.0,0.0,-4.3515,-4.3515,-4.3515,-4.3937,-4.5094,-4.5443,-4.5571,-4.5571,-4.5773,-4.614,-4.6727,-4.6984,-4.7351,-4.7938,-4.8196,-4.8306,-4.8306,-4.8306,-4.8306,-4.8306,-4.8306,-4.8306,-4.8306,-4.8306,-4.8306,-4.8306,-4.8306,-4.8306,-4.8306,-4.8306,-4.7957,-4.7342,-4.6664,-4.6021,-4.5485,-4.5426,-4.6021,-4.6918,-4.6833,-4.6786,-4.6786,-4.6786,-4.6786,-4.6786,-4.6786,-4.6786,-4.6786,-4.6786,-4.6786,-4.6786,-4.6786,-4.6786,-4.6786,-4.6786,-4.6786,-4.6989,-4.7703,-4.7889,-4.8091,-4.8849,-4.9001,-4.9001,-4.9001,-4.9001,-4.9001,-4.9001,-4.9001,-4.9001,-4.9001,-4.9001,-4.9001,-4.9001,-4.9001,-4.9001,-4.9001,-4.875,-4.8338,-4.7655,-4.7138,-4.6119,-4.4472,-4.3693,-4.329,-4.329,-4.329,-4.329,-4.329,-4.329,-4.329,-4.329,-4.329,-4.329,-4.329,-4.329,-4.329,-4.8269,-4.7681,-4.7094,-4.7076,-4.6471,-4.5663,-4.4892,-4.4673,-4.4452,-4.3644,-4.3515,-4.3515,-4.3515,-4.3515,0.0,0.0,0.0,0.0,0.0,-4.3515,-4.3533,-4.357,-4.4268,-4.4745,-4.4745,-4.5443,-4.5902,-4.5938,-4.6654,-4.7113,-4.7131,-4.7865,-4.8306,-4.8306,-4.8306,-4.8306,-4.8306,-4.8306,-4.8306,-4.8306,-4.8306,-4.8306,-4.8306,-4.8306,-4.8306,-4.8306,-4.8306,-4.7957,-4.7342,-4.6664,-4.6021,-4.5433,-4.4858,-4.4649,-4.488,-4.629,-4.6786,-4.6786,-4.6786,-4.6786,-4.6786,-4.6786,-4.6786,-4.6786,-4.6786,-4.6786,-4.6786,-4.6786,-4.6786,-4.6786,-4.6786,-4.6786,-4.6989,-4.7703,-4.7889,-4.8091,-4.8849,-4.9001,-4.9001,-4.9001,-4.9001,-4.9001,-4.9001,-4.9001,-4.9001,-4.9001,-4.9001,-4.9001,-4.9001,-4.9001,-4.9001,-4.9001,-4.8193,-4.7622,-4.7589,-4.5921,-4.4434,-4.3409,-4.3329,-4.329,-4.329,-4.329,-4.329,-4.329,-4.329,-4.329,-4.329,-4.329,-4.329,-4.329,-4.329,-4.329,-4.8306,-4.8104,-4.7902,-4.7902,-4.7278,-4.6617,-4.6342,-4.5461,-4.4618,-4.436,-4.3864,-4.3515,-4.3515,-4.3515,0.0,0.0,0.0,0.0,0.0,-4.3515,-4.3515,-4.3515,-4.3736,-4.3901,-4.3901,-4.414,-4.4525,-4.5076,-4.5351,-4.5975,-4.7039,-4.7351,-4.7736,-4.8288,-4.8306,-4.8306,-4.8306,-4.8306,-4.8306,-4.8306,-4.8306,-4.8306,-4.8306,-4.8306,-4.8306,-4.8306,-4.8306,-4.8191,-4.7917,-4.6847,-4.6288,-4.5989,-4.4998,-4.4615,-4.4666,-4.5173,-4.5359,-4.5359,-4.5359,-4.5359,-4.5359,-4.5359,-4.5359,-4.5359,-4.5359,-4.5359,-4.5359,-4.5359,-4.5359,-4.5359,-4.5359,-4.5359,-4.5635,-4.687,-4.7175,-4.7513,-4.8748,-4.9001,-4.9001,-4.9001,-4.9001,-4.9001,-4.9001,-4.9001,-4.9001,-4.9001,-4.9001,-4.9001,-4.9001,-4.9001,-4.9001,-4.9001,-4.8161,-4.734,-4.6747,-4.4899,-4.3669,-4.3329,-4.329,-4.329,-4.329,-4.329,-4.329,-4.329,-4.329,-4.329,-4.329,-4.329,-4.329,-4.329,-4.329,-4.329,-4.8306,-4.8306,-4.8306,-4.8306,-4.7901,-4.7443,-4.7168,-4.6067,-4.5057,-4.4746,-4.4066,-4.3515,-4.3515,-4.3515,0.0,0.0,0.0,0.0,0.0,-4.3515,-4.3515,-4.3515,-4.3515,-4.3515,-4.3515,-4.3515,-4.3699,-4.4232,-4.4544,0.0,0.0,-4.6782,-4.7333,-4.7846,-4.8159,-4.8306,-4.8306,-4.8306,-4.8306,-4.8306,-4.8306,-4.8306,-4.8306,-4.8306,-4.8306,-4.8306,-4.8306,-4.8306,-4.821,-4.7176,-4.6618,-4.6312,-4.5294,-4.4786,-4.4615,-4.4615,-4.4615,-4.4615,-4.4615,-4.4615,-4.4615,-4.4615,-4.4615,-4.4615,-4.4615,-4.4615,-4.4615,-4.4615,-4.4615,-4.4615,-4.4615,-4.4615,-4.4987,-4.643,-4.6786,-4.7192,-4.868,-4.9001,-4.9001,-4.9001,-4.9001,-4.9001,-4.9001,-4.9001,-4.9001,-4.9001,-4.9001,-4.9001,-4.9001,-4.9001,-4.8861,-4.8545,-4.7655,-4.6574,-4.529,-4.4013,-4.329,-4.329,-4.329,-4.329,-4.329,-4.329,-4.329,-4.329,-4.329,-4.329,-4.329,-4.329,-4.329,-4.329,-4.329,-4.329]},{"header":{"parameterUnit":"m.s-1","parameterCategory":1,"la1":30.6,"la2":29.2853,"lo1":-89.7004,"lo2":-87.6739,"dy":0.0162,"dx":0.0183,"nx":112,"ny":82,"refTime":"2024-02-17T06:00:00:Z","depth":0,"parameterNumber":3,"parameterNumberName":"V-component_of_WINDS"},"data":[0.0,0.0,0.0,0.0,0.0,0.0,0.0,0.0,0.0,0.0,0.0,0.0,0.0,0.0,0.0,0.0,0.0,0.0,0.0,0.0,0.0,0.0,0.0,0.0,0.0,0.0,0.0,0.0,0.0,0.0,0.0,0.0,0.0,0.0,0.0,0.0,0.0,0.0,0.0,0.0,0.0,0.0,0.0,0.0,0.0,0.0,0.0,0.0,0.0,0.0,0.0,0.0,0.0,0.0,0.0,0.0,0.0,0.0,0.0,0.0,0.0,0.0,0.0,0.0,0.0,0.0,0.0,0.0,0.0,0.0,0.0,0.0,0.0,0.0,0.0,0.0,0.0,0.0,0.0,0.0,0.0,0.0,0.0,0.0,0.0,0.0,0.0,0.0,0.0,0.0,-1.942,-1.8042,-1.7733,-1.7687,-1.7891,-1.774,-1.7687,-1.7891,0.0,0.0,0.0,0.0,0.0,0.0,0.0,0.0,0.0,0.0,0.0,0.0,0.0,0.0,0.0,0.0,0.0,0.0,0.0,0.0,0.0,0.0,0.0,0.0,0.0,0.0,0.0,0.0,0.0,0.0,0.0,0.0,0.0,0.0,0.0,0.0,0.0,0.0,0.0,0.0,0.0,0.0,0.0,0.0,0.0,0.0,0.0,0.0,0.0,0.0,0.0,0.0,0.0,0.0,0.0,0.0,0.0,0.0,0.0,0.0,0.0,0.0,0.0,0.0,0.0,0.0,0.0,0.0,0.0,0.0,0.0,0.0,0.0,0.0,0.0,0.0,0.0,0.0,0.0,0.0,0.0,0.0,0.0,0.0,0.0,0.0,0.0,0.0,0.0,0.0,0.0,0.0,0.0,0.0,0.0,0.0,0.0,0.0,0.0,0.0,0.0,0.0,0.0,0.0,-2.0837,-1.9428,-1.8297,-1.8042,-1.922,-1.8251,-1.8094,-1.922,0.0,0.0,0.0,0.0,0.0,0.0,0.0,0.0,0.0,0.0,0.0,0.0,0.0,0.0,0.0,0.0,0.0,0.0,0.0,0.0,0.0,0.0,0.0,0.0,0.0,0.0,0.0,0.0,0.0,0.0,0.0,0.0,0.0,0.0,0.0,0.0,0.0,0.0,0.0,0.0,0.0,0.0,0.0,0.0,0.0,0.0,0.0,0.0,0.0,0.0,0.0,0.0,0.0,0.0,0.0,0.0,0.0,0.0,0.0,0.0,0.0,0.0,0.0,0.0,0.0,0.0,0.0,0.0,0.0,0.0,0.0,0.0,0.0,0.0,0.0,0.0,0.0,0.0,0.0,0.0,0.0,0.0,0.0,0.0,0.0,0.0,0.0,0.0,0.0,0.0,0.0,0.0,0.0,0.0,0.0,0.0,0.0,0.0,0.0,0.0,0.0,0.0,0.0,-2.1347,-2.1448,-2.0794,-2.0179,-1.9775,-1.9627,-1.9723,-1.9775,-1.9627,-2.0998,0.0,0.0,0.0,0.0,0.0,0.0,0.0,0.0,0.0,0.0,0.0,0.0,0.0,0.0,0.0,0.0,0.0,0.0,0.0,0.0,0.0,0.0,0.0,0.0,0.0,0.0,0.0,0.0,0.0,0.0,0.0,0.0,0.0,0.0,0.0,0.0,0.0,0.0,0.0,0.0,0.0,0.0,0.0,0.0,0.0,0.0,0.0,0.0,0.0,0.0,0.0,0.0,0.0,0.0,0.0,0.0,0.0,0.0,0.0,0.0,0.0,0.0,0.0,0.0,0.0,0.0,0.0,0.0,0.0,0.0,0.0,0.0,0.0,0.0,0.0,0.0,0.0,0.0,0.0,0.0,0.0,0.0,0.0,0.0,0.0,0.0,0.0,0.0,0.0,0.0,0.0,0.0,0.0,0.0,0.0,0.0,0.0,0.0,0.0,0.0,0.0,0.0,-2.2517,-2.1702,-2.1702,-2.1702,-2.1397,-2.0641,-2.1245,-2.1397,-2.0649,-2.2265,0.0,0.0,0.0,0.0,0.0,0.0,0.0,0.0,0.0,0.0,0.0,0.0,0.0,0.0,0.0,0.0,0.0,0.0,0.0,0.0,0.0,0.0,0.0,0.0,0.0,0.0,0.0,0.0,0.0,0.0,0.0,0.0,0.0,0.0,0.0,0.0,0.0,0.0,0.0,0.0,0.0,0.0,0.0,0.0,0.0,0.0,0.0,0.0,0.0,0.0,0.0,0.0,0.0,0.0,0.0,0.0,0.0,0.0,0.0,0.0,0.0,0.0,0.0,0.0,0.0,0.0,0.0,0.0,0.0,0.0,0.0,0.0,0.0,0.0,0.0,0.0,0.0,0.0,0.0,0.0,0.0,0.0,0.0,0.0,0.0,0.0,0.0,0.0,0.0,0.0,0.0,0.0,0.0,0.0,0.0,0.0,0.0,0.0,0.0,0.0,0.0,0.0,-2.2517,-2.1702,-2.1702,-2.1702,-2.2156,-2.3335,-2.2357,-2.2206,-2.3335,-2.2416,0.0,0.0,0.0,0.0,0.0,0.0,0.0,0.0,0.0,0.0,0.0,0.0,0.0,0.0,0.0,0.0,0.0,0.0,0.0,0.0,0.0,0.0,0.0,0.0,0.0,0.0,0.0,0.0,0.0,0.0,0.0,0.0,0.0,0.0,0.0,0.0,0.0,0.0,0.0,0.0,0.0,0.0,0.0,0.0,0.0,0.0,0.0,0.0,0.0,0.0,0.0,0.0,0.0,0.0,0.0,0.0,0.0,0.0,0.0,0.0,0.0,0.0,0.0,0.0,0.0,0.0,0.0,0.0,0.0,0.0,0.0,0.0,0.0,0.0,0.0,0.0,0.0,0.0,0.0,0.0,0.0,0.0,0.0,0.0,0.0,0.0,0.0,0.0,0.0,0.0,0.0,0.0,0.0,0.0,0.0,0.0,0.0,0.0,0.0,0.0,0.0,0.0,-2.451,-2.4196,-2.4196,-2.4196,-2.4048,-2.3741,-2.3989,-2.4048,-2.3741,0.0,0.0,0.0,0.0,0.0,0.0,0.0,0.0,0.0,0.0,0.0,0.0,0.0,0.0,0.0,0.0,0.0,0.0,0.0,0.0,0.0,0.0,0.0,0.0,0.0,0.0,0.0,0.0,0.0,0.0,0.0,0.0,0.0,0.0,0.0,0.0,0.0,0.0,0.0,0.0,0.0,0.0,0.0,0.0,0.0,0.0,0.0,0.0,0.0,0.0,0.0,0.0,0.0,0.0,0.0,0.0,0.0,0.0,0.0,0.0,0.0,0.0,0.0,0.0,0.0,0.0,0.0,0.0,0.0,0.0,0.0,0.0,0.0,0.0,0.0,0.0,0.0,0.0,0.0,0.0,0.0,0.0,0.0,0.0,0.0,0.0,0.0,0.0,0.0,0.0,0.0,0.0,0.0,0.0,0.0,0.0,0.0,0.0,0.0,0.0,0.0,0.0,-2.5118,-2.543,-2.5538,-2.5128,-2.543,-2.5333,-2.4402,-2.5177,-2.5333,-2.4402,0.0,0.0,0.0,0.0,0.0,0.0,0.0,0.0,0.0,0.0,0.0,0.0,0.0,0.0,0.0,0.0,0.0,0.0,0.0,0.0,0.0,0.0,0.0,0.0,0.0,0.0,0.0,0.0,0.0,0.0,0.0,0.0,0.0,0.0,0.0,0.0,0.0,0.0,0.0,0.0,0.0,0.0,0.0,0.0,0.0,0.0,0.0,0.0,0.0,0.0,0.0,0.0,0.0,0.0,0.0,0.0,0.0,0.0,0.0,0.0,0.0,0.0,0.0,0.0,0.0,0.0,0.0,0.0,0.0,0.0,0.0,0.0,0.0,0.0,0.0,0.0,0.0,0.0,0.0,0.0,0.0,0.0,0.0,0.0,0.0,0.0,0.0,0.0,0.0,0.0,0.0,0.0,0.0,0.0,0.0,0.0,0.0,0.0,0.0,0.0,0.0,0.0,-2.389,-2.4864,-2.5177,-2.384,-2.4922,-2.5693,-2.5693,-2.5693,-2.5693,0.0,0.0,0.0,0.0,0.0,0.0,0.0,0.0,0.0,0.0,0.0,0.0,0.0,0.0,0.0,0.0,0.0,0.0,0.0,0.0,0.0,0.0,0.0,0.0,0.0,0.0,0.0,0.0,0.0,0.0,0.0,0.0,0.0,0.0,0.0,0.0,0.0,0.0,0.0,0.0,0.0,0.0,0.0,0.0,0.0,0.0,0.0,0.0,0.0,0.0,0.0,0.0,0.0,0.0,0.0,0.0,0.0,0.0,0.0,0.0,0.0,0.0,0.0,0.0,0.0,0.0,0.0,0.0,0.0,0.0,0.0,0.0,0.0,0.0,0.0,0.0,0.0,0.0,0.0,0.0,0.0,0.0,0.0,0.0,0.0,0.0,0.0,0.0,0.0,0.0,0.0,0.0,0.0,0.0,0.0,0.0,0.0,0.0,0.0,0.0,0.0,0.0,0.0,-2.5177,-2.5479,-2.5538,-2.5177,-2.5479,-2.5693,-2.5693,-2.5693,-2.5693,-2.5693,0.0,0.0,0.0,0.0,0.0,0.0,0.0,0.0,0.0,0.0,0.0,0.0,0.0,0.0,0.0,0.0,0.0,0.0,0.0,0.0,0.0,0.0,0.0,0.0,0.0,0.0,0.0,0.0,0.0,0.0,0.0,0.0,0.0,0.0,0.0,0.0,0.0,0.0,0.0,0.0,0.0,0.0,0.0,0.0,0.0,0.0,0.0,0.0,0.0,0.0,0.0,0.0,0.0,0.0,0.0,0.0,0.0,0.0,0.0,0.0,0.0,0.0,0.0,0.0,0.0,0.0,0.0,0.0,0.0,0.0,0.0,0.0,0.0,0.0,0.0,0.0,0.0,0.0,0.0,0.0,0.0,0.0,0.0,0.0,0.0,0.0,0.0,0.0,0.0,0.0,0.0,0.0,0.0,0.0,0.0,0.0,0.0,0.0,0.0,0.0,0.0,0.0,-2.5693,-2.5693,-2.5693,-2.5693,-2.5693,-2.5693,-2.5693,-2.5693,-2.5693,-2.5693,0.0,0.0,0.0,0.0,0.0,0.0,0.0,0.0,0.0,0.0,0.0,0.0,0.0,0.0,0.0,0.0,0.0,0.0,0.0,0.0,0.0,0.0,0.0,0.0,0.0,0.0,0.0,0.0,0.0,0.0,0.0,0.0,0.0,0.0,0.0,0.0,0.0,0.0,0.0,0.0,0.0,0.0,0.0,0.0,0.0,0.0,0.0,0.0,0.0,0.0,0.0,0.0,0.0,0.0,0.0,0.0,0.0,0.0,0.0,0.0,0.0,0.0,0.0,0.0,0.0,0.0,0.0,0.0,0.0,0.0,0.0,0.0,0.0,0.0,0.0,0.0,0.0,0.0,0.0,0.0,0.0,0.0,0.0,0.0,0.0,0.0,0.0,0.0,0.0,0.0,0.0,0.0,0.0,0.0,0.0,0.0,0.0,0.0,0.0,0.0,0.0,0.0,-2.5693,-2.5693,-2.5693,-2.5693,-2.5693,-2.5693,-2.5693,-2.5693,-2.5693,-2.5693,0.0,0.0,0.0,0.0,0.0,0.0,0.0,0.0,0.0,0.0,0.0,0.0,0.0,0.0,0.0,0.0,0.0,0.0,0.0,0.0,0.0,0.0,0.0,0.0,0.0,0.0,0.0,0.0,0.0,0.0,0.0,0.0,0.0,0.0,0.0,0.0,0.0,0.0,0.0,0.0,0.0,0.0,0.0,0.0,0.0,0.0,0.0,0.0,0.0,0.0,0.0,0.0,0.0,0.0,0.0,0.0,0.0,0.0,0.0,0.0,-2.4211,-2.3822,0.0,0.0,0.0,0.0,0.0,0.0,0.0,0.0,0.0,0.0,0.0,0.0,0.0,0.0,0.0,0.0,0.0,0.0,0.0,0.0,0.0,0.0,0.0,0.0,0.0,0.0,0.0,0.0,0.0,0.0,0.0,0.0,0.0,0.0,0.0,0.0,0.0,0.0,0.0,0.0,-2.5693,-2.5693,-2.5693,-2.5693,-2.5693,-2.5693,-2.5693,-2.5693,-2.5693,-2.5693,-2.5693,0.0,0.0,0.0,0.0,0.0,0.0,0.0,0.0,0.0,0.0,0.0,0.0,0.0,0.0,0.0,0.0,0.0,0.0,0.0,0.0,0.0,0.0,0.0,0.0,0.0,0.0,0.0,0.0,0.0,0.0,0.0,0.0,0.0,0.0,0.0,0.0,0.0,0.0,0.0,0.0,0.0,0.0,0.0,0.0,0.0,0.0,0.0,0.0,0.0,0.0,0.0,0.0,0.0,0.0,0.0,0.0,0.0,0.0,0.0,-2.5991,-2.5945,0.0,0.0,0.0,0.0,0.0,0.0,0.0,0.0,0.0,0.0,0.0,0.0,0.0,0.0,0.0,0.0,0.0,0.0,0.0,0.0,0.0,0.0,0.0,0.0,0.0,0.0,0.0,0.0,0.0,0.0,0.0,0.0,0.0,0.0,0.0,0.0,0.0,0.0,0.0,0.0,-2.5693,-2.5693,-2.5693,-2.5693,-2.5693,-2.5693,-2.5693,-2.5693,-2.5693,-2.5693,-2.5693,0.0,0.0,0.0,0.0,0.0,0.0,0.0,0.0,0.0,0.0,0.0,0.0,0.0,0.0,0.0,0.0,0.0,0.0,0.0,0.0,0.0,0.0,0.0,0.0,0.0,0.0,0.0,0.0,0.0,0.0,0.0,0.0,0.0,0.0,0.0,0.0,0.0,0.0,0.0,0.0,0.0,0.0,0.0,0.0,0.0,0.0,0.0,0.0,0.0,0.0,0.0,0.0,0.0,-2.482,-2.4322,-2.4599,-2.5882,-2.649,-2.6545,-2.778,-2.8291,-2.8237,-2.6997,0.0,0.0,0.0,0.0,0.0,0.0,0.0,0.0,0.0,0.0,0.0,0.0,0.0,0.0,0.0,0.0,0.0,0.0,0.0,0.0,0.0,0.0,-2.7012,-2.7012,-2.7012,-2.6826,-2.6064,0.0,0.0,0.0,0.0,0.0,0.0,0.0,0.0,0.0,0.0,0.0,-2.5693,-2.5693,-2.5693,-2.5693,-2.5693,-2.5693,-2.5693,-2.5693,-2.5693,-2.5693,-2.5693,-2.5693,0.0,0.0,0.0,0.0,0.0,0.0,0.0,0.0,0.0,0.0,0.0,0.0,0.0,0.0,0.0,0.0,0.0,0.0,0.0,0.0,0.0,0.0,0.0,0.0,0.0,0.0,0.0,0.0,0.0,0.0,0.0,0.0,-1.8384,-1.843,0.0,0.0,0.0,0.0,0.0,0.0,0.0,0.0,0.0,0.0,0.0,0.0,0.0,-2.3877,-2.41,-2.41,-2.4765,-2.61,-2.5873,-2.649,-2.7726,-2.7897,-2.8014,-2.8014,-2.8237,0.0,-2.8291,-2.8067,0.0,0.0,0.0,0.0,0.0,0.0,0.0,0.0,0.0,0.0,0.0,0.0,0.0,0.0,0.0,0.0,0.0,0.0,0.0,0.0,0.0,0.0,-2.7012,-2.7012,-2.7012,-2.6982,-2.6865,-2.6562,-2.6299,-2.6309,-2.5996,-2.5693,0.0,0.0,0.0,0.0,0.0,0.0,-2.5693,-2.5693,-2.5693,-2.5693,-2.5693,-2.5693,-2.5693,-2.5693,-2.5693,-2.5693,-2.5693,-2.5693,-2.5693,-2.5693,0.0,0.0,0.0,0.0,0.0,0.0,0.0,0.0,0.0,0.0,0.0,0.0,0.0,0.0,0.0,0.0,0.0,0.0,0.0,0.0,0.0,0.0,0.0,0.0,0.0,0.0,0.0,0.0,0.0,-1.841,-1.8551,-1.8718,-1.8731,-1.8798,0.0,0.0,0.0,0.0,0.0,0.0,0.0,0.0,0.0,-2.5041,-2.5096,-2.5489,-2.6327,-2.6336,-2.6672,-2.734,-2.734,-2.7672,-2.8291,-2.8291,-2.8291,-2.8291,-2.8291,-2.8291,-2.8291,-2.8291,-2.8291,-2.8291,0.0,0.0,0.0,0.0,-2.8291,-2.8291,-2.8291,-2.8291,-2.8291,-2.8291,0.0,0.0,0.0,0.0,0.0,0.0,0.0,-2.8018,-2.8018,-2.7871,-2.7734,-2.7734,-2.7734,-2.7734,-2.7734,-2.7402,-2.7031,-2.6787,-2.6592,-2.6405,-2.6405,-2.6405,0.0,0.0,0.0,-2.6016,-2.5713,-2.5693,-2.5693,-2.5693,-2.5693,-2.5693,-2.5693,-2.5693,-2.5693,-2.5693,-2.5693,-2.5693,-2.5693,-2.5693,-2.5693,0.0,0.0,0.0,0.0,0.0,0.0,0.0,0.0,0.0,0.0,0.0,0.0,0.0,0.0,0.0,0.0,0.0,0.0,0.0,0.0,0.0,0.0,0.0,0.0,0.0,0.0,0.0,0.0,-1.8664,-1.8798,-1.9011,-1.9367,-1.9562,0.0,0.0,0.0,0.0,0.0,0.0,-2.4378,-2.4378,-2.4931,-2.6045,-2.649,-2.6997,-2.7726,-2.8121,-2.834,-2.8447,-2.8447,-2.8516,-2.8613,-2.8613,-2.8613,-2.8613,-2.8613,-2.8555,-2.8447,-2.834,-2.8291,-2.8291,-2.8291,-2.8291,-2.8291,-2.8291,-2.8291,-2.8291,-2.8291,-2.8291,-2.8291,-2.8291,-2.8291,-2.8291,-2.8291,0.0,0.0,0.0,0.0,-2.8291,-2.8291,-2.8291,-2.8291,-2.8291,-2.8291,-2.8291,-2.8291,-2.8047,-2.7695,-2.7266,-2.709,-2.7012,-2.7012,-2.7012,0.0,-2.6592,-2.6455,-2.6269,-2.5947,-2.5762,-2.5693,-2.5693,-2.5693,-2.5693,-2.5693,-2.5693,-2.5693,-2.5693,-2.5693,-2.5693,-2.5693,-2.5693,-2.5693,-2.5693,0.0,0.0,0.0,0.0,0.0,0.0,0.0,0.0,0.0,0.0,0.0,0.0,0.0,0.0,0.0,0.0,0.0,0.0,0.0,0.0,0.0,0.0,0.0,0.0,0.0,0.0,0.0,0.0,0.0,-1.9339,-2.0623,0.0,0.0,0.0,0.0,-2.1692,-2.2983,-2.4433,-2.5927,-2.5991,-2.6045,-2.61,-2.7447,-2.7555,-2.6209,-2.7618,-2.8496,-2.8887,-2.8887,-2.9101,-2.9502,-2.9502,-2.9502,-2.9502,-2.9502,-2.9268,-2.8857,-2.8457,-2.8291,-2.8291,-2.8291,-2.8291,-2.8291,-2.8291,-2.8291,-2.8291,-2.8291,-2.8291,-2.8291,-2.8291,-2.8291,-2.8291,-2.8291,-2.8291,0.0,0.0,-2.8291,-2.8291,-2.8291,-2.8291,-2.8291,-2.8291,-2.8291,-2.8291,-2.8291,-2.8271,-2.8135,-2.7715,-2.7295,-2.7012,-2.7012,0.0,-2.7012,-2.6982,-2.6641,-2.6387,-2.6357,-2.5996,-2.5693,-2.5693,-2.5693,-2.5693,-2.5693,-2.5693,-2.5693,-2.5693,-2.5693,-2.5693,-2.5693,-2.5693,-2.5693,-2.5693,-2.5693,0.0,0.0,0.0,0.0,0.0,0.0,0.0,0.0,0.0,0.0,0.0,0.0,0.0,0.0,0.0,0.0,0.0,0.0,0.0,0.0,0.0,0.0,0.0,0.0,0.0,0.0,0.0,0.0,-2.0702,-2.1252,0.0,-2.2209,-2.41,-2.5049,-2.4561,-2.5836,-2.6943,-2.7501,-2.7501,-2.7625,-2.7891,-2.7398,-2.7529,-2.8355,-2.779,-2.8153,-2.9336,-2.9336,-2.9424,-2.9626,-2.9626,-2.9626,-2.9626,-2.9626,-2.9482,-2.9326,-2.918,-2.8789,-2.8291,-2.8291,-2.8291,-2.8291,-2.8291,-2.8291,-2.8291,-2.8291,-2.8291,-2.8291,-2.8291,-2.8291,-2.8291,-2.8291,-2.8291,-2.8291,-2.8291,-2.8291,-2.8291,-2.8291,-2.8291,-2.8291,-2.8291,-2.8291,-2.8291,-2.8291,-2.8291,-2.8252,-2.8096,-2.7949,-2.7842,-2.7842,-2.7842,-2.7744,-2.7471,-2.7305,-2.7109,-2.6826,-2.6416,-2.6162,-2.6162,-2.5908,-2.5693,-2.5693,-2.5693,-2.5693,-2.5693,-2.5693,-2.5693,-2.5693,-2.5693,-2.5693,-2.5693,-2.5693,-2.5693,0.0,0.0,0.0,0.0,0.0,0.0,0.0,0.0,0.0,0.0,0.0,0.0,0.0,0.0,0.0,0.0,0.0,0.0,0.0,0.0,0.0,0.0,0.0,0.0,0.0,-1.9815,-2.0314,-2.0809,-2.2202,-2.2927,-2.2379,-2.5049,-2.6445,-2.5406,-2.7309,-2.828,-2.772,-2.8362,-2.8391,-2.7577,-2.7539,-2.7959,-2.8812,-2.8229,-2.8587,-2.9785,-2.9785,-2.9863,-3.0019,-3.0019,-2.9716,-2.9232,-2.9773,-2.9336,-2.8254,-2.9371,-2.9078,-2.7929,-2.8503,-2.8633,-2.8506,-2.8506,-2.8418,-2.8291,-2.8291,-2.8291,-2.8291,-2.8291,-2.8291,-2.8291,-2.8291,-2.8291,-2.8291,-2.8291,-2.8291,-2.8291,-2.8291,-2.8291,-2.8291,-2.8291,-2.8291,-2.8291,-2.8291,-2.8291,-2.8291,-2.8291,-2.8291,-2.8291,-2.8291,-2.8291,-2.8193,-2.792,-2.7806,-2.7611,-2.7275,-2.6865,-2.6543,-2.6406,-2.6133,-2.5849,-2.5703,-2.5693,-2.5693,-2.5693,-2.5693,-2.5693,-2.5693,-2.5693,-2.5693,-2.5693,-2.5693,-2.5693,-2.5693,0.0,0.0,0.0,0.0,0.0,0.0,0.0,0.0,0.0,0.0,0.0,0.0,0.0,0.0,0.0,0.0,0.0,0.0,0.0,0.0,0.0,0.0,0.0,-1.9424,-2.0644,-2.1031,-1.9649,-2.3319,-2.4267,-2.004,-2.4791,-2.7025,-2.4172,-2.694,-2.8093,-2.6621,-2.8426,-2.8107,-2.5036,-2.7889,-2.8775,-2.7338,-2.8747,-2.9655,-3.0177,-3.013,-3.0315,-3.0752,-3.0752,-2.9931,-2.8504,-3.0108,-2.8827,-2.5745,-2.8903,-2.9032,-2.7395,-2.9,-2.9307,-2.8935,-2.8935,-2.8682,-2.833,-2.831,-2.831,-2.831,-2.8301,-2.8291,-2.8291,-2.8291,-2.8291,-2.8291,-2.8291,-2.8291,-2.8291,-2.8291,-2.8291,-2.8291,-2.8291,-2.8291,-2.8291,-2.8291,-2.8291,-2.8291,-2.8291,-2.8291,-2.8291,-2.8291,-2.8291,-2.8291,-2.8291,-2.7949,0.0,-2.7738,-2.7305,-2.6875,-2.6475,-2.6416,-2.623,-2.5742,-2.5703,-2.5703,-2.5693,-2.5693,-2.5693,-2.5693,-2.5693,-2.5693,-2.5693,-2.5693,-2.5693,-2.5693,0.0,0.0,0.0,0.0,0.0,0.0,0.0,0.0,0.0,0.0,0.0,0.0,0.0,0.0,0.0,0.0,0.0,0.0,0.0,0.0,0.0,-1.9424,-1.9424,-1.9424,-1.9758,-2.0256,-2.0923,-2.2089,-2.3199,-2.4156,-2.4967,-2.5978,-2.7381,-2.6501,-2.6144,-2.6912,-2.7475,-2.7018,-2.5274,-2.6058,-2.7018,-2.8093,-2.6376,-2.6803,-2.9246,-2.8245,-2.7875,-2.7987,-2.7987,-2.8263,-2.879,-2.9231,-2.9439,-2.9421,-3.0335,-3.0393,-2.9862,-2.9645,-2.9502,-2.9394,-2.9394,-2.9316,-2.917,-2.8857,-2.875,-2.8701,-2.8389,-2.8291,-2.8291,-2.8291,-2.8291,-2.8291,-2.8291,-2.8291,-2.8291,-2.8291,-2.8291,-2.8291,-2.8291,-2.8291,-2.8291,-2.8291,-2.8291,-2.8291,-2.8291,-2.8291,-2.8291,-2.8291,-2.8291,-2.8291,-2.8291,-2.8193,-2.8125,-2.8125,-2.7744,-2.7441,-2.7324,-2.7031,-2.667,-2.624,-2.6211,-2.6074,-2.5703,-2.5693,-2.5693,-2.5693,-2.5693,-2.5693,-2.5693,-2.5693,-2.5693,0.0,0.0,0.0,0.0,0.0,0.0,0.0,0.0,0.0,0.0,0.0,0.0,0.0,0.0,0.0,0.0,0.0,0.0,0.0,0.0,0.0,0.0,-1.9424,-1.9424,-1.9424,-1.9924,-2.0422,-2.0644,-2.1756,-2.2757,-2.3416,-2.3959,-2.4832,-2.6132,-2.5443,-2.5361,-2.6304,-2.6518,-2.6355,-2.5756,-2.5764,-2.6432,-2.7747,-2.6044,-2.6141,-2.8023,-2.7244,-2.6908,-2.6908,-2.6908,-2.6912,-2.7073,-2.7766,-2.7708,-2.724,-2.8501,-2.9039,-2.9104,0.0,0.0,0.0,0.0,-2.9626,-2.9531,-2.9277,-2.9189,-2.915,-2.8906,-2.8828,-2.8828,-2.8828,-2.8828,-2.8828,-2.8828,-2.8828,-2.8828,-2.8828,-2.8828,-2.8779,-2.8594,-2.8555,-2.8506,-2.833,-2.8291,-2.8291,-2.8291,-2.8291,0.0,-2.8291,-2.8291,-2.8291,-2.8291,-2.8291,-2.8291,-2.8291,-2.8086,-2.7914,-2.7738,-2.7441,-2.7119,-2.6689,-2.6494,0.0,0.0,0.0,-2.5693,-2.5693,-2.5693,0.0,0.0,0.0,-2.5693,-2.5693,-2.5693,0.0,0.0,-2.5693,-2.5693,0.0,0.0,0.0,0.0,0.0,0.0,0.0,0.0,0.0,0.0,0.0,0.0,0.0,0.0,0.0,0.0,-1.9424,-1.9424,-1.9424,-2.0565,-2.0902,-1.954,-2.1744,-2.2493,-2.0285,-2.2387,-2.3597,-2.2863,-2.4058,-2.4916,-2.5136,-2.5566,0.0,0.0,0.0,-2.6305,-2.6646,-2.6503,-2.652,-2.6647,-2.6496,-2.6448,-2.6448,-2.6448,-2.5718,-2.4533,-2.6008,-2.5092,-2.2731,-2.54,-2.6554,-2.6974,-2.9817,-3.0635,-3.0234,-2.9853,-2.9773,-2.9717,-2.9658,0.0,0.0,-2.959,-2.9626,-2.9626,-2.9626,-2.9626,-2.9626,-2.9626,-2.9626,-2.9626,-2.9626,-2.9626,-2.9473,-2.9082,-2.8994,-2.8887,-2.8516,-2.8437,-2.8418,-2.8369,-2.8359,-2.835,-2.8301,-2.8291,-2.8291,-2.8291,-2.8291,-2.8291,-2.8291,-2.8291,-2.8144,-2.7826,-2.7787,0.0,-2.7129,-2.6748,-2.6494,-2.6396,-2.5977,-2.5693,-2.5693,-2.5693,-2.5693,-2.5693,-2.5693,-2.5693,-2.5693,-2.5693,-2.5693,-2.5693,-2.5693,-2.5693,0.0,0.0,0.0,0.0,0.0,0.0,0.0,0.0,0.0,0.0,0.0,0.0,0.0,0.0,0.0,-1.9424,-1.9424,-1.9424,-1.9424,-1.9852,-1.9972,-1.945,-2.0079,-2.0817,-2.1496,-2.1452,-2.2311,-2.4559,-2.2968,-2.2598,-2.4157,-2.4358,-2.3914,-2.2902,-2.4119,-2.4785,-2.4861,-2.3831,-2.396,-2.527,-2.4159,0.0,-2.3688,-2.3688,-2.4078,-2.481,-2.5139,-2.5566,-2.6008,-2.6573,-2.7427,-2.8603,-3.0251,-3.083,-3.0752,-3.0664,-3.0635,-3.0576,-3.0205,-3.0078,-3.0019,-2.9734,-2.9626,-2.9626,-2.9626,-2.9626,0.0,-2.9626,-2.9626,-2.9626,-2.9626,-2.9626,-2.9607,-2.9463,-2.9443,-2.9424,-2.9346,-2.9381,-2.9219,-2.8867,-2.8799,-2.8691,-2.835,-2.8291,-2.8291,-2.8291,-2.8291,-2.8291,-2.8291,-2.8291,-2.8262,-2.8174,-2.8174,-2.7998,-2.7578,-2.7471,-2.7129,-2.6435,-2.5977,-2.5693,-2.5693,-2.5693,-2.5693,-2.5693,-2.5693,-2.5693,-2.5693,-2.5693,-2.5693,-2.5693,-2.5693,-2.5693,0.0,0.0,0.0,0.0,0.0,0.0,0.0,0.0,0.0,0.0,0.0,-1.9424,-1.9424,0.0,-1.9424,-1.9424,-1.9424,-1.9424,-1.9424,-1.9619,-1.9746,-1.9599,-1.984,-2.0361,-2.1265,-2.0978,-2.1396,-2.3052,-2.202,-2.2143,-2.3925,-2.3392,-2.3111,-2.3422,-2.3429,-2.3499,-2.3662,-2.2964,-2.3039,-2.3902,-2.3188,-2.2928,-2.2928,-2.2928,-2.3249,-2.3895,-2.3895,-2.4271,-2.5024,-2.6535,-2.7529,-2.8218,-3.0376,-3.1074,-3.0889,-3.0889,-3.0889,-3.0859,-3.0625,-3.0547,-3.0508,-3.0303,-3.0234,-3.0234,-3.0234,-3.0234,-3.0234,-3.0234,-3.0234,-3.0234,-3.0234,-3.0234,-3.0176,-2.9941,-2.9883,-2.9824,-2.9619,-2.9626,-2.9502,-2.9287,-2.9248,-2.9111,-2.8682,-2.8603,-2.8535,-2.833,-2.8291,-2.8291,-2.8291,-2.8291,-2.8291,-2.8291,-2.8291,-2.8203,-2.7998,-2.7836,-2.7356,-2.6445,-2.6182,-2.5967,-2.5703,-2.5693,-2.5693,-2.5693,-2.5693,-2.5693,-2.5693,-2.5693,-2.5693,-2.5693,-2.5693,-2.5693,0.0,0.0,0.0,0.0,0.0,0.0,0.0,-1.9424,-1.9424,-1.9424,-1.9424,-1.9424,-1.9424,-1.9424,-1.9424,-1.9424,-1.9424,-1.9444,-1.9446,-1.97,-1.9907,-1.9967,-2.018,-2.0414,-2.0655,-2.0728,-2.0882,-2.1176,-2.148,-2.2236,-2.3607,-2.2645,-2.2855,-2.4465,-2.3225,-2.2619,-2.2928,-2.2928,-2.2928,-2.2928,-2.2928,-2.2928,-2.2928,-2.2928,-2.2928,-2.2928,-2.2928,-2.2928,-2.3113,-2.5955,-2.7133,-2.7419,-3.0198,-3.1148,-3.1006,-3.0918,-3.0889,-3.0889,-3.0889,-3.0889,-3.0889,-3.0889,-3.0889,-3.0889,-3.0889,-3.0889,-3.0889,-3.0889,-3.0889,-3.0889,-3.0889,-3.0889,-3.0801,-3.042,-3.0332,-3.0244,-2.9902,-2.9824,-2.9861,-2.9707,-2.9744,-2.9551,-2.9121,-2.8975,-2.8779,-2.8359,-2.8291,-2.8291,-2.8291,-2.8291,-2.8291,-2.8291,-2.8291,-2.8291,-2.8291,-2.791,-2.7425,-2.668,-2.6553,-2.6318,-2.583,-2.5859,-2.5771,-2.5693,-2.5693,-2.5693,-2.5693,-2.5693,-2.5693,-2.5693,-2.5693,-2.5693,-1.8424,-1.8918,-1.9424,-1.9424,-1.9424,-1.9424,0.0,-1.9424,-1.9424,-1.9424,-1.9424,-1.9424,-1.9424,-1.9424,-1.9424,-1.9424,-1.9424,-1.9459,-1.972,-2.0,-2.0281,-2.0548,-2.0608,-2.0641,-2.0675,-2.0909,-2.1182,-2.1547,-2.1601,-2.1907,-2.2552,-2.2418,-2.2573,-2.314,-2.2949,-2.2826,-2.2928,-2.2928,-2.2928,-2.2928,-2.2928,-2.2928,-2.2928,-2.2928,-2.2928,-2.2928,-2.2928,-2.2928,-2.3058,-2.4949,-2.6382,-2.7625,-2.9571,-3.0818,-3.1406,-3.1025,-3.0889,-3.0889,-3.0889,-3.0889,-3.0889,-3.0889,-3.0889,-3.0889,-3.0889,-3.0889,-3.0889,-3.0889,-3.0889,-3.0889,-3.0889,-3.0889,-3.0879,-3.083,-3.081,-3.0801,-3.0752,-3.0742,-3.0625,-3.0205,-3.0127,-2.999,-2.957,-2.918,-2.8779,-2.8359,-2.8291,-2.8291,-2.8291,-2.8291,-2.8291,-2.8291,-2.8291,-2.8291,-2.8291,-2.791,-2.7679,-2.7581,-2.7158,-2.6758,-2.6338,-2.6318,-2.6133,-2.5693,-2.5693,-2.5693,-2.5693,-2.5693,-2.5693,-2.5693,-2.5693,-2.5693,-1.8617,-1.9045,-1.9424,-1.9424,-1.9424,-1.9424,-1.9424,-1.9424,-1.9424,-1.9424,-1.9424,-1.9424,-1.9424,-1.9424,-1.9424,-1.9424,-1.9506,-1.9659,-1.978,-2.0201,-2.0535,-2.0661,-2.0822,-2.0929,-2.0929,-2.1196,-2.1423,-2.1608,-2.1864,-2.2164,-2.2405,-2.2579,-2.2732,-2.2928,-2.2928,-2.2928,-2.2928,-2.2928,-2.2928,-2.2928,-2.2928,-2.2928,-2.2928,-2.2928,-2.2928,-2.2928,-2.2928,-2.2928,-2.3133,-2.592,-2.7414,-2.8177,-3.0746,-3.1932,-3.2178,-3.1504,-3.1103,-3.0889,-3.0889,-3.0889,-3.0889,-3.0889,-3.0889,-3.0889,-3.0889,-3.0889,-3.0889,-3.0889,-3.0889,-3.0889,-3.0889,-3.0889,-3.0889,-3.0889,-3.0889,-3.0889,-3.0889,-3.0889,-3.083,-3.0635,-3.0605,-3.0459,-3.001,-2.9785,-2.9434,-2.876,-2.8447,-2.8291,-2.8291,-2.8291,-2.8291,-2.8291,-2.8291,-2.8291,-2.8291,-2.8135,-2.793,-2.7738,-2.75,-2.7197,-2.6768,-2.6758,-2.6553,-2.6123,-2.6113,-2.5986,-2.5693,-2.5693,-2.5693,-2.5693,-2.5693,-2.5693,-1.8691,-1.9078,-1.9424,-1.9424,-1.9424,-1.9424,-1.9424,-1.9424,-1.9424,-1.9424,-1.9424,-1.9424,-1.9424,-1.9424,-1.9424,-1.9424,-1.9613,-1.9826,-1.9907,-2.0361,-2.0708,-2.0782,-2.0982,-2.1109,-2.1109,-2.1376,-2.1648,-2.1728,-2.2138,-2.2452,-2.2539,-2.2746,-2.2928,-2.2928,-2.2928,-2.2928,-2.2928,-2.2928,-2.2928,-2.2928,-2.2928,-2.2928,-2.2928,-2.2928,-2.2928,-2.2934,-2.3393,-2.359,-2.3856,-2.7429,-2.8952,-2.9188,-3.1917,-3.29,-3.2715,-3.21,-3.1523,-3.1045,-3.0928,-3.0889,-3.0889,-3.0889,-3.0889,-3.0889,-3.0889,-3.0889,-3.0889,-3.0889,-3.0889,-3.0889,-3.0889,-3.0889,-3.0889,-3.0889,-3.0889,-3.0889,-3.0889,-3.0889,-3.0889,-3.0889,-3.0889,-3.0781,-3.0449,-3.0283,-2.9951,-2.9209,-2.874,-2.8428,-2.831,-2.8291,-2.8291,-2.8291,-2.8291,-2.8291,-2.8291,-2.8291,-2.8164,-2.7861,-2.7894,-2.7646,-2.7207,-2.7197,-2.7002,-2.6572,-2.6562,-2.6348,-2.5869,-2.5869,-2.581,-2.5693,-2.5693,-2.5693,-1.8497,-1.8925,-1.9424,-1.9424,-1.9424,-1.9424,-1.9424,-1.9424,-1.9424,-1.9424,-1.9424,-1.9424,-1.9424,-1.9424,-1.9424,-1.9424,-1.9613,-1.99,-2.018,-2.0481,-2.0782,-2.1062,-2.1109,-2.1109,-2.1109,-2.1376,-2.1735,-2.1951,-2.2251,-2.2545,-2.2901,-2.2859,-2.2928,-2.2928,-2.2928,-2.2928,-2.2928,-2.2928,-2.2928,-2.2928,-2.2928,-2.2928,-2.2928,-2.2928,-2.2928,-2.2996,-2.4723,-2.545,-2.5711,-2.9261,-3.0707,-3.09,-3.2683,-3.3154,-3.2793,-3.2764,-3.2217,-3.1435,-3.1035,-3.0889,-3.0889,-3.0889,-3.0889,-3.0889,-3.0889,-3.0889,-3.0889,-3.0889,-3.0889,-3.0889,-3.0889,-3.0889,-3.0889,-3.0889,-3.0889,-3.0889,-3.0889,-3.0889,-3.0889,-3.0889,-3.0889,-3.0889,-3.0869,-3.0498,-3.0049,-2.9619,-2.918,-2.875,-2.834,-2.8291,-2.8291,-2.8291,-2.8291,-2.8291,-2.8291,-2.8291,-2.8281,-2.8271,-2.8271,-2.8086,-2.7718,-2.7699,-2.7441,-2.7002,-2.6992,-2.6787,-2.6367,-2.6367,-2.6152,-2.5693,-2.5693,-2.5693,-1.8437,-1.8771,-1.9118,-1.9319,-1.9424,-1.9424,-1.9424,-1.9424,-1.9424,-1.9424,-1.9424,-1.9424,-1.9424,-1.9424,-1.9424,-1.9424,-1.9773,-2.012,-2.0221,-2.0655,-2.1002,-2.1096,-2.1109,-2.1109,-2.1109,-2.155,-2.1884,-2.1977,-2.2438,-2.2752,-2.2859,-2.2928,-2.2928,-2.2928,-2.2928,-2.2928,-2.2928,-2.2928,-2.2928,-2.2928,-2.2928,-2.2928,-2.2928,-2.2928,-2.2928,-2.2996,-2.4716,-2.551,-2.5778,-2.9327,-3.0771,-3.0973,-3.2692,-3.334,-3.3174,-3.29,-3.2441,-3.1885,-3.1455,-3.1123,-3.0889,-3.0889,-3.0889,-3.0889,-3.0889,-3.0889,-3.0889,-3.0889,-3.0889,-3.0889,-3.0889,-3.0889,-3.0889,-3.0889,-3.0889,-3.0889,-3.0889,-3.0889,-3.0889,-3.0889,-3.0889,-3.0889,-3.0889,-3.0762,-3.041,-2.9734,-2.8965,-2.8447,-2.831,-2.8291,-2.8291,-2.8291,-2.8291,-2.8291,-2.8291,-2.8291,-2.8291,-2.8291,-2.8291,-2.8232,-2.8086,-2.8086,-2.7881,-2.7451,-2.7441,-2.7236,-2.6807,-2.6807,-2.6728,-2.6582,-2.6582,-2.6582,-1.841,-1.8704,-1.8991,-1.9292,-1.9424,-1.9424,-1.9424,-1.9424,-1.9424,-1.9424,-1.9424,-1.9424,-1.9424,-1.9424,-1.9424,-1.9424,-1.9853,-2.0173,-2.0173,-2.0742,-2.1109,-2.1109,-2.1109,-2.1109,-2.1109,-2.1643,-2.1984,-2.1984,-2.2532,-2.2928,-2.2928,-2.2928,-2.2928,-2.2928,-2.2928,-2.2928,-2.2928,-2.2928,-2.2928,-2.2928,-2.2928,-2.2928,-2.2928,-2.2928,-2.3263,-2.3924,-2.5719,-2.6831,-2.7619,-3.0513,-3.1698,-3.1835,-3.2956,-3.3418,-3.3389,-3.3115,-3.2656,-3.21,-3.167,-3.124,-3.0889,-3.0889,-3.0889,-3.0889,-3.0889,-3.0889,-3.0889,-3.0889,-3.0889,-3.0889,-3.0889,-3.0889,-3.0889,-3.0889,-3.0889,-3.0889,-3.0889,-3.0889,-3.0889,-3.0889,-3.0889,-3.0889,-3.0889,-3.0752,-3.0449,-2.9883,-2.9062,-2.8467,-2.831,-2.8291,-2.8291,-2.8291,-2.8291,-2.8291,-2.8291,-2.8291,-2.8291,-2.8291,-2.8291,-2.8291,-2.8291,-2.8291,-2.8164,-2.7891,-2.7891,-2.7676,-2.7246,-2.7246,-2.7168,-2.7012,-2.7012,-2.7012,-1.8404,-1.8691,-1.8978,-1.9292,-1.9424,-1.9424,-1.9424,-1.9424,-1.9424,-1.9424,-1.9424,-1.9424,-1.9424,-1.9424,-1.9424,-1.9424,-1.9846,-2.0153,-2.0227,-2.0728,-2.1089,-2.1109,-2.1109,-2.1109,-2.1109,-2.163,-2.1971,-2.1984,-2.2532,-2.2928,-2.2928,-2.2928,-2.2928,-2.2928,-2.2928,-2.2928,-2.2928,-2.2928,-2.2928,-2.2928,-2.2928,-2.2928,-2.2928,-2.2928,-2.3788,-2.545,-2.7304,-2.9083,-3.0771,-3.2556,-3.3292,-3.3418,-3.3418,-3.3418,-3.3418,-3.3418,-3.2891,-3.2109,-3.1699,-3.126,-3.0889,-3.0889,-3.0889,-3.0889,-3.0889,-3.0889,-3.0889,-3.0889,-3.0889,-3.0889,-3.0889,-3.0889,-3.0889,-3.0889,-3.0889,-3.0889,-3.0889,-3.0889,-3.0889,-3.0889,-3.0889,-3.0889,-3.0889,-3.0527,-3.0225,-3.0205,-2.9492,-2.8799,-2.8379,-2.8301,-2.8291,-2.8291,-2.8291,-2.8291,-2.8291,-2.8291,-2.8291,-2.8291,-2.8291,-2.8291,-2.8291,-2.8291,-2.8291,-2.8291,-2.8291,-2.8096,-2.7748,-2.7748,-2.749,-2.708,-2.708,-2.708,-1.835,-1.8544,-1.8724,-1.9296,-1.9424,-1.9424,-1.9424,-1.9424,-1.9424,-1.9424,-1.9424,-1.9424,-1.9424,-1.9424,-1.9424,-1.9424,-1.9673,-1.9987,-2.014,-2.0555,-2.0869,-2.1082,-2.1109,-2.1109,-2.1109,-2.1443,-2.175,-2.1964,-2.2532,-2.2928,-2.2928,-2.2928,-2.2928,-2.2928,-2.2928,-2.2928,-2.2928,-2.2928,-2.2928,-2.2928,-2.2928,-2.2928,-2.2928,-2.2928,-2.3126,-2.3659,-2.545,-2.7238,-2.9017,-3.0716,-3.2228,-3.3418,-3.3418,-3.3418,-3.3418,-3.3418,-3.2891,-3.2148,-3.2041,-3.1514,-3.0889,-3.0889,-3.0889,-3.0889,-3.0889,-3.0889,-3.0889,-3.0889,-3.0889,-3.0889,-3.0889,-3.0889,-3.0889,-3.0889,-3.0889,-3.0889,-3.0889,-3.0889,-3.0889,-3.0889,-3.0889,-3.0889,-3.0889,-3.0791,-3.0596,-3.0244,-2.9746,-2.9248,-2.8818,-2.8486,-2.8291,-2.8291,-2.8291,-2.8291,-2.8291,-2.8291,-2.8291,-2.8291,-2.8291,-2.8291,-2.8291,-2.8291,-2.8291,-2.8291,-2.8291,-2.8242,-2.8135,-2.8135,-2.8076,-2.7969,-2.7969,-2.7969,-1.8323,-1.849,-1.8631,-1.9219,-1.9424,-1.9424,-1.9424,-1.9424,-1.9424,-1.9424,-1.9424,-1.9424,-1.9424,-1.9424,-1.9424,0.0,0.0,0.0,-2.0133,-2.0488,-2.0782,0.0,-2.1109,-2.1109,-2.1109,-2.1376,-2.1735,-2.1964,-2.2405,-2.2726,-2.2921,-2.2928,-2.2928,-2.2928,-2.2928,-2.2928,-2.2928,-2.2928,-2.2928,-2.2928,-2.2928,-2.2928,-2.2928,-2.2928,-2.3331,-2.4128,-2.5053,-2.6506,-2.8303,-2.9279,-3.0263,-3.112,-3.112,-3.1579,-3.2228,-3.2228,-3.2238,-3.2229,-3.2229,-3.1601,-3.0889,-3.0889,-3.0889,-3.0889,-3.0889,-3.0889,-3.0889,-3.0889,-3.0889,-3.0889,-3.0889,-3.0889,-3.0889,-3.0889,-3.0889,-3.0889,-3.0889,-3.0889,-3.0889,-3.0889,-3.0889,-3.0889,-3.0889,-3.0889,-3.0801,-3.0537,-2.9971,-2.9482,-2.9238,-2.8672,-2.8291,-2.8291,-2.8291,-2.8291,-2.8291,-2.8291,-2.8291,-2.8291,-2.8291,-2.8291,-2.8291,-2.8291,-2.8291,-2.8291,-2.8291,-2.8291,-2.8291,-2.8291,-2.8291,-2.8291,-2.8291,-2.8291,-1.8277,-1.8464,-1.8624,-1.9172,-1.9397,-1.9424,-1.9424,-1.9424,-1.9424,-1.9424,-1.9424,-1.9424,-1.9424,-1.9424,-1.9424,-1.9424,0.0,-1.9846,-2.0134,-2.0428,-2.0728,-2.1015,-2.1082,-2.1109,-2.1109,-2.1343,-2.1681,-2.1904,-2.2198,-2.2505,-2.2914,-2.2928,-2.2928,-2.2928,-2.2928,-2.2928,-2.2928,-2.2928,-2.2928,-2.2928,-2.2928,-2.2928,-2.2928,-2.2928,-2.3727,-2.5181,-2.5181,-2.618,-2.7842,-2.7842,-2.7974,-2.8238,-2.8427,-2.9474,-3.0836,-3.0983,-3.1537,-3.2158,-3.21,-3.1562,-3.0889,-3.0889,-3.0889,-3.0889,-3.0889,-3.0889,-3.0889,-3.0889,-3.0889,-3.0889,-3.0889,-3.0889,-3.0889,-3.0889,-3.0889,-3.0889,-3.0889,-3.0889,-3.0889,-3.0889,-3.0889,-3.0889,-3.0889,-3.0889,-3.0889,-3.0889,-3.0137,-2.9626,-2.9626,-2.8818,-2.8291,-2.8291,-2.8291,-2.8291,-2.8291,-2.8291,-2.8291,-2.8291,-2.8291,-2.8291,-2.8291,-2.8291,-2.8291,-2.8291,-2.8291,-2.8291,-2.8291,-2.8291,-2.8291,-2.8291,-2.8291,-2.8291,-1.8023,-1.8303,-1.8577,-1.8918,-1.9185,-1.9424,-1.9424,-1.9424,0.0,-1.9424,-1.9424,-1.9424,-1.9424,-1.9424,-1.9424,-1.9424,-1.947,-1.9546,-1.9833,-2.0127,-2.0421,0.0,-2.0962,-2.1109,-2.1109,-2.1156,-2.1309,-2.1675,-2.1897,-2.2298,-2.2901,-2.2928,-2.2928,-2.2928,-2.2928,-2.2928,-2.2928,-2.2928,-2.2928,-2.2928,-2.2928,-2.2928,-2.2928,-2.2928,-2.3058,-2.3324,-2.3324,-2.4324,-2.5979,-2.5979,-2.6839,-2.8369,-2.98,-3.0513,-3.0928,-3.2049,-3.2332,-3.2119,-3.1758,-3.1299,-3.0889,-3.0889,-3.0889,-3.0889,-3.0889,-3.0889,-3.0889,-3.0889,-3.0889,-3.0889,-3.0889,-3.0889,-3.0889,-3.0889,-3.0889,-3.0889,-3.0889,-3.0889,-3.0889,-3.0889,-3.0889,-3.0889,-3.0889,-3.0889,-3.0889,-3.0889,-3.0137,-2.9626,-2.9626,-2.8818,-2.8291,-2.8291,-2.8291,-2.8291,-2.8291,-2.8291,-2.8291,-2.8291,-2.8291,-2.8291,-2.8291,-2.8291,-2.8291,-2.8291,-2.8291,-2.8291,-2.8291,-2.8291,-2.8291,-2.8291,-2.8291,-2.8291,-1.7909,-1.8263,-1.8557,-1.8851,-1.9145,-1.9424,-1.9424,0.0,0.0,0.0,-1.9424,-1.9424,-1.9424,-1.9424,0.0,-1.9424,-1.9424,-1.9466,-1.976,-2.0047,-2.0341,-2.0641,-2.0935,-2.1109,-2.1109,-2.1109,-2.1229,-2.1594,-2.1748,-2.2017,-2.2599,-2.2779,-2.2928,-2.2928,-2.2928,-2.2928,-2.2928,-2.2928,-2.2928,-2.2928,-2.2928,-2.2928,-2.2928,-2.2928,-2.2928,-2.2928,-2.2928,-2.3393,-2.4121,-2.4121,-2.5188,-2.6906,-2.7751,-2.9196,-3.0855,-3.1316,-3.1751,-3.21,-3.167,-3.124,-3.0889,-3.0889,-3.0889,-3.0889,-3.0889,-3.0889,-3.0889,-3.0889,-3.0889,-3.0889,-3.0889,-3.0889,-3.0889,-3.0889,-3.0889,-3.0889,-3.0889,-3.0889,-3.0889,-3.0889,-3.0889,-3.0889,-3.0889,-3.0889,-3.0889,-3.0889,-3.0137,-2.9626,-2.9626,-2.8818,-2.8291,-2.8291,-2.8291,-2.8291,-2.8291,-2.8291,-2.8291,-2.8291,-2.8291,-2.8291,-2.8291,-2.8291,-2.8291,-2.8291,-2.8291,-2.8291,-2.8291,-2.8291,-2.8291,-2.8291,-2.8291,-2.8291,-1.7883,-1.8217,-1.8544,-1.8771,-1.9105,-1.9424,-1.9424,-1.9424,0.0,-1.9424,-1.9424,-1.9424,-1.9424,0.0,-1.9424,0.0,-1.9424,-1.9446,-1.9673,-2.0007,-2.0321,0.0,-2.0895,0.0,-2.1109,-2.1109,-2.1203,-2.1443,-2.1581,-2.1804,-2.2385,-2.2699,-2.2928,-2.2928,-2.2928,-2.2928,-2.2928,-2.2928,-2.2928,-2.2928,-2.2928,-2.2928,-2.2928,-2.2928,-2.2928,-2.2928,-2.2928,-2.3126,-2.3461,-2.3461,-2.452,-2.6113,-2.6506,-2.8294,-3.0664,-3.0663,-3.1238,-3.1963,-3.1533,-3.1162,-3.0889,-3.0889,-3.0889,-3.0889,-3.0889,-3.0889,-3.0889,-3.0889,-3.0889,-3.0889,-3.0889,-3.0889,-3.0889,-3.0889,-3.0889,-3.0889,-3.0889,-3.0889,-3.0889,-3.0889,-3.0889,-3.0889,-3.0889,-3.0889,-3.0889,-3.0889,-3.0137,-2.9626,-2.9626,-2.8818,-2.8291,-2.8291,-2.8291,-2.8291,-2.8291,-2.8291,-2.8291,-2.8291,-2.8291,-2.8291,-2.8291,-2.8291,-2.8291,-2.8291,-2.8291,-2.8291,-2.8291,-2.8291,-2.8291,-2.8291,-2.8291,-2.8291,-1.7615,-1.805,-1.8497,-1.8524,-1.8951,-1.9424,-1.9424,0.0,-1.9424,-1.9424,-1.9424,-1.9424,-1.9424,-1.9424,-1.9424,-1.9424,0.0,-1.9437,-1.9406,-1.9887,-2.018,-2.0267,0.0,0.0,-2.1109,-2.1109,-2.1122,-2.1149,-2.1403,-2.1804,-2.2385,-2.2699,-2.2928,-2.2928,-2.2928,-2.2928,-2.2928,-2.2928,-2.2928,-2.2928,-2.2928,-2.2928,-2.2928,-2.2928,-2.2928,-2.2928,-2.2928,-2.3795,-2.5248,-2.5248,-2.6314,-2.8098,-2.9661,-3.0298,-3.0393,-3.1608,-3.1823,-3.1523,-3.1094,-3.0928,-3.0889,-3.0889,-3.0889,-3.0889,-3.0889,-3.0889,-3.0889,-3.0889,-3.0889,-3.0889,-3.0889,-3.0889,-3.0889,-3.0889,-3.0889,-3.0889,-3.0889,-3.0889,-3.0889,-3.0889,-3.0889,-3.0889,-3.0889,-3.0889,-3.0889,-3.0889,-3.0137,-2.9626,-2.9626,-2.8818,-2.8291,-2.8291,-2.8291,-2.8291,-2.8291,-2.8291,-2.8291,-2.8291,-2.8291,-2.8291,-2.8291,-2.8291,-2.8291,-2.8291,-2.8291,-2.8291,-2.8291,-2.8291,-2.8291,-2.8291,-2.8291,-2.8291,-1.7582,-1.7889,-1.825,-1.8444,-1.8798,-1.9145,-1.9325,0.0,-1.9424,-1.9424,-1.9424,-1.9424,-1.9424,-1.9424,-1.9424,0.0,0.0,0.0,-1.9424,-1.972,-2.004,-2.0153,-2.0595,0.0,0.0,-2.1109,-2.1109,-2.1109,-2.139,-2.1722,-2.1884,-2.2345,-2.2679,-2.2921,-2.2928,-2.2928,-2.2928,-2.2928,-2.2928,-2.2928,-2.2928,-2.2928,-2.2928,-2.2928,-2.2928,-2.2928,-2.2928,-2.3263,-2.3992,-2.5053,-2.639,-2.7972,-2.9716,-3.0834,-3.1404,-3.1682,-3.167,-3.1455,-3.1035,-3.0889,-3.0889,-3.0889,-3.0889,-3.0889,-3.0889,-3.0889,-3.0889,-3.0889,-3.0889,-3.0889,-3.0889,-3.0889,-3.0889,-3.0889,-3.0889,-3.0889,-3.0889,-3.0889,-3.0889,-3.0889,-3.0889,-3.0889,-3.0889,-3.0889,-3.0889,-3.0889,-3.0137,-2.9626,-2.9626,-2.8818,-2.8291,-2.8291,-2.8291,-2.8291,-2.8291,-2.8291,-2.8291,-2.8291,-2.8291,-2.8291,-2.8291,-2.8291,-2.8291,-2.8291,-2.8291,-2.8291,-2.8291,-2.8291,-2.8291,-2.8291,-2.8291,-2.8751,-1.7582,-1.7796,-1.8076,-1.8303,-1.8644,-1.8978,0.0,0.0,-1.9424,-1.9424,-1.9424,-1.9424,-1.9424,-1.9424,-1.9424,0.0,0.0,-1.9424,-1.9424,-1.9619,-1.9907,0.0,0.0,-2.0795,-2.1082,-2.1109,-2.1109,-2.1109,-2.1303,-2.1527,-2.1614,-2.1937,-2.2298,-2.2592,-2.2686,-2.2732,-2.2732,-2.2819,-2.2928,-2.2928,-2.2928,-2.2928,-2.2928,-2.2772,-2.2732,-2.2726,-2.2639,-2.2937,-2.3523,-2.4701,-2.6129,-2.759,-2.9383,-3.0553,-3.13,-3.1442,-3.1435,-3.1289,-3.0996,-3.0889,-3.0889,-3.0889,-3.0889,-3.0889,-3.0889,-3.0889,-3.0889,-3.0889,-3.0889,-3.0889,-3.0889,-3.0889,-3.0889,-3.0889,-3.0889,-3.0889,-3.0889,-3.0889,-3.0889,-3.0889,-3.0889,-3.0889,-3.0889,-3.0889,-3.0889,-3.0889,-3.0137,-2.9626,-2.9626,-2.8818,-2.8291,-2.8291,-2.8291,-2.8291,-2.8291,-2.8291,-2.8291,-2.8291,-2.8291,-2.8291,-2.8291,-2.8291,-2.8291,-2.8291,-2.8291,-2.8291,-2.8291,-2.8291,-2.8291,-2.8291,-2.8291,-2.9207,-1.7582,-1.7809,-1.7995,-1.7995,-1.8435,-1.8925,0.0,0.0,-1.9424,-1.9424,-1.9424,-1.9424,-1.9424,-1.9424,-1.9424,-1.9424,0.0,0.0,-1.9424,-1.9619,-1.9907,0.0,0.0,-2.0795,-2.1082,-2.1109,-2.1109,-2.1109,-2.1109,-2.1243,-2.1601,-2.1628,-2.1762,-2.1984,-2.2271,-2.2425,-2.2425,-2.2712,-2.2928,-2.2928,-2.2928,-2.2928,-2.2921,-2.2559,-2.2425,-2.2405,-2.2118,-2.3014,-2.461,-2.461,-2.5696,-2.747,-2.9101,-2.9487,-2.9334,-3.0888,-3.126,-3.0898,-3.0889,-3.0889,-3.0889,-3.0889,-3.0889,-3.0889,-3.0889,-3.0889,-3.0889,-3.0889,-3.0889,-3.0889,-3.0889,-3.0889,-3.0889,-3.0889,-3.0889,-3.0889,-3.0889,-3.0889,-3.0889,-3.0889,-3.0889,-3.0889,-3.0889,-3.0889,-3.0889,-3.0889,-3.0137,-2.9626,-2.9626,-2.8818,-2.8291,-2.8291,-2.8291,-2.8291,-2.8291,-2.8291,-2.8291,-2.8291,-2.8291,-2.8291,-2.8291,-2.8291,-2.8291,-2.8291,-2.8291,-2.8291,-2.8291,-2.8291,-2.8291,-2.8291,-2.8291,-2.9713,-1.7582,-1.7655,-1.7776,-1.7935,-1.8343,-1.8677,-1.8878,0.0,0.0,-1.9424,-1.9424,-1.9424,-1.9424,-1.9424,-1.9424,-1.9424,0.0,0.0,0.0,0.0,0.0,-2.0174,-2.0675,-2.1009,-2.1102,-2.1109,-2.1109,-2.1109,-2.1109,-2.1149,-2.1243,-2.1249,-2.1476,-2.1971,-2.2078,-2.2124,-2.2124,-2.2218,-2.2265,-2.2265,-2.2265,-2.2265,-2.2258,-2.2164,-2.2124,-2.2118,-2.2024,-2.2306,-2.2948,-2.4092,-2.4789,-2.5218,-2.6898,-2.7352,-2.7072,-2.7565,-2.8346,-2.9216,-2.9216,-2.9962,-3.0889,-3.0889,-3.0889,-3.0889,-3.0889,-3.0889,-3.0889,-3.0889,-3.0889,-3.0889,-3.0889,-3.0889,-3.0889,-3.0889,-3.0889,-3.0889,-3.0889,-3.0889,-3.0889,-3.0889,-3.0889,-3.0889,-3.0889,-3.0889,-3.0889,-3.0889,-3.0137,-2.9626,-2.9626,-2.8818,-2.8291,-2.8291,-2.8291,-2.8291,-2.8291,-2.8291,-2.8291,-2.8291,-2.8291,-2.8291,-2.8291,-2.8291,-2.8291,-2.8291,-2.8291,-2.8291,-2.8291,-2.8291,-2.8291,-2.8344,-3.0162,-3.148,0.0,-1.7582,-1.7629,-1.7822,-1.8183,-1.8537,0.0,0.0,0.0,0.0,0.0,0.0,0.0,0.0,0.0,0.0,0.0,0.0,0.0,0.0,0.0,-2.0167,-2.0655,-2.0989,-2.1096,-2.1109,-2.1109,-2.1109,-2.1109,-2.1109,-2.1109,-2.1109,-2.1276,-2.1643,-2.1764,-2.1824,-2.1824,-2.1931,-2.1984,-2.1984,-2.1984,-2.1984,-2.1984,-2.1877,-2.1824,-2.1817,-2.1704,-2.165,0.0,-2.285,-2.3113,-2.306,-2.4797,-2.5338,-2.52,-2.5802,-2.6651,-2.7563,-2.8179,-2.9098,-3.0079,-3.0704,-3.0889,-3.0889,-3.0889,-3.0889,-3.0889,-3.0889,-3.0889,-3.0889,-3.0889,-3.0889,-3.0889,-3.0889,-3.0889,-3.0889,-3.0889,-3.0889,-3.0889,-3.0889,-3.0889,-3.0889,-3.0889,-3.0889,-3.083,-3.0654,-3.0019,-2.9567,-2.9346,-2.8721,-2.8291,-2.8291,-2.8291,-2.8291,-2.8291,-2.8291,-2.8291,-2.8291,-2.8291,-2.8291,-2.8291,-2.8291,-2.8291,-2.8291,-2.8291,-2.8291,-2.8291,-2.8291,-2.8548,-2.9112,-3.1276,-3.2593,0.0,-1.7582,-1.7582,-1.7582,-1.8023,-1.8457,-1.8457,0.0,0.0,0.0,0.0,0.0,0.0,0.0,0.0,0.0,0.0,0.0,0.0,-1.9444,0.0,0.0,-2.0494,-2.0795,-2.1082,-2.1109,-2.1109,-2.1109,-2.1109,-2.1109,-2.1109,-2.1109,-2.1109,-2.1109,-2.1376,-2.1581,-2.1581,-2.179,-2.1924,-2.1924,-2.1924,-2.1924,-2.1911,-2.1708,-2.1581,-2.1568,-2.1229,-2.1109,-2.1109,-2.1109,-2.1109,-2.1229,-2.2834,-2.3387,-2.3566,-2.5077,-2.5733,-2.6045,-2.7692,-2.8298,-2.8664,-3.0333,-3.0889,-3.0889,-3.0889,-3.0889,-3.0889,-3.0889,-3.0889,-3.0889,-3.0889,-3.0889,-3.0889,-3.0889,-3.0889,-3.0889,-3.0889,-3.0889,-3.0889,-3.0889,-3.0889,-3.0889,-3.0889,-3.0889,-3.0732,-3.0264,-2.9834,-2.9414,-2.8975,-2.8555,-2.8291,-2.8291,-2.8291,-2.8291,-2.8291,-2.8291,-2.8291,-2.8291,-2.8291,-2.8291,-2.8291,-2.8291,-2.8291,-2.8291,-2.8291,-2.8291,-2.8291,-2.8398,-2.9102,-3.0317,-3.1785,-3.3155,-1.7582,0.0,-1.7582,-1.7582,-1.7869,-1.8095,0.0,0.0,0.0,0.0,0.0,0.0,0.0,0.0,0.0,0.0,0.0,-1.9424,-1.9424,-1.9559,0.0,-2.0187,-2.0494,-2.0795,-2.1082,-2.1109,-2.1109,-2.1109,-2.1109,-2.1109,-2.1109,-2.1109,-2.1109,-2.1109,-2.1176,-2.1216,-2.1216,-2.1283,-2.1316,-2.1316,-2.1316,-2.1316,-2.1316,-2.1243,-2.1216,-2.1209,-2.1136,-2.1109,-2.1109,-2.1109,-2.1109,-2.1172,-2.1538,-2.1664,-2.1727,-2.209,-2.3069,-2.4417,-2.5984,-2.7383,-2.8664,-3.0333,-3.0889,-3.0889,-3.0889,-3.0889,-3.0889,-3.0889,-3.0889,-3.0889,-3.0889,-3.0889,-3.0889,-3.0889,-3.0889,-3.0889,-3.0889,-3.0889,-3.0889,-3.0889,-3.0889,-3.0889,-3.0889,-3.0889,-3.0732,-3.0264,-2.9834,-2.9414,-2.8975,-2.8555,-2.8291,-2.8291,-2.8291,-2.8291,-2.8291,-2.8291,-2.8291,-2.8291,-2.8291,-2.8291,-2.8291,-2.8291,-2.8291,-2.8291,-2.8291,-2.8291,-2.8291,-2.9303,-2.9964,-3.0369,-3.2805,-3.408,-1.7582,-1.7582,-1.7582,-1.7582,-1.7816,-1.7995,-1.7995,0.0,0.0,0.0,0.0,0.0,0.0,0.0,0.0,0.0,-1.9078,0.0,0.0,0.0,-1.976,-2.012,-2.0374,-2.0641,-2.1069,-2.1109,-2.1109,-2.1109,-2.1109,-2.1109,-2.1109,-2.1109,-2.1109,-2.1109,-2.1109,-2.1109,-2.1109,-2.1109,-2.1109,-2.1109,-2.1109,-2.1109,-2.1109,-2.1109,-2.1109,-2.1109,-2.1109,-2.1109,-2.1172,-2.1908,-2.2223,-2.2341,-2.3062,-2.3365,-2.3365,-2.3365,-2.3915,-2.4962,-2.653,-2.8179,-2.9717,-3.0587,-3.0889,-3.0889,-3.0889,-3.0889,-3.0889,-3.0889,-3.0889,-3.0889,-3.0889,-3.0889,-3.0889,-3.0889,-3.0889,-3.0889,-3.0889,-3.0889,-3.0889,-3.0889,-3.0889,-3.0889,-3.0889,-3.0713,-3.042,-2.9971,-2.9551,-2.9121,-2.8682,-2.8437,-2.8291,-2.8291,-2.8291,-2.8291,-2.8291,-2.8291,-2.8291,-2.8291,-2.8291,-2.8291,-2.8291,-2.8291,-2.8291,-2.8291,-2.8291,-2.8601,-2.9207,-2.9964,-3.0927,-3.2202,-3.3723,-3.4727,-1.7582,-1.7582,-1.7582,-1.7582,-1.7782,-1.7922,0.0,0.0,0.0,0.0,0.0,0.0,0.0,0.0,0.0,0.0,0.0,0.0,-1.9325,-1.9424,-1.9566,-2.01,-2.0207,-2.0448,-2.0989,-2.1082,-2.1109,-2.1109,-2.1109,-2.1109,-2.1109,-2.1109,-2.1109,-2.1109,-2.1109,-2.1109,-2.1109,-2.1109,-2.1109,-2.1109,-2.1109,-2.1109,-2.1109,-2.1109,-2.1109,-2.1109,-2.1109,-2.1109,-2.1235,-2.2654,-2.3387,-2.3752,-2.5077,-2.5802,-2.5976,-2.5976,-2.5976,-2.6219,-2.7871,-2.953,-3.0889,-3.0889,-3.0889,-3.0889,-3.0889,-3.0889,-3.0889,-3.0889,-3.0889,-3.0889,-3.0889,-3.0889,-3.0889,-3.0889,-3.0889,-3.0889,-3.0889,-3.0889,-3.0889,-3.0889,-3.0889,-3.0889,-3.0889,-3.0508,-3.0049,-2.9629,-2.9199,-2.876,-2.834,-2.8291,-2.8291,-2.8291,-2.8291,-2.8291,-2.8291,-2.8291,-2.8291,-2.8291,-2.8291,-2.8291,-2.8291,-2.8291,-2.8291,-2.8291,-2.8291,-2.8953,-3.0317,-3.0525,-3.1887,-3.4385,-3.4629,-3.5319,-1.7582,-1.7582,-1.7582,-1.7582,-1.7615,-1.7655,0.0,0.0,0.0,0.0,0.0,0.0,0.0,-1.849,-1.849,0.0,0.0,-1.9025,-1.9325,-1.9424,-1.9492,-1.9826,-2.0087,-2.0368,-2.0708,-2.0962,-2.1109,-2.1109,-2.1109,-2.1109,-2.1109,-2.1109,-2.1109,-2.1109,-2.1109,-2.1109,-2.1109,-2.1109,-2.1109,-2.1109,-2.1109,-2.1109,-2.1109,-2.1109,-2.1109,-2.1109,-2.1109,-2.1109,-2.1109,-2.1355,-2.2341,-2.3636,-2.3876,-2.4778,-2.5976,-2.5976,-2.5976,-2.6219,-2.7871,-2.953,-3.0889,-3.0889,-3.0889,-3.0889,-3.0889,-3.0889,-3.0889,-3.0889,-3.0889,-3.0889,-3.0889,-3.0889,-3.0889,-3.0889,-3.0889,-3.0889,-3.0889,-3.0889,-3.0889,-3.0889,-3.0889,-3.0889,-3.0889,-3.0508,-3.0049,-2.9629,-2.9199,-2.876,-2.834,-2.8291,-2.8291,-2.8291,-2.8291,-2.8291,-2.8291,-2.8291,-2.8291,-2.8291,-2.8291,-2.8291,-2.8291,-2.8291,-2.8291,-2.8291,-2.8291,-2.8953,-3.0317,-3.1429,-3.2794,-3.4434,-3.5571,-3.6216,-1.7582,-1.7582,-1.7582,-1.7582,-1.7582,0.0,0.0,0.0,0.0,0.0,0.0,0.0,0.0,0.0,-1.811,-1.8437,-1.8604,-1.8844,-1.9305,-1.9424,-1.9472,-1.9766,-2.0054,-2.0347,-2.0648,-2.0942,-2.1109,-2.1109,-2.1109,-2.1109,-2.1109,-2.1109,-2.1109,-2.1109,-2.1109,-2.1109,-2.1109,-2.1109,-2.1109,-2.1109,-2.1109,-2.1109,-2.1109,-2.1109,-2.1109,-2.1109,-2.1109,-2.1109,-2.1172,-2.2097,-2.2897,-2.3698,-2.454,-2.5863,-2.7383,-2.8307,-2.8673,-2.8733,-2.9471,-3.0265,-3.0889,-3.0889,-3.0889,-3.0889,-3.0889,-3.0889,-3.0889,-3.0889,-3.0889,-3.0889,-3.0889,-3.0889,-3.0889,-3.0889,-3.0889,-3.0889,-3.0889,-3.0889,-3.0889,-3.0889,-3.0889,-3.081,-3.0566,-3.0146,-2.9717,-2.9287,-2.8857,-2.8506,-2.831,-2.8291,-2.8291,-2.8291,-2.8291,-2.8291,-2.8291,-2.8291,-2.8291,-2.8291,-2.8291,-2.8291,-2.8291,-2.8291,-2.8291,-2.8291,-2.8291,-2.9303,-3.1378,-3.1977,-3.3392,-3.5523,-3.6108,-3.6405,-1.7582,-1.7582,-1.7582,-1.7582,0.0,0.0,0.0,0.0,0.0,0.0,0.0,0.0,0.0,-1.7642,0.0,-1.8404,-1.8551,-1.8771,-1.9292,-1.9424,-1.9511,-1.9673,-1.9953,-2.0247,-2.0541,-2.0835,-2.1036,-2.1109,-2.1109,-2.1109,-2.1109,-2.1109,-2.1109,-2.1109,-2.1109,-2.1109,-2.1109,-2.1109,-2.1109,-2.1109,-2.1109,-2.1109,-2.1109,-2.1109,-2.1109,-2.1109,-2.1109,-2.1109,-2.1172,-2.2466,-2.327,-2.369,-2.4955,-2.666,-2.8545,-2.9844,-3.0577,-3.0889,-3.0889,-3.0889,-3.0889,-3.0889,-3.0889,-3.0889,-3.0889,-3.0889,-3.0889,-3.0889,-3.0889,-3.0889,-3.0889,-3.0889,-3.0889,-3.0889,-3.0889,-3.0889,-3.0889,-3.0889,-3.0889,-3.0889,-3.0889,-3.0742,-3.0273,-2.9853,-2.9424,-2.8984,-2.8564,-2.8291,-2.8291,-2.8291,-2.8291,-2.8291,-2.8291,-2.8291,-2.8291,-2.8291,-2.8291,-2.8291,-2.8291,-2.8291,-2.8291,-2.8291,-2.8291,-2.8291,-2.8291,-2.9608,-3.228,-3.228,-3.3688,-3.6405,-3.6405,-3.6405,-1.7582,-1.7582,-1.7582,-1.7582,0.0,0.0,0.0,0.0,0.0,0.0,0.0,0.0,0.0,-1.7816,-1.8062,-1.8437,-1.8718,-1.9005,-1.9325,-1.9424,-1.943,-1.9457,-1.9659,-1.9947,-2.0234,-2.0535,-2.0822,-2.1089,-2.1109,-2.1109,-2.1109,-2.1109,-2.1109,-2.1109,-2.1109,-2.1109,-2.1109,-2.1109,-2.1109,-2.1109,-2.1109,-2.1109,-2.1109,-2.1109,-2.1109,-2.1109,-2.1109,-2.1109,-2.1109,-2.1229,-2.2223,-2.3636,-2.376,-2.5696,-2.8417,-2.8545,-2.9589,-3.0889,-3.0889,-3.0889,-3.0889,-3.0889,-3.0889,-3.0889,-3.0889,-3.0889,-3.0889,-3.0889,-3.0889,-3.0889,-3.0889,-3.0889,-3.0889,-3.0889,-3.0889,-3.0889,-3.0889,-3.0889,-3.0889,-3.0889,-3.0889,-3.0742,-3.0273,-2.9853,-2.9424,-2.8984,-2.8564,-2.8291,-2.8291,-2.8291,-2.8291,-2.8291,-2.8291,-2.8291,-2.8291,-2.8291,-2.8291,-2.8291,-2.8291,-2.8291,-2.8291,-2.8291,-2.8291,-2.8291,-2.8291,-2.9608,-3.228,-3.228,-3.3688,-3.6405,-3.6405,-3.6405,-1.7582,-1.7582,-1.7582,-1.7582,0.0,0.0,0.0,0.0,0.0,0.0,-1.7582,0.0,0.0,0.0,-1.8089,-1.8444,-1.8738,-1.9025,-1.9325,-1.9424,-1.9424,-1.9424,-1.9626,-1.9846,-1.9953,-2.0227,-2.0521,-2.0815,-2.0842,-2.0915,-2.1096,-2.1109,-2.1109,-2.1109,-2.1109,-2.1109,-2.1109,-2.1109,-2.1109,-2.1109,-2.1109,-2.1109,-2.1109,-2.1109,-2.1109,-2.1109,-2.1109,-2.1109,-2.1109,-2.1109,-2.1481,-2.216,-2.3201,-2.4962,-2.7013,-2.8051,-2.9462,-3.0889,-3.0889,-3.0889,-3.0889,-3.0889,-3.0889,-3.0889,-3.0889,-3.0889,-3.0889,-3.0889,-3.0889,-3.0889,-3.0889,-3.0889,-3.0889,-3.0889,-3.0889,-3.0889,-3.0889,-3.0889,-3.0889,-3.0889,-3.0654,-3.0322,-2.9883,-2.9453,-2.9023,-2.8594,-2.8398,-2.8291,-2.8291,-2.8291,-2.8291,-2.8291,-2.8291,-2.8291,-2.8291,-2.8291,-2.8291,-2.8291,-2.8291,-2.8291,-2.8291,-2.8291,-2.8291,-2.8291,-2.8291,-2.9608,-3.228,-3.228,-3.3688,-3.6405,-3.6405,-3.6405,-1.7582,-1.7582,-1.7582,0.0,0.0,0.0,0.0,0.0,0.0,0.0,-1.7582,0.0,-1.7582,0.0,0.0,-1.8457,-1.8811,-1.9132,-1.9397,-1.9424,-1.9424,-1.9424,-1.9546,-1.97,-1.9793,-1.998,-2.0214,-2.0514,-2.0535,-2.0621,-2.0822,-2.0835,-2.0835,-2.0835,-2.0922,-2.0969,-2.0969,-2.1062,-2.1109,-2.1109,-2.1109,-2.1109,-2.1109,-2.1109,-2.1109,-2.1109,-2.1109,-2.1109,-2.1109,-2.1109,-2.1109,-2.1235,-2.2341,-2.3807,-2.5444,-2.7082,-2.8673,-3.0206,-3.0704,-3.0889,-3.0889,-3.0889,-3.0889,-3.0889,-3.0889,-3.0889,-3.0889,-3.0889,-3.0889,-3.0889,-3.0889,-3.0889,-3.0889,-3.0889,-3.0889,-3.0889,-3.0889,-3.0889,-3.085,-3.0703,-3.042,-3.0019,-2.9463,-2.9111,-2.8779,-2.8359,-2.8291,-2.8291,-2.8291,-2.8291,-2.8291,-2.8291,-2.8291,-2.8291,-2.8291,-2.8291,-2.8291,-2.8291,-2.8291,-2.8291,-2.8291,-2.8291,-2.8291,-2.8291,-2.8291,-2.9608,-3.228,-3.228,-3.3688,-3.6405,-3.6405,-3.6405,-1.7582,-1.7582,-1.7582,0.0,0.0,0.0,0.0,0.0,0.0,0.0,0.0,-1.7582,-1.7582,-1.8083,-1.849,-1.849,-1.8985,-1.9424,-1.9424,-1.9424,-1.9424,-1.9424,-1.9424,-1.9479,-1.9766,-1.98,-1.9913,-2.0207,-2.0227,-2.0227,-2.0173,-2.0173,-2.0173,-2.0173,-2.0514,-2.0675,-2.0675,-2.0955,-2.1102,-2.1102,-2.1102,-2.1102,-2.1109,-2.1109,-2.1109,-2.1109,-2.1109,-2.1109,-2.1109,-2.1109,-2.1109,-2.1109,-2.1109,-2.216,-2.3814,-2.5436,-2.7013,-2.8664,-3.0333,-3.0889,-3.0889,-3.0889,-3.0889,-3.0889,-3.0889,-3.0889,-3.0889,-3.0889,-3.0889,-3.0889,-3.0889,-3.0889,-3.0889,-3.0889,-3.0889,-3.0889,-3.0889,-3.0889,-3.0752,-3.0283,-3.0185,-2.9912,-2.9062,-2.8916,-2.8769,-2.8359,-2.8291,-2.8291,-2.8291,-2.8291,-2.8291,-2.8291,-2.8291,-2.8291,-2.8291,-2.8291,-2.8291,-2.8291,-2.8291,-2.8291,-2.8291,-2.8291,-2.8291,-2.8291,-2.8291,-2.966,-3.2331,-3.2331,-3.3737,-3.6405,-3.6405,-3.6405,-1.7582,-1.7582,0.0,0.0,0.0,0.0,0.0,0.0,0.0,0.0,-1.7582,-1.7582,-1.7582,-1.8083,-1.849,-1.849,-1.8985,-1.9424,-1.9424,-1.9424,-1.9424,-1.9424,-1.9424,-1.9457,-1.9486,-1.9499,-1.9619,-1.9907,-1.9927,-2.0013,-2.016,-2.0173,-2.0173,-2.0173,-2.0321,-2.0368,-2.0368,-2.0448,-2.0494,-2.0494,-2.0494,-2.0708,-2.1109,-2.1109,-2.1109,-2.1109,-2.1109,-2.1109,-2.1109,-2.1109,-2.1783,-2.2709,-2.1544,-2.3497,-2.6901,-2.6227,-2.7751,-3.0206,-3.0704,-3.0889,-3.0889,-3.0889,-3.0889,-3.0889,-3.0889,-3.0889,-3.0889,-3.0889,-3.0889,-3.0889,-3.0889,-3.0889,-3.0889,-3.0889,-3.0889,-3.0889,-3.0889,-3.0635,-3.0361,-3.0225,-2.9707,-2.9219,-2.8965,-2.8672,-2.8437,-2.831,-2.8291,-2.8291,-2.8291,-2.8291,-2.8291,-2.8291,-2.8291,-2.8291,-2.8291,-2.8291,-2.8291,-2.8291,-2.8291,-2.8291,-2.8291,-2.8291,-2.8751,-2.9713,-2.9713,-3.103,-3.3773,-3.3773,-3.4666,-3.6405,-3.6405,-3.6405,-1.7582,0.0,0.0,0.0,0.0,0.0,0.0,0.0,0.0,0.0,-1.7582,-1.7582,-1.7582,-1.8083,-1.849,-1.849,-1.8985,-1.9424,-1.9424,-1.9424,-1.9424,-1.9424,-1.9424,-1.9424,-1.9424,-1.9424,-1.9497,-1.9619,-1.9626,-1.97,-1.988,-1.9887,-1.9887,-1.9887,-2.0,-2.006,-2.006,-2.0174,-2.0173,-2.0173,-2.0173,-2.0421,-2.0768,-2.0882,-2.1002,-2.1109,-2.1109,-2.1109,-2.1172,-2.1846,-2.2709,-2.3574,-2.3193,-2.4832,-2.7383,-2.7073,-2.8179,-3.002,-3.0645,-3.0889,-3.0889,-3.0889,-3.0889,-3.0889,-3.0889,-3.0889,-3.0889,-3.0889,-3.0889,-3.0889,-3.0889,-3.0752,-3.0664,-3.085,-3.0752,-3.0615,-3.0615,-3.0264,-2.9902,-2.9717,-2.9277,-2.8867,-2.8701,-2.8457,-2.8291,-2.8291,-2.8291,-2.8291,-2.8291,-2.8291,-2.8291,-2.8291,-2.8291,-2.8291,-2.8291,-2.8291,-2.8291,-2.8291,-2.8291,-2.8291,-2.8291,-2.8794,-2.946,-3.0266,-3.0813,-3.2191,-3.4385,-3.4385,-3.5078,-3.6405,-3.6405,-3.6405,0.0,0.0,0.0,0.0,0.0,0.0,-1.7582,-1.7582,-1.7582,-1.7582,0.0,-1.7582,-1.7582,-1.8083,-1.849,-1.849,-1.8985,-1.9424,-1.9424,-1.9424,-1.9424,-1.9424,-1.9424,-1.9424,-1.9424,-1.9424,-1.9424,-1.9424,-1.9424,-1.9424,-1.9424,-1.9424,-1.9424,-1.9424,-1.9626,-1.976,-1.976,-2.0027,-2.0154,-2.0154,-2.0154,-2.0167,-2.014,-2.0501,-2.0782,-2.1029,-2.1029,-2.1042,-2.1195,-2.2736,-2.342,-2.3752,-2.5016,-2.5855,-2.6409,-2.7683,-2.8358,-2.8852,-3.0392,-3.0889,-3.0889,-3.0889,-3.0889,-3.0889,-3.0889,-3.0889,-3.0879,-3.084,-3.083,-3.082,-3.0781,-3.0459,-3.0244,-3.0674,-3.0449,-3.0137,-3.0137,-2.9805,-2.9394,-2.8994,-2.8887,-2.874,-2.8359,-2.8291,-2.8291,-2.8291,-2.8291,-2.8291,-2.8291,-2.8291,-2.8291,-2.8291,-2.8291,-2.8291,-2.8291,-2.8291,-2.8291,-2.8291,-2.8291,-2.8291,-2.8291,-2.9608,-3.0369,-3.0463,-3.1836,-3.3204,-3.4581,-3.4581,-3.5223,-3.6405,-3.6405,-3.6405,0.0,0.0,0.0,0.0,0.0,0.0,0.0,-1.7582,-1.7582,-1.7582,-1.7582,-1.7582,-1.7582,-1.8083,-1.849,-1.849,-1.8985,-1.9424,-1.9424,-1.9424,-1.9424,-1.9424,-1.9424,-1.9424,-1.9424,-1.9424,-1.9424,-1.9424,-1.9424,-1.9424,-1.9424,-1.9424,-1.9424,-1.9424,-1.9491,-1.9459,-1.9459,-1.9519,-1.9553,-1.9553,-1.9553,-1.9673,-1.9907,-2.0194,-2.0361,-2.036,-2.036,-2.0555,-2.0831,-2.1197,-2.2245,-2.3512,-2.2522,-2.4525,-2.7751,-2.6832,-2.8119,-3.0392,-3.0772,-3.0889,-3.0889,-3.0889,-3.0889,-3.0889,-3.0889,-3.0889,-3.081,-3.0449,-3.0342,-3.0264,-2.9941,-2.9785,-2.9726,-2.989,-2.9775,-2.9707,-2.9707,-2.9365,-2.9033,-2.8935,-2.8652,-2.8398,-2.831,-2.8291,-2.8291,-2.8291,-2.8291,-2.8291,-2.8291,-2.8291,-2.8291,-2.8291,-2.8291,-2.8291,-2.8291,-2.8291,-2.8291,-2.8291,-2.8291,-2.8291,-2.8291,-2.9608,-3.0824,-3.1836,-3.3254,-3.4617,-3.5966,-3.5966,-3.6108,-3.6405,-3.6405,-3.6405,0.0,0.0,0.0,0.0,0.0,0.0,0.0,-1.7582,-1.7582,-1.7582,-1.7582,-1.7582,-1.7582,-1.7963,-1.8323,-1.847,-1.8865,-1.9205,-1.941,-1.9424,-1.9424,-1.9424,-1.9424,-1.9424,-1.9424,-1.9424,-1.9424,-1.9424,-1.9424,-1.9424,-1.9424,-1.9424,-1.9424,-1.9424,-1.9424,-1.9424,-1.9424,-1.9424,-1.9424,-1.9424,-1.9424,-1.9446,-1.9606,-2.004,-2.0173,-2.0173,-2.0173,-2.0321,-2.0522,-2.1296,-2.2233,-2.3164,-2.3088,-2.4567,-2.6776,-2.6658,-2.7683,-2.9297,-3.0015,-3.0264,-3.0264,-3.0264,-3.0264,-3.0264,-3.0264,-3.0264,-3.0205,-2.9961,-2.9893,-2.9844,-2.9629,-2.9414,-2.9258,-2.9258,-2.9258,-2.9258,-2.9258,-2.8916,-2.8613,-2.8613,-2.8437,-2.8291,-2.8291,-2.8291,-2.8291,-2.8291,-2.8291,-2.8291,-2.8291,-2.8291,-2.8291,-2.8291,-2.8291,-2.8291,-2.8291,-2.8291,-2.8291,-2.8291,-2.8291,-2.8601,-2.9207,-3.0577,-3.1582,-3.228,-3.4313,-3.5715,-3.6405,-3.6405,-3.6405,-3.6405,-3.6405,-3.6405,0.0,0.0,0.0,0.0,0.0,0.0,0.0,-1.7582,-1.7582,-1.7582,-1.7582,-1.7582,-1.7582,-1.7836,-1.8075,-1.837,-1.8657,-1.8951,-1.9252,-1.9292,-1.937,-1.9417,-1.9424,-1.9424,-1.9424,-1.9424,-1.9424,-1.9424,-1.9424,-1.9424,-1.9424,-1.9424,-1.9424,-1.9424,-1.9424,-1.9424,-1.9424,-1.9424,-1.9424,-1.9424,-1.9424,-1.9424,-1.9444,-1.9867,-2.0087,-2.0087,-2.0087,-2.0107,-2.0214,-2.1627,-2.2245,-2.2416,-2.374,-2.4436,-2.4845,-2.6071,-2.6655,-2.7122,-2.869,-2.9215,-2.9281,-2.9505,-2.9626,-2.9626,-2.9626,-2.9626,-2.9551,-2.9482,-2.9453,-2.9443,-2.9365,-2.9082,-2.8809,-2.8809,-2.8809,-2.8809,-2.8809,-2.8535,-2.8291,-2.8291,-2.8291,-2.8291,-2.8291,-2.8291,-2.8291,-2.8291,-2.8291,-2.8291,-2.8291,-2.8291,-2.8291,-2.8291,-2.8291,-2.8291,-2.8291,-2.8291,-2.8291,-2.8291,-2.8495,-2.9154,-3.0266,-3.1836,-3.2644,-3.2644,-3.5102,-3.6405,-3.6405,-3.6405,-3.6405,-3.6405,-3.6405,-3.6405,0.0,0.0,0.0,0.0,0.0,0.0,0.0,0.0,-1.7582,0.0,-1.7582,-1.7582,-1.7582,-1.7836,-1.8009,-1.8042,-1.8357,-1.8651,-1.8945,-1.8985,-1.9078,-1.9397,-1.9424,-1.9424,-1.9424,-1.9424,-1.9424,-1.9424,-1.9424,-1.9424,-1.9424,-1.9424,-1.9424,-1.9424,-1.9424,-1.9424,-1.9424,-1.9424,-1.9424,-1.9424,-1.9424,-1.9424,-1.943,-1.9446,-1.9486,-1.9486,-1.9486,-1.9626,-1.9853,-2.0091,-2.0293,-2.0584,-2.0758,-2.1759,-2.3055,-2.3232,-2.4218,-2.56,-2.7065,-2.7587,-2.7823,-2.9159,-2.9626,-2.9626,-2.9626,-2.9626,-2.9492,-2.9111,-2.9004,-2.8926,-2.8555,-2.8418,-2.8379,-2.8379,-2.8379,-2.8379,-2.8379,-2.833,-2.8291,-2.8291,-2.8291,-2.8291,-2.8291,-2.8291,-2.8291,-2.8291,-2.8291,-2.8291,-2.8291,-2.8291,-2.8291,-2.8291,-2.8291,-2.8291,-2.8291,-2.8291,-2.8291,-2.8291,-2.9408,-3.011,-3.0266,-3.2755,-3.4129,-3.4129,-3.5619,-3.6405,-3.6405,-3.6405,-3.6405,-3.6405,-3.6405,-3.6405,0.0,0.0,0.0,0.0,0.0,0.0,0.0,0.0,-1.7582,-1.7582,-1.7582,-1.7582,-1.7582,-1.7695,-1.7842,-1.7962,-1.8102,-1.8343,-1.8637,-1.8684,-1.8731,-1.8858,-1.9018,-1.9118,-1.9118,-1.9272,-1.9424,-1.9424,-1.9424,-1.9424,-1.9424,-1.9424,-1.9424,-1.9424,-1.9424,-1.9424,-1.9424,-1.9424,-1.9424,-1.9424,-1.9424,-1.9424,-1.9424,-1.9424,-1.9424,-1.9424,-1.9424,-1.9497,-1.9559,-1.9559,-1.9633,-1.9746,-1.9746,-2.0212,-2.1073,-2.2721,-2.3731,-2.4698,-2.7031,-2.7888,-2.7943,-2.8629,-2.8857,-2.8857,-2.8857,-2.8857,-2.8818,-2.8623,-2.8564,-2.8525,-2.834,-2.8291,-2.8291,-2.8291,-2.8291,-2.8291,-2.8291,-2.8291,-2.8291,-2.8291,-2.8291,-2.8291,-2.8291,-2.8291,-2.8291,-2.8291,-2.8291,-2.8291,-2.8291,-2.8291,-2.8291,-2.8291,-2.8291,-2.8291,-2.8291,-2.8291,-2.8601,-2.9355,-2.9964,-3.0979,-3.2555,-3.3773,-3.4727,-3.5523,-3.6108,-3.6405,-3.6405,-3.6405,-3.6405,-3.6405,-3.6405,-3.6405,0.0,0.0,0.0,0.0,0.0,0.0,0.0,0.0,-1.7582,0.0,-1.7582,-1.7582,-1.7582,-1.7582,-1.7655,-1.7889,-1.7876,-1.8036,-1.8337,-1.8377,-1.8404,-1.8484,-1.8684,-1.8818,-1.8818,-1.9011,-1.9145,-1.9145,-1.9212,-1.9259,-1.9259,-1.9325,-1.9424,-1.9424,-1.9424,-1.9424,-1.9424,-1.9424,-1.9424,-1.9424,-1.9424,-1.9424,-1.9424,-1.9424,-1.9424,-1.9424,-1.9424,-1.9424,-1.9424,-1.9424,-1.9424,-1.9424,-1.9809,-1.9982,-2.0256,-2.2822,-2.3822,-2.4156,-2.6834,-2.7726,-2.7789,-2.8184,-2.8291,-2.8291,-2.8291,-2.8291,-2.8291,-2.8291,-2.8291,-2.8291,-2.8291,-2.8291,-2.8291,-2.8291,-2.8291,-2.8291,-2.8291,-2.8291,-2.8291,-2.8291,-2.8291,-2.8291,-2.8291,-2.8291,-2.8291,-2.8291,-2.8291,-2.8291,-2.8291,-2.8291,-2.8291,-2.8291,-2.8291,-2.8291,-2.8291,-2.8291,-2.8847,-3.0214,-3.0618,-3.1887,-3.4288,-3.4727,-3.5379,-3.6358,-3.6405,-3.6405,-3.6405,-3.6405,-3.6405,-3.6405,-3.6405,-3.6405,0.0,0.0,0.0,0.0,0.0,0.0,0.0,0.0,-1.7582,-1.7582,-1.7582,-1.7582,-1.7582,-1.7582,-1.7589,-1.7602,-1.7609,-1.7716,-1.7975,-1.8015,-1.8122,-1.8457,-1.8504,-1.851,-1.851,-1.8531,-1.8537,-1.8537,-1.8791,-1.8945,-1.8945,-1.9219,-1.9424,-1.9424,-1.9424,-1.9424,-1.9424,-1.9424,-1.9424,-1.9424,-1.9424,-1.9424,-1.9424,-1.9424,-1.9424,-1.9424,-1.9424,-1.9424,-1.9424,-1.9424,-1.9424,-1.9533,-2.0923,-2.1472,-2.1699,-2.3207,-2.3822,-2.4044,-2.5654,-2.6209,-2.6436,-2.7843,-2.8291,-2.8291,-2.8291,-2.8291,-2.8291,-2.8291,-2.8291,-2.8291,-2.8291,-2.8291,-2.8291,-2.8291,-2.8291,-2.8291,-2.8291,-2.8291,-2.8291,-2.8291,-2.8291,-2.8291,-2.8291,-2.8291,-2.8291,-2.8291,-2.8291,-2.8291,-2.8291,-2.8291,-2.8291,-2.8291,-2.8291,-2.8291,-2.8291,-2.8291,-2.8847,-3.0214,-3.1469,-3.2844,-3.4337,-3.5619,-3.631,-3.6405,-3.6405,-3.6405,-3.6405,-3.6405,-3.6405,-3.6405,-3.6405,-3.6405,0.0,0.0,0.0,0.0,0.0,0.0,-1.7582,-1.7582,-1.7582,-1.7582,-1.7582,-1.7582,-1.7582,-1.7582,-1.7582,-1.7582,-1.7582,-1.7622,-1.7736,-1.7749,-1.7789,-1.7896,-1.8083,-1.8203,-1.8203,-1.8377,-1.849,-1.849,-1.8591,-1.8644,-1.8644,-1.8744,-1.8804,-1.8804,-1.8985,-1.9172,-1.9424,-1.9424,-1.9424,-1.9424,-1.9424,-1.9424,-1.9424,-1.9424,-1.9424,-1.9424,-1.9424,-1.9424,-1.9424,-1.9424,-1.9424,-1.9424,-1.9982,-2.0759,-2.1749,-2.3263,-2.4433,-2.5489,-2.6997,-2.7501,-2.7618,-2.8121,-2.8291,-2.8291,-2.8291,-2.8291,-2.8291,-2.8291,-2.8291,-2.8291,-2.8291,-2.8291,-2.8291,-2.8291,-2.8291,-2.8291,-2.8291,-2.8291,-2.8291,-2.8291,-2.8291,-2.8291,-2.8291,-2.8291,-2.8291,-2.8291,-2.8291,-2.8291,-2.8291,-2.8291,-2.8291,-2.8291,-2.8291,-2.8291,-2.8291,-2.9102,-3.0162,-3.148,-3.2905,-3.4264,-3.5619,-3.6156,-3.6405,-3.6405,-3.6405,-3.6405,-3.6405,-3.6405,-3.6405,-3.6405,-3.6405,-3.6405,0.0,0.0,0.0,0.0,0.0,-1.7582,-1.7582,-1.7582,-1.7582,-1.7582,-1.7582,-1.7582,-1.7582,-1.7582,-1.7582,-1.7582,-1.7582,-1.7582,-1.7582,-1.7582,-1.7582,-1.7582,-1.7762,-1.7889,-1.7889,-1.807,-1.8183,-1.8183,-1.8283,-1.8337,-1.833,-1.843,-1.849,-1.849,-1.8677,-1.8871,-1.9072,-1.9172,-1.9219,-1.9219,-1.9377,-1.9424,-1.9424,-1.9424,-1.9424,-1.9424,-1.9424,-1.9424,-1.9424,-1.9424,-1.9424,-1.9424,-1.9924,-2.0759,-2.1862,-2.3822,-2.5206,-2.6318,-2.778,-2.8291,-2.8291,-2.8291,-2.8291,-2.8291,-2.8291,-2.8291,-2.8291,-2.8291,-2.8291,-2.8291,-2.8291,-2.8291,-2.8291,-2.8291,-2.8291,-2.8291,-2.8291,-2.8291,-2.8291,-2.8291,-2.8291,-2.8291,-2.8291,-2.8291,-2.8291,-2.8291,-2.8291,-2.8291,-2.8291,-2.8291,-2.8291,-2.8291,-2.8291,-2.8291,-2.8291,-2.9102,-3.0411,-3.218,-3.3204,-3.452,-3.631,-3.6405,-3.6405,-3.6405,-3.6405,-3.6405,-3.6405,-3.6405,-3.6405,-3.6405,-3.6405,-3.6405,0.0,0.0,0.0,0.0,0.0,0.0,-1.7582,-1.7582,-1.7582,-1.7582,-1.7582,-1.7582,-1.7582,-1.7582,-1.7582,-1.7582,-1.7582,-1.7582,-1.7582,-1.7582,-1.7582,-1.7582,-1.7582,-1.7582,-1.7582,-1.7582,-1.7582,-1.7582,-1.7862,-1.7969,-1.8003,-1.8297,-1.847,-1.8477,-1.8477,-1.8484,-1.849,-1.8771,-1.8911,-1.8911,-1.9212,-1.941,-1.9417,-1.9424,-1.9424,-1.9424,-1.9424,-1.9424,-1.9424,-1.9424,-1.9424,-1.9533,-2.0973,-2.1586,-2.1975,-2.4875,-2.6045,-2.6318,-2.7736,-2.8237,-2.8291,-2.8291,-2.8291,-2.8291,-2.8291,-2.8291,-2.8291,-2.8291,-2.8291,-2.8291,-2.8291,-2.8291,-2.8291,-2.8291,-2.8291,-2.8291,-2.8291,-2.8291,-2.8291,-2.8291,-2.8291,-2.8291,-2.8291,-2.8291,-2.8291,-2.8291,-2.8291,-2.8291,-2.8291,-2.8291,-2.8291,-2.8291,-2.8291,-2.8291,-2.8291,-2.8344,-2.9513,-3.2129,-3.2331,-3.3589,-3.631,-3.6405,-3.6405,-3.6405,-3.6405,-3.6405,-3.6405,-3.6405,-3.6405,-3.6405,-3.6405,-3.6405,-1.7582,0.0,0.0,0.0,0.0,0.0,-1.7582,-1.7582,-1.7582,-1.7582,-1.7582,-1.7582,-1.7582,-1.7582,-1.7582,-1.7582,-1.7582,-1.7582,-1.7582,-1.7582,-1.7582,-1.7582,-1.7582,-1.7582,-1.7582,-1.7582,-1.7582,-1.7582,-1.7662,-1.7709,-1.7702,-1.7782,-1.7936,-1.8109,-1.8115,-1.827,-1.849,-1.8571,-1.8611,-1.8611,-1.8905,-1.9045,-1.9052,-1.9265,-1.9424,-1.9424,-1.9424,-1.9424,-1.9424,-1.9424,-1.9424,-1.9424,-1.9873,-2.0644,-2.1692,-2.2533,-2.4258,-2.6155,-2.6554,-2.7394,-2.8291,-2.8291,-2.8291,-2.8291,-2.8291,-2.8291,-2.8291,-2.8291,-2.8291,-2.8291,-2.8291,-2.8291,-2.8291,-2.8291,-2.8291,-2.8291,-2.8291,-2.8291,-2.8291,-2.8291,-2.8291,-2.8291,-2.8291,-2.8291,-2.8291,-2.8291,-2.8291,-2.8291,-2.8291,-2.8291,-2.8291,-2.8291,-2.8291,-2.8291,-2.8291,-2.9207,-3.0473,-3.218,-3.3254,-3.4617,-3.631,-3.6405,-3.6405,-3.6405,-3.6405,-3.6405,-3.6405,-3.6405,-3.6405,-3.6405,-3.6405,-3.6405,0.0,0.0,0.0,0.0,0.0,0.0,-1.7427,-1.7454,-1.7435,-1.7555,-1.7582,-1.7582,-1.7582,-1.7582,-1.7582,-1.7582,-1.7582,-1.7582,-1.7582,-1.7582,-1.7582,-1.7582,-1.7582,-1.7582,-1.7582,-1.7582,-1.7582,-1.7582,-1.7582,-1.7582,-1.7582,-1.7582,-1.7662,-1.7849,-1.7856,-1.7936,-1.811,-1.8243,-1.8303,-1.831,-1.8604,-1.8744,-1.8751,-1.9045,-1.9185,-1.9192,-1.9312,-1.9424,-1.9424,-1.9424,-1.9424,-1.9424,-1.9424,-1.9924,-2.0809,-2.2032,-2.3646,-2.5316,-2.6608,-2.7565,-2.8291,-2.8291,-2.8291,-2.8291,-2.8291,-2.8291,-2.8291,-2.8291,-2.8291,-2.8291,-2.8291,-2.8291,-2.8291,-2.8291,-2.8291,-2.8291,-2.8291,-2.8291,-2.8291,-2.8291,-2.8291,-2.8291,-2.8291,-2.8291,-2.8291,-2.8291,-2.8291,-2.8291,-2.8291,-2.8291,-2.8291,-2.8291,-2.8291,-2.8291,-2.8291,-2.9006,-3.0266,-3.218,-3.3055,-3.441,-3.631,-3.6405,-3.6405,-3.6405,-3.6405,-3.6405,-3.6405,-3.6405,-3.6405,-3.6405,-3.6405,-3.6405,0.0,0.0,0.0,-1.7152,-1.6901,0.0,-1.7092,-1.7152,-1.7226,-1.7435,-1.7482,-1.7482,-1.7482,-1.7482,-1.7482,-1.7482,-1.7515,-1.7549,-1.7582,-1.7582,-1.7582,-1.7582,-1.7582,-1.7582,-1.7582,-1.7582,-1.7582,-1.7582,-1.7582,-1.7582,-1.7582,-1.7582,-1.7582,-1.7582,-1.7582,-1.7582,-1.7582,-1.7856,-1.7942,-1.7949,-1.8297,-1.8444,-1.845,-1.8744,-1.8878,-1.8891,-1.9152,-1.9343,-1.9319,-1.9319,-1.9397,-1.9424,-1.9424,-1.9482,-1.9982,-2.2597,-2.3766,-2.4433,-2.7114,-2.8174,-2.8291,-2.8291,-2.8291,-2.8291,-2.8291,-2.8291,-2.8291,-2.8291,-2.8291,-2.8291,-2.8291,-2.8291,-2.8291,-2.8291,-2.8291,-2.8291,-2.8291,-2.8291,-2.8291,-2.8291,-2.8291,-2.8291,-2.8291,-2.8291,-2.8291,-2.8291,-2.8291,-2.8291,-2.8291,-2.8291,-2.8291,-2.8291,-2.8291,-2.8291,-2.8291,-2.8291,-2.946,-3.2129,-3.228,-3.354,-3.631,-3.6405,-3.6405,-3.6405,-3.6405,-3.6405,-3.6405,-3.6405,-3.6405,-3.6405,-3.6405,-3.6405,-1.7286,-1.7021,-1.6794,-1.6794,-1.6747,0.0,-1.678,-1.6794,-1.6807,-1.6867,-1.6881,-1.6881,-1.6881,-1.6881,-1.6881,-1.6881,-1.7074,-1.7367,-1.7549,-1.7582,-1.7582,-1.7582,-1.7582,-1.7582,-1.7582,-1.7582,-1.7582,-1.7582,-1.7582,-1.7582,-1.7582,-1.7582,-1.7582,-1.7582,-1.7582,-1.7582,-1.7582,-1.7642,-1.7669,-1.7675,-1.7983,-1.8075,-1.8089,-1.8444,-1.8577,-1.8577,-1.8637,-1.8798,-1.9011,-1.9011,-1.9152,-1.9424,-1.9424,-2.0148,-2.1252,-2.1813,-2.359,-2.5717,-2.6327,-2.733,-2.8291,-2.8291,-2.8291,-2.8291,-2.8291,-2.8291,-2.8291,-2.8291,-2.8291,-2.8291,-2.8291,-2.8291,-2.8291,-2.8291,-2.8291,-2.8291,-2.8291,-2.8291,-2.8291,-2.8291,-2.8291,-2.8291,-2.8291,-2.8291,-2.8291,-2.8291,-2.8291,-2.8291,-2.8291,-2.8291,-2.8291,-2.8291,-2.8291,-2.8291,-2.8291,-2.8291,-2.946,-3.2129,-3.228,-3.354,-3.631,-3.6405,-3.6405,-3.6405,-3.6405,-3.6405,-3.6405,-3.6405,-3.6405,-3.6405,-3.6405,-3.6405,-1.7239,-1.6985,-1.6667,-1.6526,-1.638,0.0,0.0,-1.6486,-1.6533,-1.6673,-1.6707,-1.6707,-1.6707,-1.6707,-1.6707,-1.6707,-1.6834,-1.6981,-1.7128,-1.7395,-1.7582,-1.7582,-1.7582,-1.7582,-1.7582,-1.7582,-1.7582,-1.7582,-1.7582,-1.7582,-1.7582,-1.7582,-1.7582,-1.7582,-1.7582,-1.7582,-1.7582,-1.7582,-1.7582,-1.7589,-1.7742,-1.7816,-1.7822,-1.813,-1.827,-1.8277,-1.843,-1.8946,-1.9723,-1.9723,-2.0197,-2.0929,-2.0637,-2.0923,-2.1749,-2.3271,-2.4829,-2.6209,-2.6943,-2.7672,-2.8291,-2.8291,-2.8291,-2.8291,-2.8291,-2.8291,-2.8291,-2.8291,-2.8291,-2.8291,-2.8291,-2.8291,-2.8291,-2.8291,-2.8291,-2.8291,-2.8291,-2.8291,-2.8291,-2.8291,-2.8291,-2.8291,-2.8291,-2.8291,-2.8291,-2.8291,-2.8291,-2.8291,-2.8291,-2.8291,-2.8291,-2.8291,-2.8291,-2.8291,-2.8291,-2.8291,-2.946,-3.2129,-3.228,-3.354,-3.631,-3.6405,-3.6405,-3.6405,-3.6405,-3.6405,-3.6405,-3.6405,-3.6405,-3.6405,-3.6405,-3.6405,-1.7266,-1.6945,-1.6567,-1.6333,-1.6052,-1.5892,0.0,0.0,0.0,-1.6486,-1.654,-1.654,-1.654,-1.654,-1.654,-1.654,-1.6587,-1.662,-1.662,-1.7081,-1.7415,-1.7415,-1.7415,-1.7435,-1.7548,-1.7549,-1.7582,-1.7582,-1.7582,-1.7582,-1.7582,-1.7582,-1.7582,-1.7582,-1.7582,-1.7582,-1.7582,-1.7582,-1.7582,-1.7582,-1.7582,-1.7582,-1.7589,-1.7842,-1.7902,-1.7916,-1.821,-1.9138,-2.0409,-2.0409,-2.124,-2.244,-2.2086,-2.2102,-2.2663,-2.5151,-2.6282,-2.6717,-2.7897,-2.8291,-2.8291,-2.8291,-2.8291,-2.8291,-2.8291,-2.8291,-2.8291,-2.8291,-2.8291,-2.8291,-2.8291,-2.8291,-2.8291,-2.8291,-2.8291,-2.8291,-2.8291,-2.8291,-2.8291,-2.8291,-2.8291,-2.8291,-2.8291,-2.8291,-2.8291,-2.8291,-2.8291,-2.8291,-2.8291,-2.8291,-2.8291,-2.8291,-2.8291,-2.8291,-2.8291,-2.8548,-2.9713,-3.2129,-3.2532,-3.3798,-3.631,-3.6405,-3.6405,-3.6405,-3.6405,-3.6405,-3.6405,-3.6405,-3.6405,-3.6405,-3.6405,-3.6405,-1.7206,-1.6797,-1.6362,-1.6328,-1.6052,-1.5791,-1.5872,0.0,-1.5885,-1.5919,0.0,-1.5878,-1.5878,0.0,0.0,-1.5878,-1.6152,-1.6375,-1.6375,-1.66,-1.6807,-1.6807,-1.6807,-1.6907,-1.7226,-1.7481,-1.7582,-1.7582,-1.7582,-1.7582,-1.7582,-1.7582,-1.7582,-1.7582,-1.7582,-1.7582,-1.7582,-1.7582,-1.7582,-1.7582,-1.7582,-1.7582,-1.7582,-1.7615,-1.7635,-1.7635,-1.7669,-1.8614,-2.0127,-2.0127,-2.1093,-2.2523,-2.2868,-2.3833,-2.5058,-2.5802,-2.6943,-2.8067,-2.8237,-2.8291,-2.8291,-2.8291,-2.8291,-2.8291,-2.8291,-2.8291,-2.8291,-2.8291,-2.8291,-2.8291,-2.8291,-2.8291,-2.8291,-2.8291,-2.8291,-2.8291,-2.8291,-2.8291,-2.8291,-2.8291,-2.8291,-2.8291,-2.8291,-2.8291,-2.8291,-2.8291,-2.8291,-2.8291,-2.8291,-2.8291,-2.8291,-2.8291,-2.8291,-2.8291,-2.8291,-2.9408,-3.0721,-3.2191,-3.3464,-3.4824,-3.6358,-3.6405,-3.6405,-3.6405,-3.6405,-3.6405,-3.6405,-3.6405,-3.6405,-3.6405,-3.6405,-3.6405,-1.7246,-1.7025,-1.679,-1.6567,-1.6306,-1.6086,-1.6086,-1.5952,-1.5784,-1.5784,0.0,0.0,0.0,0.0,0.0,0.0,-1.5932,-1.6012,-1.6012,-1.6119,-1.6319,-1.6667,-1.6707,-1.6754,-1.6881,-1.7001,-1.7148,-1.7373,-1.738,-1.746,-1.7575,-1.7582,-1.7582,-1.7582,-1.7582,-1.7582,-1.7582,-1.7582,-1.7582,-1.7582,-1.7582,-1.7582,-1.7582,-1.7582,-1.7582,-1.7582,-1.7582,-1.8426,-1.9889,-2.0706,-2.187,-2.3297,-2.4578,-2.5032,-2.5187,-2.6222,-2.7007,-2.7549,-2.7549,-2.7549,-2.7549,-2.7549,-2.7549,-2.7549,-2.7549,-2.7549,-2.7549,-2.7549,-2.7549,-2.7549,-2.7549,-2.7549,-2.7617,-2.7871,-2.793,-2.7998,-2.8242,-2.8291,-2.8291,-2.8291,-2.8291,-2.8291,-2.8291,-2.8291,-2.8291,-2.8291,-2.8291,-2.8291,-2.8291,-2.8291,-2.8291,-2.8291,-2.8291,-2.8601,-2.9408,-2.9964,-3.1235,-3.3353,-3.4812,-3.581,-3.6358,-3.6405,-3.6405,-3.6405,-3.6405,-3.6405,-3.6405,-3.6405,-3.6405,-3.6405,-3.6405,-3.6405,-1.738,-1.7266,-1.7146,-1.6881,-1.6607,-1.6373,-1.6342,-1.6106,-1.5925,-1.5798,-1.5784,0.0,0.0,0.0,-1.5784,0.0,0.0,-1.5784,-1.5784,-1.5784,-1.5937,-1.6413,-1.654,-1.6587,-1.6587,-1.666,-1.6794,-1.7065,-1.7159,-1.7293,-1.7507,-1.7542,-1.7582,-1.7582,-1.7582,-1.7582,-1.7582,-1.7582,-1.7582,-1.7582,-1.7582,-1.7582,-1.7582,-1.7582,-1.7582,-1.7582,-1.7582,-1.8349,-1.9731,-2.1143,-2.2508,-2.3868,-2.557,-2.5707,-2.521,-2.6497,-2.7012,-2.7012,-2.7012,-2.7012,-2.7012,-2.7012,-2.7012,-2.7012,-2.7012,-2.7012,-2.7012,-2.7012,-2.7012,-2.7012,-2.7012,-2.7012,-2.7129,-2.7611,-2.7718,-2.7836,-2.8203,-2.8291,-2.8291,-2.8291,-2.8291,-2.8291,-2.8291,-2.8291,-2.8291,-2.8291,-2.8291,-2.8291,-2.8291,-2.8291,-2.8291,-2.8291,-2.8644,-2.926,-3.0214,-3.0979,-3.2443,-3.4824,-3.5858,-3.6405,-3.6405,-3.6405,-3.6405,-3.6405,-3.6405,-3.6405,-3.6405,-3.6405,-3.6405,-3.6405,-3.6405,-3.6405,-1.7569,-1.7414,-1.7199,-1.7192,-1.6914,-1.662,-1.6339,-1.6315,-1.6179,-1.5885,-1.5784,-1.5784,-1.5784,-1.5784,0.0,0.0,0.0,0.0,0.0,-1.5784,-1.5791,-1.5804,-1.6112,-1.6286,-1.6286,-1.654,-1.6707,-1.672,-1.7038,-1.7206,-1.7213,-1.7481,-1.7582,-1.7582,-1.7582,-1.7582,-1.7582,-1.7582,-1.7582,-1.7582,-1.7582,-1.7582,-1.7582,-1.7582,-1.7582,-1.7582,-1.7582,-1.8349,-1.9731,-2.1143,-2.2508,-2.384,-2.5186,-2.5713,-2.5781,-2.6658,-2.7012,-2.7012,-2.7012,-2.7012,-2.7012,-2.7012,-2.7012,-2.7012,-2.7012,-2.7012,-2.7012,-2.7012,-2.7012,-2.7012,-2.7012,-2.7012,-2.7129,-2.7611,-2.7718,-2.7836,-2.8203,-2.8291,-2.8291,-2.8291,-2.8291,-2.8291,-2.8291,-2.8291,-2.8291,-2.8291,-2.8291,-2.8291,-2.8291,-2.8291,-2.8291,-2.8291,-2.946,-3.0266,-3.0317,-3.2755,-3.4872,-3.6263,-3.6358,-3.6405,-3.6405,-3.6405,-3.6405,-3.6405,-3.6405,-3.6405,-3.6405,-3.6405,-3.6405,-3.6405,-3.6405,-3.6405,-1.7582,-1.7508,-1.7435,-1.7435,-1.7266,-1.7025,-1.6924,-1.6603,-1.6295,-1.6146,-1.5965,-1.5784,-1.5784,-1.5784,0.0,0.0,0.0,0.0,0.0,-1.5784,-1.5784,-1.5784,-1.5919,-1.5979,-1.5979,-1.6066,-1.6206,-1.6406,-1.6563,-1.679,-1.7179,-1.7293,-1.7434,-1.7575,-1.7582,-1.7582,-1.7582,-1.7582,-1.7582,-1.7582,-1.7582,-1.7582,-1.7582,-1.7582,-1.7582,-1.7582,-1.7582,-1.7838,-1.8454,-2.0735,-2.1954,-2.2617,-2.4815,-2.5693,-2.5723,-2.6015,-2.6122,-2.6122,-2.6122,-2.6122,-2.6122,-2.6122,-2.6122,-2.6122,-2.6122,-2.6122,-2.6122,-2.6122,-2.6122,-2.6122,-2.6122,-2.6122,-2.6348,-2.706,-2.7236,-2.7432,-2.8144,-2.8291,-2.8291,-2.8291,-2.8291,-2.8291,-2.8291,-2.8291,-2.8291,-2.8291,-2.8291,-2.8291,-2.8291,-2.8291,-2.8291,-2.8291,-2.9513,-3.0669,-3.1531,-3.4142,-3.5918,-3.6358,-3.6405,-3.6405,-3.6405,-3.6405,-3.6405,-3.6405,-3.6405,-3.6405,-3.6405,-3.6405,-3.6405,-3.6405,-3.6405,-3.6405,-1.7582,-1.7582,-1.7582,-1.7582,-1.7494,-1.7326,-1.7226,-1.6824,-1.64,-1.6342,-1.6039,-1.5784,-1.5784,-1.5784,0.0,0.0,0.0,0.0,0.0,-1.5784,-1.5784,-1.5784,-1.5784,-1.5784,-1.5784,-1.5784,-1.5905,-1.6099,-1.6213,0.0,0.0,-1.7085,-1.7286,-1.7474,-1.7528,-1.7582,-1.7582,-1.7582,-1.7582,-1.7582,-1.7582,-1.7582,-1.7582,-1.7582,-1.7582,-1.7582,-1.7582,-1.7582,-1.7786,-2.0025,-2.1245,-2.1904,-2.4146,-2.5274,-2.5693,-2.5693,-2.5693,-2.5693,-2.5693,-2.5693,-2.5693,-2.5693,-2.5693,-2.5693,-2.5693,-2.5693,-2.5693,-2.5693,-2.5693,-2.5693,-2.5693,-2.5693,-2.5908,-2.6807,-2.7012,-2.7246,-2.8105,-2.8291,-2.8291,-2.8291,-2.8291,-2.8291,-2.8291,-2.8291,-2.8291,-2.8291,-2.8291,-2.8291,-2.8291,-2.8291,-2.8495,-2.8953,-3.0214,-3.1785,-3.3589,-3.5403,-3.6405,-3.6405,-3.6405,-3.6405,-3.6405,-3.6405,-3.6405,-3.6405,-3.6405,-3.6405,-3.6405,-3.6405,-3.6405,-3.6405,-3.6405,-3.6405]}]]